<?xml version="1.0" encoding="UTF-8"?>
<gpx version="1.1" creator="2bulu-scraper" xmlns="http://www.topografix.com/GPX/1/1">
  <metadata><name>峨眉山南线（报国寺-仙峰寺-金顶）</name><desc>source: 2bulu.com trackId=85050452; exported 2026-09-01T16:23:29.431Z</desc>
    <bounds minlat="29.5225845" minlon="103.3268738" maxlat="29.5742006" maxlon="103.4502411"/>
    <link href="https://www.2bulu.com/track/t-2DUzQfYjJG3p%252FR2KBg5Tzw%253D%253D.htm"><text>2bulu 源页面</text></link>
  </metadata>
  <wpt lat="29.5683757" lon="103.4436595"><ele>471</ele><name>
        </name></wpt>
  <wpt lat="29.5706428" lon="103.441349"><ele>494</ele><name>
        </name></wpt>
  <wpt lat="29.5656946" lon="103.4342975"><ele>538</ele><name>
        </name></wpt>
  <wpt lat="29.5649493" lon="103.4266923"><ele>601</ele><name>
        </name></wpt>
  <wpt lat="29.5652062" lon="103.4257642"><ele>640</ele><name>
        </name></wpt>
  <wpt lat="29.565361" lon="103.421257"><ele>785</ele><name>
        </name></wpt>
  <wpt lat="29.5696247" lon="103.4194495"><ele>894</ele><name>
        </name></wpt>
  <wpt lat="29.5707416" lon="103.4159697"><ele>882</ele><name>
        </name></wpt>
  <wpt lat="29.5686411" lon="103.4105141"><ele>836</ele><name>
        </name></wpt>
  <wpt lat="29.5665882" lon="103.4078617"><ele>769</ele><name>
        </name></wpt>
  <wpt lat="29.5720177" lon="103.4012588"><ele>723</ele><name>
        </name></wpt>
  <wpt lat="29.5735676" lon="103.3935338"><ele>681</ele><name>
        </name></wpt>
  <wpt lat="29.5742006" lon="103.3923257"><ele>662</ele><name>
        </name></wpt>
  <wpt lat="29.5741261" lon="103.3921546"><ele>659</ele><name>
        </name></wpt>
  <wpt lat="29.5712604" lon="103.3916622"><ele>662</ele><name>
        </name></wpt>
  <wpt lat="29.5704733" lon="103.3914155"><ele>663</ele><name>
        </name></wpt>
  <wpt lat="29.5692129" lon="103.3910037"><ele>664</ele><name>
        </name></wpt>
  <wpt lat="29.5688716" lon="103.3912021"><ele>668</ele><name>
        </name></wpt>
  <wpt lat="29.5688716" lon="103.3912021"><ele>668</ele><name>
        </name></wpt>
  <wpt lat="29.5664794" lon="103.3897892"><ele>689</ele><name>
        </name></wpt>
  <wpt lat="29.5659543" lon="103.3896926"><ele>691</ele><name>
        </name></wpt>
  <wpt lat="29.5648088" lon="103.38896"><ele>703</ele><name>
        </name></wpt>
  <wpt lat="29.5627624" lon="103.3891592"><ele>715</ele><name>
        </name></wpt>
  <wpt lat="29.5619866" lon="103.3892029"><ele>730</ele><name>
        </name></wpt>
  <wpt lat="29.5606259" lon="103.3894259"><ele>739</ele><name>
        </name></wpt>
  <wpt lat="29.5568645" lon="103.3860216"><ele>790</ele><name>
        </name></wpt>
  <wpt lat="29.5555115" lon="103.3850327"><ele>894</ele><name>
        </name></wpt>
  <wpt lat="29.5548058" lon="103.3844089"><ele>940</ele><name>
        </name></wpt>
  <wpt lat="29.555055" lon="103.384136"><ele>955</ele><name>
        </name></wpt>
  <wpt lat="29.5550488" lon="103.3836572"><ele>963</ele><name>
        </name></wpt>
  <wpt lat="29.5529585" lon="103.3773356"><ele>1080</ele><name>
        </name></wpt>
  <wpt lat="29.5512073" lon="103.373599"><ele>1226</ele><name>
        </name></wpt>
  <wpt lat="29.5503434" lon="103.3704755"><ele>1202</ele><name>
        </name></wpt>
  <wpt lat="29.5494089" lon="103.3663181"><ele>1446</ele><name>
        </name></wpt>
  <wpt lat="29.5499904" lon="103.3592164"><ele>1642</ele><name>
        </name></wpt>
  <wpt lat="29.5503477" lon="103.3569818"><ele>1687</ele><name>
        </name></wpt>
  <wpt lat="29.5500444" lon="103.3569277"><ele>1697</ele><name>
        </name></wpt>
  <wpt lat="29.5519068" lon="103.3541117"><ele>1645</ele><name>
        </name></wpt>
  <wpt lat="29.5522425" lon="103.3524991"><ele>1613</ele><name>
        </name></wpt>
  <wpt lat="29.557615" lon="103.3516526"><ele>1563</ele><name>
        </name></wpt>
  <wpt lat="29.5593933" lon="103.3506978"><ele>1535</ele><name>
        </name></wpt>
  <wpt lat="29.5605346" lon="103.3516148"><ele>1646</ele><name>
        </name></wpt>
  <wpt lat="29.5607243" lon="103.351532"><ele>1660</ele><name>
        </name></wpt>
  <wpt lat="29.5625039" lon="103.3517281"><ele>1761</ele><name>
        </name></wpt>
  <wpt lat="29.5628334" lon="103.3508627"><ele>1784</ele><name>
        </name></wpt>
  <wpt lat="29.5614052" lon="103.3453217"><ele>1776</ele><name>
        </name></wpt>
  <wpt lat="29.5601101" lon="103.3439636"><ele>1886</ele><name>
        </name></wpt>
  <wpt lat="29.5587911" lon="103.3442665"><ele>2020</ele><name>
        </name></wpt>
  <wpt lat="29.5584854" lon="103.3439817"><ele>2036</ele><name>
        </name></wpt>
  <wpt lat="29.5551637" lon="103.3450651"><ele>2160</ele><name>
        </name></wpt>
  <wpt lat="29.5492973" lon="103.3418274"><ele>2241</ele><name>
        </name></wpt>
  <wpt lat="29.5478413" lon="103.3411645"><ele>2283</ele><name>
        </name></wpt>
  <wpt lat="29.5465942" lon="103.3370996"><ele>2425</ele><name>
        </name></wpt>
  <wpt lat="29.5422453" lon="103.3320284"><ele>2403</ele><name>
        </name></wpt>
  <wpt lat="29.5378134" lon="103.3335901"><ele>2427</ele><name>
        </name></wpt>
  <wpt lat="29.5348949" lon="103.33284"><ele>2493</ele><name>
        </name></wpt>
  <wpt lat="29.532301" lon="103.3312217"><ele>2611</ele><name>
        </name></wpt>
  <wpt lat="29.5321178" lon="103.3303146"><ele>2651</ele><name>
        </name></wpt>
  <wpt lat="29.531179" lon="103.3284345"><ele>2738</ele><name>
        </name></wpt>
  <wpt lat="29.5295701" lon="103.3278151"><ele>2820</ele><name>
        </name></wpt>
  <wpt lat="29.5273628" lon="103.3324922"><ele>2907</ele><name>
        </name></wpt>
  <wpt lat="29.5230624" lon="103.3347535"><ele>3000</ele><name>
        </name></wpt>
  <wpt lat="29.5226734" lon="103.3359328"><ele>3024</ele><name>
        </name></wpt>
  <wpt lat="29.5228471" lon="103.3371915"><ele>3041</ele><name>
        </name></wpt>
  <trk><name>峨眉山南线（报国寺-仙峰寺-金顶）</name>
      <trkseg>
        <trkpt lat="29.5696106" lon="103.4502411"><ele>463.92</ele><time>2026-05-29T12:37:48.000Z</time></trkpt>
        <trkpt lat="29.5696738" lon="103.4501789"><ele>463.92</ele><time>2026-05-29T12:38:02.000Z</time></trkpt>
        <trkpt lat="29.5697605" lon="103.4501414"><ele>463.3</ele><time>2026-05-29T12:38:08.000Z</time></trkpt>
        <trkpt lat="29.5698394" lon="103.4500772"><ele>462.37</ele><time>2026-05-29T12:38:24.000Z</time></trkpt>
        <trkpt lat="29.5698445" lon="103.4499796"><ele>458.9</ele><time>2026-05-29T12:38:34.000Z</time></trkpt>
        <trkpt lat="29.5698364" lon="103.4498705"><ele>457.24</ele><time>2026-05-29T12:38:42.000Z</time></trkpt>
        <trkpt lat="29.5698093" lon="103.449765"><ele>456.17</ele><time>2026-05-29T12:38:54.000Z</time></trkpt>
        <trkpt lat="29.5697734" lon="103.4496569"><ele>456.31</ele><time>2026-05-29T12:39:04.000Z</time></trkpt>
        <trkpt lat="29.5697408" lon="103.4495543"><ele>456.99</ele><time>2026-05-29T12:39:10.000Z</time></trkpt>
        <trkpt lat="29.5697154" lon="103.4494429"><ele>457.78</ele><time>2026-05-29T12:39:22.000Z</time></trkpt>
        <trkpt lat="29.5696647" lon="103.4493454"><ele>458.32</ele><time>2026-05-29T12:39:34.000Z</time></trkpt>
        <trkpt lat="29.5696219" lon="103.449242"><ele>458.38</ele><time>2026-05-29T12:39:44.000Z</time></trkpt>
        <trkpt lat="29.5695906" lon="103.4491416"><ele>458.08</ele><time>2026-05-29T12:39:52.000Z</time></trkpt>
        <trkpt lat="29.5695723" lon="103.449031"><ele>458.11</ele><time>2026-05-29T12:39:58.000Z</time></trkpt>
        <trkpt lat="29.5695527" lon="103.4489164"><ele>458.74</ele><time>2026-05-29T12:40:10.000Z</time></trkpt>
        <trkpt lat="29.5695401" lon="103.4487895"><ele>459.27</ele><time>2026-05-29T12:40:22.000Z</time></trkpt>
        <trkpt lat="29.5695311" lon="103.4486757"><ele>460.04</ele><time>2026-05-29T12:40:32.000Z</time></trkpt>
        <trkpt lat="29.5695415" lon="103.4485619"><ele>461.31</ele><time>2026-05-29T12:40:44.000Z</time></trkpt>
        <trkpt lat="29.5695354" lon="103.4484536"><ele>462.89</ele><time>2026-05-29T12:40:52.000Z</time></trkpt>
        <trkpt lat="29.5694748" lon="103.4483701"><ele>463.1</ele><time>2026-05-29T12:41:00.000Z</time></trkpt>
        <trkpt lat="29.5694115" lon="103.4482667"><ele>463.76</ele><time>2026-05-29T12:41:08.000Z</time></trkpt>
        <trkpt lat="29.5693619" lon="103.4481659"><ele>462.82</ele><time>2026-05-29T12:41:16.000Z</time></trkpt>
        <trkpt lat="29.5692775" lon="103.4480491"><ele>462.22</ele><time>2026-05-29T12:41:28.000Z</time></trkpt>
        <trkpt lat="29.5692436" lon="103.447938"><ele>461.99</ele><time>2026-05-29T12:41:36.000Z</time></trkpt>
        <trkpt lat="29.5692288" lon="103.4478297"><ele>461.85</ele><time>2026-05-29T12:41:44.000Z</time></trkpt>
        <trkpt lat="29.5691949" lon="103.4477285"><ele>461.09</ele><time>2026-05-29T12:41:54.000Z</time></trkpt>
        <trkpt lat="29.5691592" lon="103.4476239"><ele>460.55</ele><time>2026-05-29T12:42:04.000Z</time></trkpt>
        <trkpt lat="29.5691272" lon="103.4475235"><ele>460.35</ele><time>2026-05-29T12:42:14.000Z</time></trkpt>
        <trkpt lat="29.5690994" lon="103.4474188"><ele>460.19</ele><time>2026-05-29T12:42:24.000Z</time></trkpt>
        <trkpt lat="29.5690674" lon="103.4473123"><ele>460.93</ele><time>2026-05-29T12:42:36.000Z</time></trkpt>
        <trkpt lat="29.5690278" lon="103.4472167"><ele>461.96</ele><time>2026-05-29T12:42:46.000Z</time></trkpt>
        <trkpt lat="29.5689926" lon="103.4471023"><ele>463.15</ele><time>2026-05-29T12:42:56.000Z</time></trkpt>
        <trkpt lat="29.5689867" lon="103.4469863"><ele>463.8</ele><time>2026-05-29T12:43:06.000Z</time></trkpt>
        <trkpt lat="29.5689715" lon="103.4468704"><ele>465.11</ele><time>2026-05-29T12:43:16.000Z</time></trkpt>
        <trkpt lat="29.5689312" lon="103.4467551"><ele>466.05</ele><time>2026-05-29T12:43:24.000Z</time></trkpt>
        <trkpt lat="29.5688871" lon="103.4466459"><ele>465.87</ele><time>2026-05-29T12:43:32.000Z</time></trkpt>
        <trkpt lat="29.5688843" lon="103.4465277"><ele>465.21</ele><time>2026-05-29T12:43:42.000Z</time></trkpt>
        <trkpt lat="29.5688875" lon="103.4464058"><ele>464.41</ele><time>2026-05-29T12:43:54.000Z</time></trkpt>
        <trkpt lat="29.5688725" lon="103.446283"><ele>463.97</ele><time>2026-05-29T12:44:06.000Z</time></trkpt>
        <trkpt lat="29.5688551" lon="103.4461659"><ele>464.22</ele><time>2026-05-29T12:44:16.000Z</time></trkpt>
        <trkpt lat="29.5688244" lon="103.4460627"><ele>465.01</ele><time>2026-05-29T12:44:24.000Z</time></trkpt>
        <trkpt lat="29.5687791" lon="103.4459585"><ele>466.11</ele><time>2026-05-29T12:44:36.000Z</time></trkpt>
        <trkpt lat="29.5687679" lon="103.4458361"><ele>466.94</ele><time>2026-05-29T12:45:26.000Z</time></trkpt>
        <trkpt lat="29.5687262" lon="103.4457409"><ele>466.72</ele><time>2026-05-29T12:45:32.000Z</time></trkpt>
        <trkpt lat="29.5686892" lon="103.445645"><ele>466.36</ele><time>2026-05-29T12:45:42.000Z</time></trkpt>
        <trkpt lat="29.5686421" lon="103.4455477"><ele>465.68</ele><time>2026-05-29T12:45:54.000Z</time></trkpt>
        <trkpt lat="29.5686045" lon="103.4454438"><ele>464.99</ele><time>2026-05-29T12:46:04.000Z</time></trkpt>
        <trkpt lat="29.5685826" lon="103.4453371"><ele>465.92</ele><time>2026-05-29T12:46:14.000Z</time></trkpt>
        <trkpt lat="29.5685591" lon="103.4452355"><ele>466.68</ele><time>2026-05-29T12:46:24.000Z</time></trkpt>
        <trkpt lat="29.5685398" lon="103.4451245"><ele>467.34</ele><time>2026-05-29T12:46:34.000Z</time></trkpt>
        <trkpt lat="29.5685116" lon="103.4450099"><ele>468.36</ele><time>2026-05-29T12:46:46.000Z</time></trkpt>
        <trkpt lat="29.5685212" lon="103.4449003"><ele>469.6</ele><time>2026-05-29T12:46:54.000Z</time></trkpt>
        <trkpt lat="29.5685134" lon="103.4447928"><ele>470.45</ele><time>2026-05-29T12:47:02.000Z</time></trkpt>
        <trkpt lat="29.568483" lon="103.4446919"><ele>470.76</ele><time>2026-05-29T12:47:12.000Z</time></trkpt>
        <trkpt lat="29.5684729" lon="103.4445875"><ele>471.1</ele><time>2026-05-29T12:47:20.000Z</time></trkpt>
        <trkpt lat="29.5684656" lon="103.4444641"><ele>471.44</ele><time>2026-05-29T12:47:30.000Z</time></trkpt>
        <trkpt lat="29.568426" lon="103.4443625"><ele>470.4</ele><time>2026-05-29T12:47:38.000Z</time></trkpt>
        <trkpt lat="29.5683956" lon="103.4442527"><ele>469.55</ele><time>2026-05-29T12:47:48.000Z</time></trkpt>
        <trkpt lat="29.5683774" lon="103.4441391"><ele>468.91</ele><time>2026-05-29T12:47:58.000Z</time></trkpt>
        <trkpt lat="29.5683839" lon="103.4440186"><ele>468.14</ele><time>2026-05-29T12:48:08.000Z</time></trkpt>
        <trkpt lat="29.5683947" lon="103.4439073"><ele>468.16</ele><time>2026-05-29T12:48:18.000Z</time></trkpt>
        <trkpt lat="29.5683911" lon="103.4437941"><ele>468.57</ele><time>2026-05-29T12:48:30.000Z</time></trkpt>
        <trkpt lat="29.5683912" lon="103.4437488"><ele>469.15</ele><time>2026-05-29T12:48:34.000Z</time></trkpt>
        <trkpt lat="29.5683757" lon="103.4436595"><ele>469.57</ele><time>2026-05-29T12:48:46.000Z</time></trkpt>
        <trkpt lat="29.5683615" lon="103.4435963"><ele>470.2</ele><time>2026-05-29T12:48:54.000Z</time></trkpt>
        <trkpt lat="29.5683902" lon="103.4435086"><ele>470.77</ele><time>2026-05-29T12:49:08.000Z</time></trkpt>
        <trkpt lat="29.5684478" lon="103.4434222"><ele>471.36</ele><time>2026-05-29T12:49:20.000Z</time></trkpt>
        <trkpt lat="29.5684937" lon="103.4433199"><ele>471.7</ele><time>2026-05-29T12:50:06.000Z</time></trkpt>
        <trkpt lat="29.5685742" lon="103.4432578"><ele>472.15</ele><time>2026-05-29T12:50:18.000Z</time></trkpt>
        <trkpt lat="29.568668" lon="103.4431943"><ele>472.03</ele><time>2026-05-29T12:50:28.000Z</time></trkpt>
        <trkpt lat="29.5687628" lon="103.4431286"><ele>472.2</ele><time>2026-05-29T12:50:38.000Z</time></trkpt>
        <trkpt lat="29.5688618" lon="103.4430671"><ele>472.43</ele><time>2026-05-29T12:50:48.000Z</time></trkpt>
        <trkpt lat="29.5689498" lon="103.443001"><ele>473.4</ele><time>2026-05-29T12:51:02.000Z</time></trkpt>
        <trkpt lat="29.5690258" lon="103.4429272"><ele>473.91</ele><time>2026-05-29T12:51:12.000Z</time></trkpt>
        <trkpt lat="29.5691032" lon="103.4428678"><ele>474.34</ele><time>2026-05-29T12:51:20.000Z</time></trkpt>
        <trkpt lat="29.5691892" lon="103.4428026"><ele>474.05</ele><time>2026-05-29T12:51:30.000Z</time></trkpt>
        <trkpt lat="29.56928" lon="103.4427462"><ele>473.74</ele><time>2026-05-29T12:51:40.000Z</time></trkpt>
        <trkpt lat="29.5693608" lon="103.4426873"><ele>473.42</ele><time>2026-05-29T12:51:50.000Z</time></trkpt>
        <trkpt lat="29.5694074" lon="103.4426614"><ele>473.21</ele><time>2026-05-29T12:51:56.000Z</time></trkpt>
        <trkpt lat="29.5694376" lon="103.442745"><ele>473.23</ele><time>2026-05-29T12:52:10.000Z</time></trkpt>
        <trkpt lat="29.5694666" lon="103.4428265"><ele>473.52</ele><time>2026-05-29T12:52:18.000Z</time></trkpt>
        <trkpt lat="29.5694156" lon="103.4428028"><ele>473.68</ele><time>2026-05-29T12:52:30.000Z</time></trkpt>
        <trkpt lat="29.5693221" lon="103.442783"><ele>473.27</ele><time>2026-05-29T12:52:38.000Z</time></trkpt>
        <trkpt lat="29.5692123" lon="103.4428028"><ele>473.29</ele><time>2026-05-29T12:52:48.000Z</time></trkpt>
        <trkpt lat="29.5691101" lon="103.4428332"><ele>473.35</ele><time>2026-05-29T12:52:56.000Z</time></trkpt>
        <trkpt lat="29.5690157" lon="103.4428606"><ele>473.49</ele><time>2026-05-29T12:53:04.000Z</time></trkpt>
        <trkpt lat="29.5689342" lon="103.4428168"><ele>473.5</ele><time>2026-05-29T12:53:14.000Z</time></trkpt>
        <trkpt lat="29.5688663" lon="103.4427294"><ele>473.75</ele><time>2026-05-29T12:53:24.000Z</time></trkpt>
        <trkpt lat="29.5688358" lon="103.4426182"><ele>472.78</ele><time>2026-05-29T12:53:34.000Z</time></trkpt>
        <trkpt lat="29.568851" lon="103.4424911"><ele>471.22</ele><time>2026-05-29T12:53:44.000Z</time></trkpt>
        <trkpt lat="29.5688888" lon="103.4423791"><ele>470.77</ele><time>2026-05-29T12:53:56.000Z</time></trkpt>
        <trkpt lat="29.5689253" lon="103.4422639"><ele>470.54</ele><time>2026-05-29T12:54:06.000Z</time></trkpt>
        <trkpt lat="29.5689537" lon="103.4421481"><ele>469.5</ele><time>2026-05-29T12:54:16.000Z</time></trkpt>
        <trkpt lat="29.5689832" lon="103.4420327"><ele>469.55</ele><time>2026-05-29T12:54:26.000Z</time></trkpt>
        <trkpt lat="29.5690098" lon="103.4419235"><ele>469.97</ele><time>2026-05-29T12:54:36.000Z</time></trkpt>
        <trkpt lat="29.5690236" lon="103.4418166"><ele>470.46</ele><time>2026-05-29T12:54:46.000Z</time></trkpt>
        <trkpt lat="29.5690255" lon="103.4417104"><ele>470.96</ele><time>2026-05-29T12:54:54.000Z</time></trkpt>
        <trkpt lat="29.5690396" lon="103.4415926"><ele>472.52</ele><time>2026-05-29T12:55:06.000Z</time></trkpt>
        <trkpt lat="29.5690519" lon="103.4414762"><ele>473.87</ele><time>2026-05-29T12:55:14.000Z</time></trkpt>
        <trkpt lat="29.5690707" lon="103.4413665"><ele>474.74</ele><time>2026-05-29T12:55:24.000Z</time></trkpt>
        <trkpt lat="29.569089" lon="103.4412481"><ele>475.68</ele><time>2026-05-29T12:55:34.000Z</time></trkpt>
        <trkpt lat="29.5690953" lon="103.4411377"><ele>475.66</ele><time>2026-05-29T12:55:44.000Z</time></trkpt>
        <trkpt lat="29.5691515" lon="103.4410477"><ele>475.14</ele><time>2026-05-29T12:55:54.000Z</time></trkpt>
        <trkpt lat="29.5692366" lon="103.4409764"><ele>474.85</ele><time>2026-05-29T12:56:06.000Z</time></trkpt>
        <trkpt lat="29.5693369" lon="103.4409394"><ele>475.85</ele><time>2026-05-29T12:56:16.000Z</time></trkpt>
        <trkpt lat="29.56944" lon="103.4409475"><ele>479.47</ele><time>2026-05-29T12:56:26.000Z</time></trkpt>
        <trkpt lat="29.5695503" lon="103.4409637"><ele>482.81</ele><time>2026-05-29T12:56:36.000Z</time></trkpt>
        <trkpt lat="29.5696575" lon="103.4409731"><ele>484.83</ele><time>2026-05-29T12:56:46.000Z</time></trkpt>
        <trkpt lat="29.5697611" lon="103.440989"><ele>486.19</ele><time>2026-05-29T12:56:56.000Z</time></trkpt>
        <trkpt lat="29.5698543" lon="103.4410063"><ele>487.22</ele><time>2026-05-29T12:57:06.000Z</time></trkpt>
        <trkpt lat="29.5699479" lon="103.4410461"><ele>488.33</ele><time>2026-05-29T12:57:16.000Z</time></trkpt>
        <trkpt lat="29.5700451" lon="103.4411108"><ele>489.26</ele><time>2026-05-29T12:57:26.000Z</time></trkpt>
        <trkpt lat="29.5701397" lon="103.4411717"><ele>489.17</ele><time>2026-05-29T12:57:36.000Z</time></trkpt>
        <trkpt lat="29.5702202" lon="103.4412347"><ele>489.73</ele><time>2026-05-29T12:57:44.000Z</time></trkpt>
        <trkpt lat="29.5703059" lon="103.4413032"><ele>490.49</ele><time>2026-05-29T12:57:54.000Z</time></trkpt>
        <trkpt lat="29.5703827" lon="103.441379"><ele>490.97</ele><time>2026-05-29T12:58:04.000Z</time></trkpt>
        <trkpt lat="29.5704636" lon="103.4414395"><ele>490.83</ele><time>2026-05-29T12:58:14.000Z</time></trkpt>
        <trkpt lat="29.5705567" lon="103.4414249"><ele>490.69</ele><time>2026-05-29T12:58:24.000Z</time></trkpt>
        <trkpt lat="29.5706428" lon="103.441349"><ele>491.01</ele><time>2026-05-29T12:58:34.000Z</time></trkpt>
        <trkpt lat="29.5706096" lon="103.441381"><ele>492.13</ele><time>2026-05-29T12:59:12.000Z</time></trkpt>
        <trkpt lat="29.5705129" lon="103.4414296"><ele>492.71</ele><time>2026-05-29T12:59:22.000Z</time></trkpt>
        <trkpt lat="29.5704109" lon="103.4413953"><ele>493.09</ele><time>2026-05-29T12:59:32.000Z</time></trkpt>
        <trkpt lat="29.5703169" lon="103.4413226"><ele>493.4</ele><time>2026-05-29T12:59:42.000Z</time></trkpt>
        <trkpt lat="29.5702384" lon="103.4412447"><ele>493.08</ele><time>2026-05-29T12:59:52.000Z</time></trkpt>
        <trkpt lat="29.5701571" lon="103.4411689"><ele>492.66</ele><time>2026-05-29T13:00:02.000Z</time></trkpt>
        <trkpt lat="29.5700749" lon="103.4410903"><ele>492.36</ele><time>2026-05-29T13:00:14.000Z</time></trkpt>
        <trkpt lat="29.5699811" lon="103.4410348"><ele>492.02</ele><time>2026-05-29T13:00:24.000Z</time></trkpt>
        <trkpt lat="29.5698875" lon="103.4409999"><ele>491.74</ele><time>2026-05-29T13:00:34.000Z</time></trkpt>
        <trkpt lat="29.5694535" lon="103.4409832"><ele>490.64</ele><time>2026-05-29T13:01:18.000Z</time></trkpt>
        <trkpt lat="29.5692281" lon="103.4409714"><ele>494.55</ele><time>2026-05-29T13:01:36.000Z</time></trkpt>
        <trkpt lat="29.5690992" lon="103.4409655"><ele>493.25</ele><time>2026-05-29T13:01:48.000Z</time></trkpt>
        <trkpt lat="29.5690356" lon="103.4408858"><ele>490.52</ele><time>2026-05-29T13:02:00.000Z</time></trkpt>
        <trkpt lat="29.5690199" lon="103.4407725"><ele>488.14</ele><time>2026-05-29T13:02:10.000Z</time></trkpt>
        <trkpt lat="29.5690235" lon="103.4406505"><ele>486.31</ele><time>2026-05-29T13:02:22.000Z</time></trkpt>
        <trkpt lat="29.5690236" lon="103.4405289"><ele>486.23</ele><time>2026-05-29T13:02:32.000Z</time></trkpt>
        <trkpt lat="29.5690167" lon="103.4404043"><ele>486.5</ele><time>2026-05-29T13:02:44.000Z</time></trkpt>
        <trkpt lat="29.5690037" lon="103.4402912"><ele>487.4</ele><time>2026-05-29T13:02:54.000Z</time></trkpt>
        <trkpt lat="29.5689676" lon="103.4401833"><ele>488.01</ele><time>2026-05-29T13:03:06.000Z</time></trkpt>
        <trkpt lat="29.5689145" lon="103.4400827"><ele>487.83</ele><time>2026-05-29T13:03:18.000Z</time></trkpt>
        <trkpt lat="29.5688348" lon="103.4400074"><ele>487.73</ele><time>2026-05-29T13:03:30.000Z</time></trkpt>
        <trkpt lat="29.5687657" lon="103.4399121"><ele>488.04</ele><time>2026-05-29T13:03:44.000Z</time></trkpt>
        <trkpt lat="29.5687128" lon="103.4398191"><ele>487.57</ele><time>2026-05-29T13:03:54.000Z</time></trkpt>
        <trkpt lat="29.5686506" lon="103.4397273"><ele>487.86</ele><time>2026-05-29T13:04:04.000Z</time></trkpt>
        <trkpt lat="29.5685817" lon="103.4396416"><ele>488.77</ele><time>2026-05-29T13:04:16.000Z</time></trkpt>
        <trkpt lat="29.5685162" lon="103.4395523"><ele>489.35</ele><time>2026-05-29T13:04:28.000Z</time></trkpt>
        <trkpt lat="29.5684568" lon="103.4394556"><ele>489.8</ele><time>2026-05-29T13:04:38.000Z</time></trkpt>
        <trkpt lat="29.5683853" lon="103.4393848"><ele>492.19</ele><time>2026-05-29T13:04:50.000Z</time></trkpt>
        <trkpt lat="29.5683106" lon="103.4393067"><ele>493.5</ele><time>2026-05-29T13:05:02.000Z</time></trkpt>
        <trkpt lat="29.5682251" lon="103.4392362"><ele>494.63</ele><time>2026-05-29T13:05:14.000Z</time></trkpt>
        <trkpt lat="29.5681534" lon="103.4391625"><ele>494.9</ele><time>2026-05-29T13:05:24.000Z</time></trkpt>
        <trkpt lat="29.5680875" lon="103.4390814"><ele>495.21</ele><time>2026-05-29T13:05:36.000Z</time></trkpt>
        <trkpt lat="29.5680206" lon="103.4389974"><ele>495.77</ele><time>2026-05-29T13:05:46.000Z</time></trkpt>
        <trkpt lat="29.5679571" lon="103.4389128"><ele>495.95</ele><time>2026-05-29T13:05:56.000Z</time></trkpt>
        <trkpt lat="29.567896" lon="103.4388339"><ele>495.98</ele><time>2026-05-29T13:06:06.000Z</time></trkpt>
        <trkpt lat="29.5678342" lon="103.4387402"><ele>496.05</ele><time>2026-05-29T13:06:18.000Z</time></trkpt>
        <trkpt lat="29.5677632" lon="103.4386466"><ele>496.64</ele><time>2026-05-29T13:06:28.000Z</time></trkpt>
        <trkpt lat="29.5676944" lon="103.4385653"><ele>497.58</ele><time>2026-05-29T13:06:38.000Z</time></trkpt>
        <trkpt lat="29.5676255" lon="103.4384944"><ele>498.36</ele><time>2026-05-29T13:06:48.000Z</time></trkpt>
        <trkpt lat="29.5675551" lon="103.4384098"><ele>499.59</ele><time>2026-05-29T13:07:00.000Z</time></trkpt>
        <trkpt lat="29.5674772" lon="103.4383193"><ele>500.23</ele><time>2026-05-29T13:07:22.000Z</time></trkpt>
        <trkpt lat="29.5674182" lon="103.438227"><ele>500.51</ele><time>2026-05-29T13:07:32.000Z</time></trkpt>
        <trkpt lat="29.5673593" lon="103.438123"><ele>500.65</ele><time>2026-05-29T13:07:44.000Z</time></trkpt>
        <trkpt lat="29.5673011" lon="103.4380323"><ele>501.2</ele><time>2026-05-29T13:07:52.000Z</time></trkpt>
        <trkpt lat="29.5672442" lon="103.4379473"><ele>502.15</ele><time>2026-05-29T13:08:02.000Z</time></trkpt>
        <trkpt lat="29.5671875" lon="103.4378527"><ele>503.4</ele><time>2026-05-29T13:08:14.000Z</time></trkpt>
        <trkpt lat="29.5671321" lon="103.4377655"><ele>504.87</ele><time>2026-05-29T13:08:24.000Z</time></trkpt>
        <trkpt lat="29.5670742" lon="103.4376641"><ele>505.63</ele><time>2026-05-29T13:08:36.000Z</time></trkpt>
        <trkpt lat="29.5670067" lon="103.4375802"><ele>506.53</ele><time>2026-05-29T13:08:48.000Z</time></trkpt>
        <trkpt lat="29.5669514" lon="103.4374919"><ele>508.1</ele><time>2026-05-29T13:09:00.000Z</time></trkpt>
        <trkpt lat="29.5669084" lon="103.4373898"><ele>509.34</ele><time>2026-05-29T13:09:12.000Z</time></trkpt>
        <trkpt lat="29.5668565" lon="103.4372884"><ele>510.09</ele><time>2026-05-29T13:09:22.000Z</time></trkpt>
        <trkpt lat="29.5668035" lon="103.4371822"><ele>510.15</ele><time>2026-05-29T13:09:32.000Z</time></trkpt>
        <trkpt lat="29.5667485" lon="103.4370918"><ele>510.35</ele><time>2026-05-29T13:09:42.000Z</time></trkpt>
        <trkpt lat="29.5666916" lon="103.4369962"><ele>510.28</ele><time>2026-05-29T13:09:54.000Z</time></trkpt>
        <trkpt lat="29.5666441" lon="103.436898"><ele>510.5</ele><time>2026-05-29T13:10:04.000Z</time></trkpt>
        <trkpt lat="29.5665887" lon="103.4368045"><ele>511.23</ele><time>2026-05-29T13:10:16.000Z</time></trkpt>
        <trkpt lat="29.5665358" lon="103.4367072"><ele>512.32</ele><time>2026-05-29T13:10:28.000Z</time></trkpt>
        <trkpt lat="29.566484" lon="103.4366025"><ele>512.52</ele><time>2026-05-29T13:10:38.000Z</time></trkpt>
        <trkpt lat="29.5664441" lon="103.4364895"><ele>513.03</ele><time>2026-05-29T13:10:48.000Z</time></trkpt>
        <trkpt lat="29.5664112" lon="103.4363797"><ele>513.92</ele><time>2026-05-29T13:10:58.000Z</time></trkpt>
        <trkpt lat="29.5663774" lon="103.4362717"><ele>514.45</ele><time>2026-05-29T13:11:08.000Z</time></trkpt>
        <trkpt lat="29.5663397" lon="103.4361703"><ele>514.75</ele><time>2026-05-29T13:11:18.000Z</time></trkpt>
        <trkpt lat="29.5662915" lon="103.4360771"><ele>515.39</ele><time>2026-05-29T13:11:30.000Z</time></trkpt>
        <trkpt lat="29.5662411" lon="103.435975"><ele>515.75</ele><time>2026-05-29T13:11:42.000Z</time></trkpt>
        <trkpt lat="29.5661975" lon="103.4358633"><ele>515.95</ele><time>2026-05-29T13:11:52.000Z</time></trkpt>
        <trkpt lat="29.5661468" lon="103.435754"><ele>515.82</ele><time>2026-05-29T13:12:02.000Z</time></trkpt>
        <trkpt lat="29.5661135" lon="103.4356404"><ele>517.65</ele><time>2026-05-29T13:12:12.000Z</time></trkpt>
        <trkpt lat="29.5660911" lon="103.4355312"><ele>518.98</ele><time>2026-05-29T13:12:24.000Z</time></trkpt>
        <trkpt lat="29.5660619" lon="103.435424"><ele>520.12</ele><time>2026-05-29T13:12:36.000Z</time></trkpt>
        <trkpt lat="29.5660321" lon="103.4353173"><ele>521.12</ele><time>2026-05-29T13:12:46.000Z</time></trkpt>
        <trkpt lat="29.5660019" lon="103.4352165"><ele>521.81</ele><time>2026-05-29T13:12:56.000Z</time></trkpt>
        <trkpt lat="29.5659585" lon="103.4351235"><ele>522.82</ele><time>2026-05-29T13:13:06.000Z</time></trkpt>
        <trkpt lat="29.5659004" lon="103.4350329"><ele>524.24</ele><time>2026-05-29T13:13:18.000Z</time></trkpt>
        <trkpt lat="29.5658232" lon="103.4349598"><ele>524.92</ele><time>2026-05-29T13:13:28.000Z</time></trkpt>
        <trkpt lat="29.5657431" lon="103.4348926"><ele>524.94</ele><time>2026-05-29T13:13:38.000Z</time></trkpt>
        <trkpt lat="29.5656608" lon="103.4348206"><ele>525.54</ele><time>2026-05-29T13:13:52.000Z</time></trkpt>
        <trkpt lat="29.5655916" lon="103.4347287"><ele>526.29</ele><time>2026-05-29T13:14:06.000Z</time></trkpt>
        <trkpt lat="29.5655565" lon="103.4346235"><ele>527.12</ele><time>2026-05-29T13:14:18.000Z</time></trkpt>
        <trkpt lat="29.5655736" lon="103.4345031"><ele>528.41</ele><time>2026-05-29T13:14:30.000Z</time></trkpt>
        <trkpt lat="29.5656279" lon="103.4343897"><ele>531.43</ele><time>2026-05-29T13:14:40.000Z</time></trkpt>
        <trkpt lat="29.5656946" lon="103.4342975"><ele>533.86</ele><time>2026-05-29T13:14:50.000Z</time></trkpt>
        <trkpt lat="29.5657617" lon="103.4342136"><ele>535.84</ele><time>2026-05-29T13:15:10.000Z</time></trkpt>
        <trkpt lat="29.5657918" lon="103.4341088"><ele>537.27</ele><time>2026-05-29T13:15:18.000Z</time></trkpt>
        <trkpt lat="29.5657809" lon="103.4340011"><ele>538.37</ele><time>2026-05-29T13:15:30.000Z</time></trkpt>
        <trkpt lat="29.5657663" lon="103.433893"><ele>539.39</ele><time>2026-05-29T13:15:42.000Z</time></trkpt>
        <trkpt lat="29.565759" lon="103.4337738"><ele>540.5</ele><time>2026-05-29T13:15:54.000Z</time></trkpt>
        <trkpt lat="29.5657733" lon="103.4336566"><ele>541.2</ele><time>2026-05-29T13:16:06.000Z</time></trkpt>
        <trkpt lat="29.5657802" lon="103.4335351"><ele>541.09</ele><time>2026-05-29T13:16:16.000Z</time></trkpt>
        <trkpt lat="29.5657864" lon="103.4334123"><ele>541.04</ele><time>2026-05-29T13:16:24.000Z</time></trkpt>
        <trkpt lat="29.5657707" lon="103.4332952"><ele>541.24</ele><time>2026-05-29T13:16:36.000Z</time></trkpt>
        <trkpt lat="29.5657557" lon="103.4332149"><ele>542.11</ele><time>2026-05-29T13:16:44.000Z</time></trkpt>
        <trkpt lat="29.5657363" lon="103.4331076"><ele>542.72</ele><time>2026-05-29T13:16:56.000Z</time></trkpt>
        <trkpt lat="29.5657088" lon="103.433"><ele>543.24</ele><time>2026-05-29T13:17:04.000Z</time></trkpt>
        <trkpt lat="29.5656689" lon="103.4328925"><ele>543.85</ele><time>2026-05-29T13:17:14.000Z</time></trkpt>
        <trkpt lat="29.5656251" lon="103.432791"><ele>544.55</ele><time>2026-05-29T13:17:24.000Z</time></trkpt>
        <trkpt lat="29.5655424" lon="103.4327148"><ele>545.21</ele><time>2026-05-29T13:17:38.000Z</time></trkpt>
        <trkpt lat="29.5654719" lon="103.4326303"><ele>545.86</ele><time>2026-05-29T13:17:50.000Z</time></trkpt>
        <trkpt lat="29.5654501" lon="103.432524"><ele>546.47</ele><time>2026-05-29T13:18:04.000Z</time></trkpt>
        <trkpt lat="29.5654467" lon="103.4323923"><ele>546.65</ele><time>2026-05-29T13:18:12.000Z</time></trkpt>
        <trkpt lat="29.565432" lon="103.4322752"><ele>547.53</ele><time>2026-05-29T13:18:20.000Z</time></trkpt>
        <trkpt lat="29.5653837" lon="103.4321654"><ele>548.3</ele><time>2026-05-29T13:18:30.000Z</time></trkpt>
        <trkpt lat="29.5653412" lon="103.4320641"><ele>549.38</ele><time>2026-05-29T13:18:42.000Z</time></trkpt>
        <trkpt lat="29.5653109" lon="103.43196"><ele>550.73</ele><time>2026-05-29T13:18:52.000Z</time></trkpt>
        <trkpt lat="29.5653272" lon="103.43186"><ele>552.1</ele><time>2026-05-29T13:19:04.000Z</time></trkpt>
        <trkpt lat="29.5653729" lon="103.4317555"><ele>552.88</ele><time>2026-05-29T13:19:14.000Z</time></trkpt>
        <trkpt lat="29.5654124" lon="103.4316434"><ele>553.68</ele><time>2026-05-29T13:19:26.000Z</time></trkpt>
        <trkpt lat="29.5654464" lon="103.4315286"><ele>554.99</ele><time>2026-05-29T13:19:36.000Z</time></trkpt>
        <trkpt lat="29.5654801" lon="103.4314132"><ele>555.96</ele><time>2026-05-29T13:19:48.000Z</time></trkpt>
        <trkpt lat="29.5655003" lon="103.4312923"><ele>556.75</ele><time>2026-05-29T13:20:02.000Z</time></trkpt>
        <trkpt lat="29.5655255" lon="103.4311696"><ele>557.2</ele><time>2026-05-29T13:20:16.000Z</time></trkpt>
        <trkpt lat="29.5655531" lon="103.4310638"><ele>557.26</ele><time>2026-05-29T13:20:24.000Z</time></trkpt>
        <trkpt lat="29.5655258" lon="103.4309589"><ele>557.64</ele><time>2026-05-29T13:20:36.000Z</time></trkpt>
        <trkpt lat="29.5654611" lon="103.4308593"><ele>558.53</ele><time>2026-05-29T13:20:46.000Z</time></trkpt>
        <trkpt lat="29.5653843" lon="103.430784"><ele>559.47</ele><time>2026-05-29T13:20:56.000Z</time></trkpt>
        <trkpt lat="29.5653597" lon="103.4306827"><ele>560.61</ele><time>2026-05-29T13:21:06.000Z</time></trkpt>
        <trkpt lat="29.5653481" lon="103.4305761"><ele>561.9</ele><time>2026-05-29T13:21:18.000Z</time></trkpt>
        <trkpt lat="29.5653313" lon="103.4304623"><ele>563.71</ele><time>2026-05-29T13:21:28.000Z</time></trkpt>
        <trkpt lat="29.5653267" lon="103.4303466"><ele>564.54</ele><time>2026-05-29T13:21:38.000Z</time></trkpt>
        <trkpt lat="29.5653219" lon="103.4302308"><ele>565.36</ele><time>2026-05-29T13:21:48.000Z</time></trkpt>
        <trkpt lat="29.5653088" lon="103.4301097"><ele>565.74</ele><time>2026-05-29T13:22:00.000Z</time></trkpt>
        <trkpt lat="29.565298" lon="103.429987"><ele>565.79</ele><time>2026-05-29T13:22:10.000Z</time></trkpt>
        <trkpt lat="29.5652795" lon="103.4298755"><ele>565.7</ele><time>2026-05-29T13:22:18.000Z</time></trkpt>
        <trkpt lat="29.565244" lon="103.4297742"><ele>565.22</ele><time>2026-05-29T13:22:26.000Z</time></trkpt>
        <trkpt lat="29.5652041" lon="103.4296762"><ele>564.81</ele><time>2026-05-29T13:22:38.000Z</time></trkpt>
        <trkpt lat="29.5651593" lon="103.4295672"><ele>565.41</ele><time>2026-05-29T13:22:50.000Z</time></trkpt>
        <trkpt lat="29.565098" lon="103.4294706"><ele>566.74</ele><time>2026-05-29T13:23:02.000Z</time></trkpt>
        <trkpt lat="29.5650327" lon="103.4293905"><ele>568.96</ele><time>2026-05-29T13:23:12.000Z</time></trkpt>
        <trkpt lat="29.5649801" lon="103.4292985"><ele>570.75</ele><time>2026-05-29T13:23:22.000Z</time></trkpt>
        <trkpt lat="29.5649647" lon="103.4291954"><ele>572.13</ele><time>2026-05-29T13:23:30.000Z</time></trkpt>
        <trkpt lat="29.5649396" lon="103.4290824"><ele>573.49</ele><time>2026-05-29T13:23:40.000Z</time></trkpt>
        <trkpt lat="29.5649203" lon="103.4289722"><ele>574.04</ele><time>2026-05-29T13:23:50.000Z</time></trkpt>
        <trkpt lat="29.5649055" lon="103.4288582"><ele>574.4</ele><time>2026-05-29T13:24:00.000Z</time></trkpt>
        <trkpt lat="29.5648786" lon="103.4287488"><ele>574.71</ele><time>2026-05-29T13:24:10.000Z</time></trkpt>
        <trkpt lat="29.5648583" lon="103.4286414"><ele>575.55</ele><time>2026-05-29T13:24:18.000Z</time></trkpt>
        <trkpt lat="29.5648422" lon="103.4285233"><ele>575.84</ele><time>2026-05-29T13:24:28.000Z</time></trkpt>
        <trkpt lat="29.5648733" lon="103.4284241"><ele>576.44</ele><time>2026-05-29T13:24:38.000Z</time></trkpt>
        <trkpt lat="29.5649528" lon="103.4283666"><ele>577.3</ele><time>2026-05-29T13:24:48.000Z</time></trkpt>
        <trkpt lat="29.5650587" lon="103.4283294"><ele>578.18</ele><time>2026-05-29T13:24:58.000Z</time></trkpt>
        <trkpt lat="29.5651573" lon="103.4282854"><ele>578.73</ele><time>2026-05-29T13:25:08.000Z</time></trkpt>
        <trkpt lat="29.5652509" lon="103.4282307"><ele>579.21</ele><time>2026-05-29T13:25:18.000Z</time></trkpt>
        <trkpt lat="29.5653212" lon="103.4281539"><ele>579.78</ele><time>2026-05-29T13:25:28.000Z</time></trkpt>
        <trkpt lat="29.5653939" lon="103.4280748"><ele>580.66</ele><time>2026-05-29T13:25:40.000Z</time></trkpt>
        <trkpt lat="29.5654699" lon="103.4279962"><ele>581.35</ele><time>2026-05-29T13:25:48.000Z</time></trkpt>
        <trkpt lat="29.5655303" lon="103.427907"><ele>581.62</ele><time>2026-05-29T13:25:58.000Z</time></trkpt>
        <trkpt lat="29.5655349" lon="103.4277971"><ele>581.81</ele><time>2026-05-29T13:26:12.000Z</time></trkpt>
        <trkpt lat="29.565517" lon="103.4276748"><ele>582.26</ele><time>2026-05-29T13:26:26.000Z</time></trkpt>
        <trkpt lat="29.5654817" lon="103.4275495"><ele>583.39</ele><time>2026-05-29T13:26:38.000Z</time></trkpt>
        <trkpt lat="29.5654286" lon="103.4274417"><ele>584.8</ele><time>2026-05-29T13:26:44.000Z</time></trkpt>
        <trkpt lat="29.565376" lon="103.4273414"><ele>585.84</ele><time>2026-05-29T13:26:54.000Z</time></trkpt>
        <trkpt lat="29.5653446" lon="103.4272375"><ele>586.84</ele><time>2026-05-29T13:27:06.000Z</time></trkpt>
        <trkpt lat="29.5652992" lon="103.4271375"><ele>589.03</ele><time>2026-05-29T13:27:16.000Z</time></trkpt>
        <trkpt lat="29.5652295" lon="103.4270674"><ele>591.8</ele><time>2026-05-29T13:27:26.000Z</time></trkpt>
        <trkpt lat="29.56514" lon="103.4270022"><ele>593.38</ele><time>2026-05-29T13:27:36.000Z</time></trkpt>
        <trkpt lat="29.5650477" lon="103.4269714"><ele>593.94</ele><time>2026-05-29T13:27:46.000Z</time></trkpt>
        <trkpt lat="29.5649606" lon="103.426929"><ele>594.43</ele><time>2026-05-29T13:27:56.000Z</time></trkpt>
        <trkpt lat="29.5648924" lon="103.4268626"><ele>595.01</ele><time>2026-05-29T13:28:04.000Z</time></trkpt>
        <trkpt lat="29.5649045" lon="103.4267582"><ele>595.56</ele><time>2026-05-29T13:28:12.000Z</time></trkpt>
        <trkpt lat="29.5649493" lon="103.4266923"><ele>596.38</ele><time>2026-05-29T13:28:20.000Z</time></trkpt>
        <trkpt lat="29.565012" lon="103.4265976"><ele>598.18</ele><time>2026-05-29T13:29:22.000Z</time></trkpt>
        <trkpt lat="29.5650368" lon="103.4264908"><ele>601.42</ele><time>2026-05-29T13:29:56.000Z</time></trkpt>
        <trkpt lat="29.565068" lon="103.4263904"><ele>605.44</ele><time>2026-05-29T13:30:16.000Z</time></trkpt>
        <trkpt lat="29.5650975" lon="103.4262912"><ele>609</ele><time>2026-05-29T13:30:38.000Z</time></trkpt>
        <trkpt lat="29.5651034" lon="103.4261809"><ele>612.3</ele><time>2026-05-29T13:31:06.000Z</time></trkpt>
        <trkpt lat="29.5651166" lon="103.4260722"><ele>616.81</ele><time>2026-05-29T13:31:32.000Z</time></trkpt>
        <trkpt lat="29.565138" lon="103.4259646"><ele>620.88</ele><time>2026-05-29T13:31:58.000Z</time></trkpt>
        <trkpt lat="29.5651654" lon="103.4258632"><ele>624.9</ele><time>2026-05-29T13:32:26.000Z</time></trkpt>
        <trkpt lat="29.5652062" lon="103.4257642"><ele>628.77</ele><time>2026-05-29T13:32:44.000Z</time></trkpt>
        <trkpt lat="29.5651497" lon="103.4257001"><ele>633.58</ele><time>2026-05-29T13:33:18.000Z</time></trkpt>
        <trkpt lat="29.5650638" lon="103.4256427"><ele>636.85</ele><time>2026-05-29T13:33:28.000Z</time></trkpt>
        <trkpt lat="29.5649906" lon="103.4255628"><ele>638.44</ele><time>2026-05-29T13:33:38.000Z</time></trkpt>
        <trkpt lat="29.5649419" lon="103.4254559"><ele>639.66</ele><time>2026-05-29T13:33:48.000Z</time></trkpt>
        <trkpt lat="29.5648894" lon="103.4253626"><ele>640.06</ele><time>2026-05-29T13:33:56.000Z</time></trkpt>
        <trkpt lat="29.5648078" lon="103.425276"><ele>640.17</ele><time>2026-05-29T13:34:08.000Z</time></trkpt>
        <trkpt lat="29.5647712" lon="103.4251691"><ele>640.16</ele><time>2026-05-29T13:34:20.000Z</time></trkpt>
        <trkpt lat="29.5647743" lon="103.4250545"><ele>640.48</ele><time>2026-05-29T13:34:42.000Z</time></trkpt>
        <trkpt lat="29.5647715" lon="103.424938"><ele>641.5</ele><time>2026-05-29T13:34:54.000Z</time></trkpt>
        <trkpt lat="29.5647477" lon="103.4248332"><ele>642.65</ele><time>2026-05-29T13:35:10.000Z</time></trkpt>
        <trkpt lat="29.5647308" lon="103.4247219"><ele>643.68</ele><time>2026-05-29T13:35:24.000Z</time></trkpt>
        <trkpt lat="29.5647312" lon="103.4246136"><ele>644.42</ele><time>2026-05-29T13:35:40.000Z</time></trkpt>
        <trkpt lat="29.5647076" lon="103.4245065"><ele>644.92</ele><time>2026-05-29T13:35:54.000Z</time></trkpt>
        <trkpt lat="29.5646916" lon="103.4243999"><ele>645.79</ele><time>2026-05-29T13:36:08.000Z</time></trkpt>
        <trkpt lat="29.5646603" lon="103.424299"><ele>646.39</ele><time>2026-05-29T13:36:28.000Z</time></trkpt>
        <trkpt lat="29.5645963" lon="103.4242231"><ele>647.9</ele><time>2026-05-29T13:36:54.000Z</time></trkpt>
        <trkpt lat="29.5645398" lon="103.4241273"><ele>649.64</ele><time>2026-05-29T13:37:32.000Z</time></trkpt>
        <trkpt lat="29.5644668" lon="103.4240513"><ele>651.33</ele><time>2026-05-29T13:37:46.000Z</time></trkpt>
        <trkpt lat="29.5643899" lon="103.4239771"><ele>653.05</ele><time>2026-05-29T13:38:02.000Z</time></trkpt>
        <trkpt lat="29.5643632" lon="103.4238797"><ele>655.49</ele><time>2026-05-29T13:38:14.000Z</time></trkpt>
        <trkpt lat="29.5643499" lon="103.4237732"><ele>658.21</ele><time>2026-05-29T13:38:28.000Z</time></trkpt>
        <trkpt lat="29.5643765" lon="103.42367"><ele>661.11</ele><time>2026-05-29T13:38:46.000Z</time></trkpt>
        <trkpt lat="29.5644372" lon="103.4235634"><ele>666.05</ele><time>2026-05-29T13:39:02.000Z</time></trkpt>
        <trkpt lat="29.5644886" lon="103.4234615"><ele>669.96</ele><time>2026-05-29T13:39:14.000Z</time></trkpt>
        <trkpt lat="29.5645201" lon="103.4233504"><ele>672.24</ele><time>2026-05-29T13:39:34.000Z</time></trkpt>
        <trkpt lat="29.5645301" lon="103.4232357"><ele>674.17</ele><time>2026-05-29T13:39:54.000Z</time></trkpt>
        <trkpt lat="29.5645325" lon="103.4231145"><ele>675.75</ele><time>2026-05-29T13:40:20.000Z</time></trkpt>
        <trkpt lat="29.5645221" lon="103.4230029"><ele>677.51</ele><time>2026-05-29T13:40:32.000Z</time></trkpt>
        <trkpt lat="29.5645038" lon="103.4228953"><ele>679.97</ele><time>2026-05-29T13:40:50.000Z</time></trkpt>
        <trkpt lat="29.5645011" lon="103.422789"><ele>682.48</ele><time>2026-05-29T13:41:08.000Z</time></trkpt>
        <trkpt lat="29.5644767" lon="103.4226886"><ele>685.68</ele><time>2026-05-29T13:41:26.000Z</time></trkpt>
        <trkpt lat="29.5644626" lon="103.4225844"><ele>688.57</ele><time>2026-05-29T13:41:44.000Z</time></trkpt>
        <trkpt lat="29.5644606" lon="103.4224782"><ele>690.39</ele><time>2026-05-29T13:42:18.000Z</time></trkpt>
        <trkpt lat="29.5644299" lon="103.4223829"><ele>692.43</ele><time>2026-05-29T13:42:36.000Z</time></trkpt>
        <trkpt lat="29.5644255" lon="103.4222743"><ele>694.25</ele><time>2026-05-29T13:43:08.000Z</time></trkpt>
        <trkpt lat="29.5644418" lon="103.4221662"><ele>695.99</ele><time>2026-05-29T13:43:28.000Z</time></trkpt>
        <trkpt lat="29.5644091" lon="103.4220643"><ele>698.59</ele><time>2026-05-29T13:43:48.000Z</time></trkpt>
        <trkpt lat="29.5643841" lon="103.4219592"><ele>701.78</ele><time>2026-05-29T13:44:10.000Z</time></trkpt>
        <trkpt lat="29.5643953" lon="103.4218527"><ele>707.57</ele><time>2026-05-29T13:44:30.000Z</time></trkpt>
        <trkpt lat="29.5643902" lon="103.4217458"><ele>713.87</ele><time>2026-05-29T13:44:52.000Z</time></trkpt>
        <trkpt lat="29.564356" lon="103.4216502"><ele>718.65</ele><time>2026-05-29T13:45:26.000Z</time></trkpt>
        <trkpt lat="29.5643154" lon="103.4215532"><ele>722.84</ele><time>2026-05-29T13:45:50.000Z</time></trkpt>
        <trkpt lat="29.5642841" lon="103.4214436"><ele>726.35</ele><time>2026-05-29T13:46:14.000Z</time></trkpt>
        <trkpt lat="29.5642976" lon="103.4213406"><ele>728.9</ele><time>2026-05-29T13:46:36.000Z</time></trkpt>
        <trkpt lat="29.564382" lon="103.4213094"><ele>731.29</ele><time>2026-05-29T13:46:48.000Z</time></trkpt>
        <trkpt lat="29.5644817" lon="103.421257"><ele>734.61</ele><time>2026-05-29T13:49:50.000Z</time></trkpt>
        <trkpt lat="29.5645676" lon="103.4212036"><ele>738.78</ele><time>2026-05-29T13:50:02.000Z</time></trkpt>
        <trkpt lat="29.5646582" lon="103.4211567"><ele>743.08</ele><time>2026-05-29T13:50:12.000Z</time></trkpt>
        <trkpt lat="29.5647483" lon="103.4211344"><ele>746.66</ele><time>2026-05-29T13:50:34.000Z</time></trkpt>
        <trkpt lat="29.5648281" lon="103.4211773"><ele>749.95</ele><time>2026-05-29T13:50:52.000Z</time></trkpt>
        <trkpt lat="29.5648885" lon="103.4212658"><ele>752.71</ele><time>2026-05-29T13:51:04.000Z</time></trkpt>
        <trkpt lat="29.5649551" lon="103.421344"><ele>754.87</ele><time>2026-05-29T13:51:28.000Z</time></trkpt>
        <trkpt lat="29.5650425" lon="103.4213563"><ele>758.08</ele><time>2026-05-29T13:52:00.000Z</time></trkpt>
        <trkpt lat="29.5651308" lon="103.4213253"><ele>762.48</ele><time>2026-05-29T13:52:22.000Z</time></trkpt>
        <trkpt lat="29.5652198" lon="103.421281"><ele>766.71</ele><time>2026-05-29T13:52:42.000Z</time></trkpt>
        <trkpt lat="29.5653114" lon="103.4212413"><ele>771.18</ele><time>2026-05-29T13:53:18.000Z</time></trkpt>
        <trkpt lat="29.565375" lon="103.4212977"><ele>775.67</ele><time>2026-05-29T13:53:32.000Z</time></trkpt>
        <trkpt lat="29.5653858" lon="103.4212189"><ele>778.81</ele><time>2026-05-29T13:57:18.000Z</time></trkpt>
        <trkpt lat="29.5654831" lon="103.4211578"><ele>785.6</ele><time>2026-05-29T13:57:32.000Z</time></trkpt>
        <trkpt lat="29.5655804" lon="103.4211097"><ele>789.59</ele><time>2026-05-29T13:57:42.000Z</time></trkpt>
        <trkpt lat="29.5656791" lon="103.4210815"><ele>792.02</ele><time>2026-05-29T13:57:52.000Z</time></trkpt>
        <trkpt lat="29.5657826" lon="103.4210826"><ele>793.63</ele><time>2026-05-29T13:58:04.000Z</time></trkpt>
        <trkpt lat="29.5658835" lon="103.4210935"><ele>795.73</ele><time>2026-05-29T13:58:14.000Z</time></trkpt>
        <trkpt lat="29.5659803" lon="103.4211115"><ele>797.89</ele><time>2026-05-29T13:58:30.000Z</time></trkpt>
        <trkpt lat="29.5660784" lon="103.4211246"><ele>799.78</ele><time>2026-05-29T13:58:50.000Z</time></trkpt>
        <trkpt lat="29.5661744" lon="103.4211059"><ele>802.73</ele><time>2026-05-29T13:59:04.000Z</time></trkpt>
        <trkpt lat="29.5662496" lon="103.4210292"><ele>804.87</ele><time>2026-05-29T13:59:18.000Z</time></trkpt>
        <trkpt lat="29.5662843" lon="103.4209157"><ele>806.22</ele><time>2026-05-29T13:59:28.000Z</time></trkpt>
        <trkpt lat="29.5663141" lon="103.420787"><ele>807.07</ele><time>2026-05-29T13:59:38.000Z</time></trkpt>
        <trkpt lat="29.5663391" lon="103.4206626"><ele>807.85</ele><time>2026-05-29T13:59:48.000Z</time></trkpt>
        <trkpt lat="29.5663758" lon="103.4205485"><ele>808.4</ele><time>2026-05-29T13:59:58.000Z</time></trkpt>
        <trkpt lat="29.5664264" lon="103.420451"><ele>808.72</ele><time>2026-05-29T14:00:08.000Z</time></trkpt>
        <trkpt lat="29.5664765" lon="103.4203597"><ele>808.69</ele><time>2026-05-29T14:00:16.000Z</time></trkpt>
        <trkpt lat="29.566537" lon="103.4202641"><ele>808.44</ele><time>2026-05-29T14:00:24.000Z</time></trkpt>
        <trkpt lat="29.5666053" lon="103.4201777"><ele>808.06</ele><time>2026-05-29T14:00:34.000Z</time></trkpt>
        <trkpt lat="29.5666513" lon="103.4200829"><ele>807.8</ele><time>2026-05-29T14:00:44.000Z</time></trkpt>
        <trkpt lat="29.5666783" lon="103.4199674"><ele>808.23</ele><time>2026-05-29T14:00:56.000Z</time></trkpt>
        <trkpt lat="29.5667234" lon="103.4198672"><ele>808.93</ele><time>2026-05-29T14:01:10.000Z</time></trkpt>
        <trkpt lat="29.5668068" lon="103.4198543"><ele>810.6</ele><time>2026-05-29T14:01:24.000Z</time></trkpt>
        <trkpt lat="29.5668938" lon="103.4199015"><ele>812.59</ele><time>2026-05-29T14:01:56.000Z</time></trkpt>
        <trkpt lat="29.5669714" lon="103.4199774"><ele>814.18</ele><time>2026-05-29T14:02:22.000Z</time></trkpt>
        <trkpt lat="29.5670199" lon="103.420098"><ele>815.25</ele><time>2026-05-29T14:02:52.000Z</time></trkpt>
        <trkpt lat="29.5670402" lon="103.4202303"><ele>816.66</ele><time>2026-05-29T14:03:06.000Z</time></trkpt>
        <trkpt lat="29.5670747" lon="103.4203503"><ele>817.85</ele><time>2026-05-29T14:03:22.000Z</time></trkpt>
        <trkpt lat="29.567141" lon="103.420434"><ele>819.39</ele><time>2026-05-29T14:03:36.000Z</time></trkpt>
        <trkpt lat="29.5672252" lon="103.4204747"><ele>821.34</ele><time>2026-05-29T14:03:52.000Z</time></trkpt>
        <trkpt lat="29.5673202" lon="103.4204668"><ele>823.44</ele><time>2026-05-29T14:04:12.000Z</time></trkpt>
        <trkpt lat="29.5674172" lon="103.4204441"><ele>826.64</ele><time>2026-05-29T14:04:34.000Z</time></trkpt>
        <trkpt lat="29.5675079" lon="103.4204032"><ele>830.07</ele><time>2026-05-29T14:05:10.000Z</time></trkpt>
        <trkpt lat="29.5676009" lon="103.4203473"><ele>833.27</ele><time>2026-05-29T14:05:36.000Z</time></trkpt>
        <trkpt lat="29.5676861" lon="103.4202943"><ele>836.63</ele><time>2026-05-29T14:05:52.000Z</time></trkpt>
        <trkpt lat="29.567774" lon="103.4202388"><ele>839.66</ele><time>2026-05-29T14:06:20.000Z</time></trkpt>
        <trkpt lat="29.5678574" lon="103.4201891"><ele>842.61</ele><time>2026-05-29T14:06:42.000Z</time></trkpt>
        <trkpt lat="29.5679363" lon="103.4201366"><ele>845.19</ele><time>2026-05-29T14:07:12.000Z</time></trkpt>
        <trkpt lat="29.5680182" lon="103.4200945"><ele>848</ele><time>2026-05-29T14:07:46.000Z</time></trkpt>
        <trkpt lat="29.5681073" lon="103.4200793"><ele>851.84</ele><time>2026-05-29T14:08:24.000Z</time></trkpt>
        <trkpt lat="29.5682033" lon="103.420062"><ele>856.35</ele><time>2026-05-29T14:08:46.000Z</time></trkpt>
        <trkpt lat="29.5683001" lon="103.4200479"><ele>861.26</ele><time>2026-05-29T14:09:14.000Z</time></trkpt>
        <trkpt lat="29.5683951" lon="103.4200343"><ele>865.24</ele><time>2026-05-29T14:09:38.000Z</time></trkpt>
        <trkpt lat="29.568492" lon="103.4200316"><ele>868.61</ele><time>2026-05-29T14:10:08.000Z</time></trkpt>
        <trkpt lat="29.5685838" lon="103.4200211"><ele>872.82</ele><time>2026-05-29T14:10:32.000Z</time></trkpt>
        <trkpt lat="29.5686721" lon="103.4200013"><ele>876.95</ele><time>2026-05-29T14:10:50.000Z</time></trkpt>
        <trkpt lat="29.568765" lon="103.4199723"><ele>880.92</ele><time>2026-05-29T14:11:08.000Z</time></trkpt>
        <trkpt lat="29.56885" lon="103.4199291"><ele>884.04</ele><time>2026-05-29T14:11:22.000Z</time></trkpt>
        <trkpt lat="29.5689491" lon="103.4198871"><ele>886.74</ele><time>2026-05-29T14:11:36.000Z</time></trkpt>
        <trkpt lat="29.5690452" lon="103.4198468"><ele>888.66</ele><time>2026-05-29T14:11:46.000Z</time></trkpt>
        <trkpt lat="29.5691425" lon="103.4198134"><ele>889.92</ele><time>2026-05-29T14:11:56.000Z</time></trkpt>
        <trkpt lat="29.5692343" lon="103.4197771"><ele>890.91</ele><time>2026-05-29T14:12:06.000Z</time></trkpt>
        <trkpt lat="29.5693226" lon="103.4197221"><ele>892.07</ele><time>2026-05-29T14:12:20.000Z</time></trkpt>
        <trkpt lat="29.5694112" lon="103.4196604"><ele>893.08</ele><time>2026-05-29T14:12:34.000Z</time></trkpt>
        <trkpt lat="29.5694931" lon="103.4195972"><ele>893.64</ele><time>2026-05-29T14:12:44.000Z</time></trkpt>
        <trkpt lat="29.5695727" lon="103.4195345"><ele>893.77</ele><time>2026-05-29T14:12:55.000Z</time></trkpt>
        <trkpt lat="29.5696247" lon="103.4194495"><ele>893.75</ele><time>2026-05-29T14:13:03.000Z</time></trkpt>
        <trkpt lat="29.5696741" lon="103.4193566"><ele>893.78</ele><time>2026-05-29T14:13:37.000Z</time></trkpt>
        <trkpt lat="29.5697243" lon="103.4192566"><ele>892.93</ele><time>2026-05-29T14:13:47.000Z</time></trkpt>
        <trkpt lat="29.5697816" lon="103.4191722"><ele>891.64</ele><time>2026-05-29T14:13:55.000Z</time></trkpt>
        <trkpt lat="29.5697803" lon="103.4190717"><ele>890.61</ele><time>2026-05-29T14:14:05.000Z</time></trkpt>
        <trkpt lat="29.5697647" lon="103.4189592"><ele>890.2</ele><time>2026-05-29T14:14:13.000Z</time></trkpt>
        <trkpt lat="29.5697756" lon="103.4188545"><ele>889.9</ele><time>2026-05-29T14:14:23.000Z</time></trkpt>
        <trkpt lat="29.5697944" lon="103.4187422"><ele>890.23</ele><time>2026-05-29T14:14:35.000Z</time></trkpt>
        <trkpt lat="29.569836" lon="103.4186273"><ele>890.94</ele><time>2026-05-29T14:14:49.000Z</time></trkpt>
        <trkpt lat="29.5698668" lon="103.4185176"><ele>891.44</ele><time>2026-05-29T14:14:57.000Z</time></trkpt>
        <trkpt lat="29.5698821" lon="103.4184102"><ele>891.14</ele><time>2026-05-29T14:15:05.000Z</time></trkpt>
        <trkpt lat="29.5698728" lon="103.4182922"><ele>890.56</ele><time>2026-05-29T14:15:17.000Z</time></trkpt>
        <trkpt lat="29.5698683" lon="103.4181701"><ele>889.77</ele><time>2026-05-29T14:15:27.000Z</time></trkpt>
        <trkpt lat="29.5698901" lon="103.4180584"><ele>889.08</ele><time>2026-05-29T14:15:37.000Z</time></trkpt>
        <trkpt lat="29.5699408" lon="103.4179683"><ele>888.93</ele><time>2026-05-29T14:15:47.000Z</time></trkpt>
        <trkpt lat="29.5699781" lon="103.417857"><ele>888.61</ele><time>2026-05-29T14:15:57.000Z</time></trkpt>
        <trkpt lat="29.5700141" lon="103.4177481"><ele>887.27</ele><time>2026-05-29T14:16:07.000Z</time></trkpt>
        <trkpt lat="29.5700377" lon="103.4176406"><ele>886.08</ele><time>2026-05-29T14:16:19.000Z</time></trkpt>
        <trkpt lat="29.5700508" lon="103.4175279"><ele>884.71</ele><time>2026-05-29T14:16:29.000Z</time></trkpt>
        <trkpt lat="29.5700608" lon="103.417419"><ele>883.62</ele><time>2026-05-29T14:16:39.000Z</time></trkpt>
        <trkpt lat="29.5700705" lon="103.4173061"><ele>882.83</ele><time>2026-05-29T14:16:49.000Z</time></trkpt>
        <trkpt lat="29.5700822" lon="103.4171917"><ele>881.82</ele><time>2026-05-29T14:17:01.000Z</time></trkpt>
        <trkpt lat="29.5701222" lon="103.4170826"><ele>881.45</ele><time>2026-05-29T14:17:11.000Z</time></trkpt>
        <trkpt lat="29.570207" lon="103.4170329"><ele>880.99</ele><time>2026-05-29T14:17:21.000Z</time></trkpt>
        <trkpt lat="29.5703067" lon="103.4170277"><ele>881.1</ele><time>2026-05-29T14:17:29.000Z</time></trkpt>
        <trkpt lat="29.5703928" lon="103.4169724"><ele>880.98</ele><time>2026-05-29T14:17:43.000Z</time></trkpt>
        <trkpt lat="29.5704183" lon="103.4168715"><ele>880.65</ele><time>2026-05-29T14:17:53.000Z</time></trkpt>
        <trkpt lat="29.5704011" lon="103.4167603"><ele>879.78</ele><time>2026-05-29T14:18:01.000Z</time></trkpt>
        <trkpt lat="29.5703913" lon="103.4166424"><ele>878.9</ele><time>2026-05-29T14:18:09.000Z</time></trkpt>
        <trkpt lat="29.5703867" lon="103.4165297"><ele>878.24</ele><time>2026-05-29T14:18:19.000Z</time></trkpt>
        <trkpt lat="29.5703886" lon="103.4164147"><ele>877.49</ele><time>2026-05-29T14:18:29.000Z</time></trkpt>
        <trkpt lat="29.5703934" lon="103.4162993"><ele>877.07</ele><time>2026-05-29T14:18:41.000Z</time></trkpt>
        <trkpt lat="29.5704294" lon="103.4161956"><ele>876.84</ele><time>2026-05-29T14:18:53.000Z</time></trkpt>
        <trkpt lat="29.5705053" lon="103.4161422"><ele>876.44</ele><time>2026-05-29T14:19:01.000Z</time></trkpt>
        <trkpt lat="29.5705924" lon="103.4161011"><ele>876.32</ele><time>2026-05-29T14:19:13.000Z</time></trkpt>
        <trkpt lat="29.570682" lon="103.4160498"><ele>876.44</ele><time>2026-05-29T14:19:45.000Z</time></trkpt>
        <trkpt lat="29.5707416" lon="103.4159697"><ele>876.82</ele><time>2026-05-29T14:20:13.000Z</time></trkpt>
        <trkpt lat="29.5707157" lon="103.4158669"><ele>878.9</ele><time>2026-05-29T14:20:35.000Z</time></trkpt>
        <trkpt lat="29.5706251" lon="103.4157914"><ele>881.01</ele><time>2026-05-29T14:20:47.000Z</time></trkpt>
        <trkpt lat="29.570519" lon="103.4157508"><ele>882.6</ele><time>2026-05-29T14:20:55.000Z</time></trkpt>
        <trkpt lat="29.5704321" lon="103.4156822"><ele>883.84</ele><time>2026-05-29T14:21:07.000Z</time></trkpt>
        <trkpt lat="29.5703578" lon="103.4155956"><ele>884.15</ele><time>2026-05-29T14:21:15.000Z</time></trkpt>
        <trkpt lat="29.5702707" lon="103.4155314"><ele>884.4</ele><time>2026-05-29T14:21:25.000Z</time></trkpt>
        <trkpt lat="29.5701789" lon="103.4154995"><ele>884.22</ele><time>2026-05-29T14:22:01.000Z</time></trkpt>
        <trkpt lat="29.5700845" lon="103.4154845"><ele>884.27</ele><time>2026-05-29T14:22:29.000Z</time></trkpt>
        <trkpt lat="29.569997" lon="103.4154278"><ele>884.84</ele><time>2026-05-29T14:22:41.000Z</time></trkpt>
        <trkpt lat="29.5699254" lon="103.4153538"><ele>885.55</ele><time>2026-05-29T14:22:51.000Z</time></trkpt>
        <trkpt lat="29.5698866" lon="103.4152575"><ele>886.16</ele><time>2026-05-29T14:22:59.000Z</time></trkpt>
        <trkpt lat="29.5698819" lon="103.4151375"><ele>886.5</ele><time>2026-05-29T14:23:11.000Z</time></trkpt>
        <trkpt lat="29.5698772" lon="103.4150108"><ele>886.92</ele><time>2026-05-29T14:23:21.000Z</time></trkpt>
        <trkpt lat="29.5698452" lon="103.4149013"><ele>887.36</ele><time>2026-05-29T14:23:33.000Z</time></trkpt>
        <trkpt lat="29.5697757" lon="103.4148169"><ele>887.68</ele><time>2026-05-29T14:23:43.000Z</time></trkpt>
        <trkpt lat="29.5696974" lon="103.4147359"><ele>888.35</ele><time>2026-05-29T14:23:55.000Z</time></trkpt>
        <trkpt lat="29.5696098" lon="103.4146948"><ele>888.43</ele><time>2026-05-29T14:24:05.000Z</time></trkpt>
        <trkpt lat="29.5695132" lon="103.4147132"><ele>887.91</ele><time>2026-05-29T14:24:15.000Z</time></trkpt>
        <trkpt lat="29.5694121" lon="103.4147564"><ele>887.1</ele><time>2026-05-29T14:24:27.000Z</time></trkpt>
        <trkpt lat="29.5693047" lon="103.4147983"><ele>886.72</ele><time>2026-05-29T14:24:39.000Z</time></trkpt>
        <trkpt lat="29.5692633" lon="103.4148129"><ele>885.72</ele><time>2026-05-29T14:24:41.000Z</time></trkpt>
        <trkpt lat="29.5692197" lon="103.4147525"><ele>885.1</ele><time>2026-05-29T14:24:51.000Z</time></trkpt>
        <trkpt lat="29.5691591" lon="103.4146595"><ele>884.57</ele><time>2026-05-29T14:24:59.000Z</time></trkpt>
        <trkpt lat="29.5690995" lon="103.4145531"><ele>883.57</ele><time>2026-05-29T14:25:07.000Z</time></trkpt>
        <trkpt lat="29.5690674" lon="103.4144287"><ele>882.95</ele><time>2026-05-29T14:25:19.000Z</time></trkpt>
        <trkpt lat="29.5690827" lon="103.4143122"><ele>883.03</ele><time>2026-05-29T14:25:29.000Z</time></trkpt>
        <trkpt lat="29.5690909" lon="103.414201"><ele>883.79</ele><time>2026-05-29T14:25:37.000Z</time></trkpt>
        <trkpt lat="29.5691045" lon="103.4141443"><ele>883.94</ele><time>2026-05-29T14:25:41.000Z</time></trkpt>
        <trkpt lat="29.5691073" lon="103.4140503"><ele>883.77</ele><time>2026-05-29T14:25:53.000Z</time></trkpt>
        <trkpt lat="29.5691294" lon="103.4139456"><ele>883.54</ele><time>2026-05-29T14:26:03.000Z</time></trkpt>
        <trkpt lat="29.5691586" lon="103.4138375"><ele>883.09</ele><time>2026-05-29T14:26:15.000Z</time></trkpt>
        <trkpt lat="29.5691292" lon="103.4137347"><ele>882.45</ele><time>2026-05-29T14:26:25.000Z</time></trkpt>
        <trkpt lat="29.5690845" lon="103.4136346"><ele>882.17</ele><time>2026-05-29T14:26:35.000Z</time></trkpt>
        <trkpt lat="29.5690399" lon="103.4135354"><ele>881.84</ele><time>2026-05-29T14:26:45.000Z</time></trkpt>
        <trkpt lat="29.5690048" lon="103.4134364"><ele>881.27</ele><time>2026-05-29T14:26:55.000Z</time></trkpt>
        <trkpt lat="29.5690001" lon="103.413326"><ele>880.58</ele><time>2026-05-29T14:27:11.000Z</time></trkpt>
        <trkpt lat="29.5690023" lon="103.4132113"><ele>879.48</ele><time>2026-05-29T14:27:21.000Z</time></trkpt>
        <trkpt lat="29.5690428" lon="103.4131071"><ele>878.84</ele><time>2026-05-29T14:27:31.000Z</time></trkpt>
        <trkpt lat="29.5691088" lon="103.4130015"><ele>878.48</ele><time>2026-05-29T14:27:45.000Z</time></trkpt>
        <trkpt lat="29.5691758" lon="103.4129009"><ele>878.26</ele><time>2026-05-29T14:27:57.000Z</time></trkpt>
        <trkpt lat="29.5692502" lon="103.412825"><ele>878.08</ele><time>2026-05-29T14:28:05.000Z</time></trkpt>
        <trkpt lat="29.5693172" lon="103.4127463"><ele>877.51</ele><time>2026-05-29T14:28:17.000Z</time></trkpt>
        <trkpt lat="29.5693918" lon="103.4126823"><ele>876</ele><time>2026-05-29T14:28:27.000Z</time></trkpt>
        <trkpt lat="29.5694086" lon="103.4125885"><ele>874.76</ele><time>2026-05-29T14:28:41.000Z</time></trkpt>
        <trkpt lat="29.5693837" lon="103.4124828"><ele>874.23</ele><time>2026-05-29T14:28:51.000Z</time></trkpt>
        <trkpt lat="29.5693651" lon="103.4123737"><ele>874.36</ele><time>2026-05-29T14:29:07.000Z</time></trkpt>
        <trkpt lat="29.5693584" lon="103.4122531"><ele>874.31</ele><time>2026-05-29T14:29:25.000Z</time></trkpt>
        <trkpt lat="29.5692989" lon="103.4121693"><ele>873.69</ele><time>2026-05-29T14:29:53.000Z</time></trkpt>
        <trkpt lat="29.5692045" lon="103.4121458"><ele>871.44</ele><time>2026-05-29T14:30:07.000Z</time></trkpt>
        <trkpt lat="29.5690991" lon="103.4121314"><ele>869.69</ele><time>2026-05-29T14:30:23.000Z</time></trkpt>
        <trkpt lat="29.5690132" lon="103.4120877"><ele>868.25</ele><time>2026-05-29T14:30:39.000Z</time></trkpt>
        <trkpt lat="29.5689325" lon="103.4120191"><ele>866.61</ele><time>2026-05-29T14:30:51.000Z</time></trkpt>
        <trkpt lat="29.5688741" lon="103.4119129"><ele>864.15</ele><time>2026-05-29T14:31:03.000Z</time></trkpt>
        <trkpt lat="29.5687979" lon="103.4118346"><ele>861.96</ele><time>2026-05-29T14:31:11.000Z</time></trkpt>
        <trkpt lat="29.5687067" lon="103.4118094"><ele>860.11</ele><time>2026-05-29T14:31:19.000Z</time></trkpt>
        <trkpt lat="29.5686131" lon="103.4118151"><ele>858.44</ele><time>2026-05-29T14:31:41.000Z</time></trkpt>
        <trkpt lat="29.5685312" lon="103.4117776"><ele>857.07</ele><time>2026-05-29T14:32:01.000Z</time></trkpt>
        <trkpt lat="29.5684656" lon="103.4117038"><ele>856.05</ele><time>2026-05-29T14:32:13.000Z</time></trkpt>
        <trkpt lat="29.5684085" lon="103.4116175"><ele>854.06</ele><time>2026-05-29T14:32:21.000Z</time></trkpt>
        <trkpt lat="29.5683635" lon="103.4115174"><ele>852.4</ele><time>2026-05-29T14:32:33.000Z</time></trkpt>
        <trkpt lat="29.5683735" lon="103.4114027"><ele>850.87</ele><time>2026-05-29T14:32:41.000Z</time></trkpt>
        <trkpt lat="29.5684068" lon="103.411296"><ele>849.55</ele><time>2026-05-29T14:32:49.000Z</time></trkpt>
        <trkpt lat="29.5684663" lon="103.4111882"><ele>847.63</ele><time>2026-05-29T14:32:59.000Z</time></trkpt>
        <trkpt lat="29.5685064" lon="103.4110689"><ele>845.09</ele><time>2026-05-29T14:33:11.000Z</time></trkpt>
        <trkpt lat="29.5685306" lon="103.4109516"><ele>843.36</ele><time>2026-05-29T14:33:23.000Z</time></trkpt>
        <trkpt lat="29.5685583" lon="103.4108358"><ele>841.95</ele><time>2026-05-29T14:33:35.000Z</time></trkpt>
        <trkpt lat="29.5685879" lon="103.4107323"><ele>840.84</ele><time>2026-05-29T14:33:45.000Z</time></trkpt>
        <trkpt lat="29.5686241" lon="103.4106219"><ele>839.49</ele><time>2026-05-29T14:33:59.000Z</time></trkpt>
        <trkpt lat="29.5686411" lon="103.4105141"><ele>838.05</ele><time>2026-05-29T14:34:09.000Z</time></trkpt>
        <trkpt lat="29.5686492" lon="103.4104073"><ele>837.28</ele><time>2026-05-29T14:35:05.000Z</time></trkpt>
        <trkpt lat="29.5686421" lon="103.410295"><ele>836.3</ele><time>2026-05-29T14:35:13.000Z</time></trkpt>
        <trkpt lat="29.5686575" lon="103.4101863"><ele>835.16</ele><time>2026-05-29T14:35:23.000Z</time></trkpt>
        <trkpt lat="29.5686496" lon="103.4100677"><ele>834.04</ele><time>2026-05-29T14:35:35.000Z</time></trkpt>
        <trkpt lat="29.5685767" lon="103.4100372"><ele>833.5</ele><time>2026-05-29T14:35:53.000Z</time></trkpt>
        <trkpt lat="29.5684797" lon="103.4099877"><ele>833.39</ele><time>2026-05-29T14:36:07.000Z</time></trkpt>
        <trkpt lat="29.568385" lon="103.4099267"><ele>833.68</ele><time>2026-05-29T14:36:17.000Z</time></trkpt>
        <trkpt lat="29.5683234" lon="103.409843"><ele>833.58</ele><time>2026-05-29T14:36:27.000Z</time></trkpt>
        <trkpt lat="29.5682713" lon="103.4097451"><ele>833</ele><time>2026-05-29T14:36:43.000Z</time></trkpt>
        <trkpt lat="29.5682462" lon="103.4096375"><ele>831.04</ele><time>2026-05-29T14:37:03.000Z</time></trkpt>
        <trkpt lat="29.5682141" lon="103.4095278"><ele>829.17</ele><time>2026-05-29T14:37:25.000Z</time></trkpt>
        <trkpt lat="29.5681732" lon="103.4094301"><ele>824.81</ele><time>2026-05-29T14:37:37.000Z</time></trkpt>
        <trkpt lat="29.5681212" lon="103.4093317"><ele>821.37</ele><time>2026-05-29T14:37:51.000Z</time></trkpt>
        <trkpt lat="29.5680624" lon="103.4092444"><ele>818.25</ele><time>2026-05-29T14:38:05.000Z</time></trkpt>
        <trkpt lat="29.5680119" lon="103.4091496"><ele>814.79</ele><time>2026-05-29T14:38:19.000Z</time></trkpt>
        <trkpt lat="29.5679708" lon="103.4090513"><ele>811.18</ele><time>2026-05-29T14:38:37.000Z</time></trkpt>
        <trkpt lat="29.5679288" lon="103.4089404"><ele>808.08</ele><time>2026-05-29T14:38:53.000Z</time></trkpt>
        <trkpt lat="29.5678945" lon="103.4088309"><ele>805.19</ele><time>2026-05-29T14:39:07.000Z</time></trkpt>
        <trkpt lat="29.5678871" lon="103.4087226"><ele>801.58</ele><time>2026-05-29T14:39:21.000Z</time></trkpt>
        <trkpt lat="29.5678575" lon="103.4086267"><ele>798.48</ele><time>2026-05-29T14:39:31.000Z</time></trkpt>
        <trkpt lat="29.5677922" lon="103.4085525"><ele>795.64</ele><time>2026-05-29T14:39:45.000Z</time></trkpt>
        <trkpt lat="29.5677228" lon="103.4084743"><ele>793</ele><time>2026-05-29T14:40:01.000Z</time></trkpt>
        <trkpt lat="29.5676368" lon="103.4084159"><ele>789.68</ele><time>2026-05-29T14:40:17.000Z</time></trkpt>
        <trkpt lat="29.5675789" lon="103.4084847"><ele>786.86</ele><time>2026-05-29T14:40:29.000Z</time></trkpt>
        <trkpt lat="29.5675374" lon="103.4086099"><ele>783.84</ele><time>2026-05-29T14:40:39.000Z</time></trkpt>
        <trkpt lat="29.567448" lon="103.4086678"><ele>781.13</ele><time>2026-05-29T14:40:47.000Z</time></trkpt>
        <trkpt lat="29.5673557" lon="103.408648"><ele>779.36</ele><time>2026-05-29T14:40:55.000Z</time></trkpt>
        <trkpt lat="29.5672686" lon="103.4085769"><ele>778.02</ele><time>2026-05-29T14:41:05.000Z</time></trkpt>
        <trkpt lat="29.5671745" lon="103.4085141"><ele>776.5</ele><time>2026-05-29T14:41:15.000Z</time></trkpt>
        <trkpt lat="29.567074" lon="103.4084708"><ele>774.64</ele><time>2026-05-29T14:41:25.000Z</time></trkpt>
        <trkpt lat="29.5669702" lon="103.4084483"><ele>772.9</ele><time>2026-05-29T14:41:37.000Z</time></trkpt>
        <trkpt lat="29.5668659" lon="103.4084451"><ele>771.75</ele><time>2026-05-29T14:41:47.000Z</time></trkpt>
        <trkpt lat="29.5667576" lon="103.4084363"><ele>770.98</ele><time>2026-05-29T14:41:57.000Z</time></trkpt>
        <trkpt lat="29.5667155" lon="103.4084295"><ele>770.4</ele><time>2026-05-29T14:41:59.000Z</time></trkpt>
        <trkpt lat="29.5666593" lon="103.4083599"><ele>770.19</ele><time>2026-05-29T14:42:07.000Z</time></trkpt>
        <trkpt lat="29.5666433" lon="103.4082555"><ele>769.89</ele><time>2026-05-29T14:42:15.000Z</time></trkpt>
        <trkpt lat="29.5666695" lon="103.4081473"><ele>770.39</ele><time>2026-05-29T14:42:25.000Z</time></trkpt>
        <trkpt lat="29.566687" lon="103.4080242"><ele>770.74</ele><time>2026-05-29T14:42:35.000Z</time></trkpt>
        <trkpt lat="29.5666716" lon="103.4079091"><ele>769.81</ele><time>2026-05-29T14:42:45.000Z</time></trkpt>
        <trkpt lat="29.5666342" lon="103.4078105"><ele>769.42</ele><time>2026-05-29T14:42:57.000Z</time></trkpt>
        <trkpt lat="29.5665882" lon="103.4078617"><ele>769.01</ele><time>2026-05-29T14:43:15.000Z</time></trkpt>
        <trkpt lat="29.5666397" lon="103.407841"><ele>769.11</ele><time>2026-05-29T14:43:37.000Z</time></trkpt>
        <trkpt lat="29.5666714" lon="103.4077377"><ele>769.71</ele><time>2026-05-29T14:47:01.000Z</time></trkpt>
        <trkpt lat="29.5667171" lon="103.4077148"><ele>771.24</ele><time>2026-05-29T14:47:17.000Z</time></trkpt>
        <trkpt lat="29.5666962" lon="103.4075317"><ele>771.72</ele><time>2026-05-29T14:48:20.000Z</time></trkpt>
        <trkpt lat="29.5667038" lon="103.4076385"><ele>772.86</ele><time>2026-05-29T14:48:32.000Z</time></trkpt>
        <trkpt lat="29.5666695" lon="103.4075775"><ele>773.14</ele><time>2026-05-29T14:48:46.000Z</time></trkpt>
        <trkpt lat="29.5666704" lon="103.4075692"><ele>769.9</ele><time>2026-05-29T14:48:56.000Z</time></trkpt>
        <trkpt lat="29.566675" lon="103.4076626"><ele>768.03</ele><time>2026-05-29T14:49:04.000Z</time></trkpt>
        <trkpt lat="29.5666031" lon="103.4076788"><ele>766.29</ele><time>2026-05-29T14:49:14.000Z</time></trkpt>
        <trkpt lat="29.566554" lon="103.4076049"><ele>767.16</ele><time>2026-05-29T14:49:22.000Z</time></trkpt>
        <trkpt lat="29.5665087" lon="103.4074997"><ele>768.51</ele><time>2026-05-29T14:49:32.000Z</time></trkpt>
        <trkpt lat="29.566474" lon="103.407383"><ele>769.6</ele><time>2026-05-29T14:49:42.000Z</time></trkpt>
        <trkpt lat="29.5664492" lon="103.4072613"><ele>769.96</ele><time>2026-05-29T14:49:52.000Z</time></trkpt>
        <trkpt lat="29.5664289" lon="103.4071466"><ele>770.6</ele><time>2026-05-29T14:50:02.000Z</time></trkpt>
        <trkpt lat="29.5664167" lon="103.4070307"><ele>771.12</ele><time>2026-05-29T14:50:12.000Z</time></trkpt>
        <trkpt lat="29.5664254" lon="103.4069035"><ele>771.21</ele><time>2026-05-29T14:50:22.000Z</time></trkpt>
        <trkpt lat="29.5664739" lon="103.4067956"><ele>770.1</ele><time>2026-05-29T14:50:32.000Z</time></trkpt>
        <trkpt lat="29.5665511" lon="103.4067242"><ele>769.18</ele><time>2026-05-29T14:50:40.000Z</time></trkpt>
        <trkpt lat="29.5666344" lon="103.4066484"><ele>768.68</ele><time>2026-05-29T14:50:50.000Z</time></trkpt>
        <trkpt lat="29.5667067" lon="103.4065686"><ele>768.53</ele><time>2026-05-29T14:51:00.000Z</time></trkpt>
        <trkpt lat="29.5667887" lon="103.4064863"><ele>767.99</ele><time>2026-05-29T14:51:10.000Z</time></trkpt>
        <trkpt lat="29.5668566" lon="103.4064086"><ele>767.58</ele><time>2026-05-29T14:51:18.000Z</time></trkpt>
        <trkpt lat="29.5669043" lon="103.4063153"><ele>767.35</ele><time>2026-05-29T14:51:28.000Z</time></trkpt>
        <trkpt lat="29.5669506" lon="103.4062104"><ele>767.15</ele><time>2026-05-29T14:51:38.000Z</time></trkpt>
        <trkpt lat="29.5669978" lon="103.4061076"><ele>767.09</ele><time>2026-05-29T14:51:48.000Z</time></trkpt>
        <trkpt lat="29.5670603" lon="103.4060181"><ele>767.18</ele><time>2026-05-29T14:51:58.000Z</time></trkpt>
        <trkpt lat="29.5671188" lon="103.4059338"><ele>766.89</ele><time>2026-05-29T14:52:06.000Z</time></trkpt>
        <trkpt lat="29.5671494" lon="103.4058281"><ele>766.74</ele><time>2026-05-29T14:52:16.000Z</time></trkpt>
        <trkpt lat="29.5671052" lon="103.4057254"><ele>766.4</ele><time>2026-05-29T14:52:28.000Z</time></trkpt>
        <trkpt lat="29.5670293" lon="103.4056476"><ele>766</ele><time>2026-05-29T14:52:38.000Z</time></trkpt>
        <trkpt lat="29.5669368" lon="103.4055678"><ele>765.52</ele><time>2026-05-29T14:52:48.000Z</time></trkpt>
        <trkpt lat="29.5668496" lon="103.4054918"><ele>764.79</ele><time>2026-05-29T14:52:56.000Z</time></trkpt>
        <trkpt lat="29.5667734" lon="103.4054108"><ele>763.39</ele><time>2026-05-29T14:53:06.000Z</time></trkpt>
        <trkpt lat="29.566734" lon="103.405299"><ele>761.62</ele><time>2026-05-29T14:53:16.000Z</time></trkpt>
        <trkpt lat="29.5667241" lon="103.4051873"><ele>760.22</ele><time>2026-05-29T14:53:24.000Z</time></trkpt>
        <trkpt lat="29.566786" lon="103.4050888"><ele>759.35</ele><time>2026-05-29T14:53:34.000Z</time></trkpt>
        <trkpt lat="29.566893" lon="103.4050821"><ele>759.24</ele><time>2026-05-29T14:53:42.000Z</time></trkpt>
        <trkpt lat="29.5670097" lon="103.4051028"><ele>759.46</ele><time>2026-05-29T14:53:52.000Z</time></trkpt>
        <trkpt lat="29.5671175" lon="103.4050884"><ele>759.4</ele><time>2026-05-29T14:54:02.000Z</time></trkpt>
        <trkpt lat="29.5672288" lon="103.4050568"><ele>758.99</ele><time>2026-05-29T14:54:14.000Z</time></trkpt>
        <trkpt lat="29.5673357" lon="103.4050301"><ele>758.51</ele><time>2026-05-29T14:54:22.000Z</time></trkpt>
        <trkpt lat="29.5674315" lon="103.4050232"><ele>757.91</ele><time>2026-05-29T14:54:30.000Z</time></trkpt>
        <trkpt lat="29.5675317" lon="103.4050351"><ele>757.46</ele><time>2026-05-29T14:54:40.000Z</time></trkpt>
        <trkpt lat="29.567634" lon="103.4050586"><ele>757.48</ele><time>2026-05-29T14:54:50.000Z</time></trkpt>
        <trkpt lat="29.5677298" lon="103.405079"><ele>757.77</ele><time>2026-05-29T14:55:00.000Z</time></trkpt>
        <trkpt lat="29.5678218" lon="103.4050682"><ele>757.81</ele><time>2026-05-29T14:55:08.000Z</time></trkpt>
        <trkpt lat="29.5679242" lon="103.4050396"><ele>757.61</ele><time>2026-05-29T14:55:16.000Z</time></trkpt>
        <trkpt lat="29.5680092" lon="103.404983"><ele>757.17</ele><time>2026-05-29T14:55:24.000Z</time></trkpt>
        <trkpt lat="29.5680874" lon="103.4049121"><ele>756.98</ele><time>2026-05-29T14:55:34.000Z</time></trkpt>
        <trkpt lat="29.5681755" lon="103.40485"><ele>756.35</ele><time>2026-05-29T14:55:44.000Z</time></trkpt>
        <trkpt lat="29.5682722" lon="103.4047873"><ele>756.14</ele><time>2026-05-29T14:55:56.000Z</time></trkpt>
        <trkpt lat="29.5683475" lon="103.4047079"><ele>755.77</ele><time>2026-05-29T14:56:04.000Z</time></trkpt>
        <trkpt lat="29.568406" lon="103.4046228"><ele>755.58</ele><time>2026-05-29T14:56:14.000Z</time></trkpt>
        <trkpt lat="29.5684605" lon="103.4045309"><ele>755.7</ele><time>2026-05-29T14:56:24.000Z</time></trkpt>
        <trkpt lat="29.5685179" lon="103.4044202"><ele>755.25</ele><time>2026-05-29T14:56:34.000Z</time></trkpt>
        <trkpt lat="29.5685758" lon="103.4043093"><ele>754.53</ele><time>2026-05-29T14:56:46.000Z</time></trkpt>
        <trkpt lat="29.5686286" lon="103.4041998"><ele>754.06</ele><time>2026-05-29T14:56:54.000Z</time></trkpt>
        <trkpt lat="29.5686983" lon="103.4041088"><ele>753.18</ele><time>2026-05-29T14:57:02.000Z</time></trkpt>
        <trkpt lat="29.5687659" lon="103.4040191"><ele>752.25</ele><time>2026-05-29T14:57:10.000Z</time></trkpt>
        <trkpt lat="29.568822" lon="103.4039234"><ele>751.59</ele><time>2026-05-29T14:57:20.000Z</time></trkpt>
        <trkpt lat="29.5689094" lon="103.4038937"><ele>750.86</ele><time>2026-05-29T14:57:30.000Z</time></trkpt>
        <trkpt lat="29.5690002" lon="103.4039112"><ele>750.32</ele><time>2026-05-29T14:57:38.000Z</time></trkpt>
        <trkpt lat="29.5691007" lon="103.4039251"><ele>749.44</ele><time>2026-05-29T14:57:46.000Z</time></trkpt>
        <trkpt lat="29.5691982" lon="103.403916"><ele>748.58</ele><time>2026-05-29T14:57:54.000Z</time></trkpt>
        <trkpt lat="29.569292" lon="103.4038849"><ele>748.02</ele><time>2026-05-29T14:58:04.000Z</time></trkpt>
        <trkpt lat="29.5693784" lon="103.4038343"><ele>747.19</ele><time>2026-05-29T14:58:14.000Z</time></trkpt>
        <trkpt lat="29.5694578" lon="103.4037722"><ele>746.54</ele><time>2026-05-29T14:58:24.000Z</time></trkpt>
        <trkpt lat="29.5695322" lon="103.4037076"><ele>745.73</ele><time>2026-05-29T14:58:32.000Z</time></trkpt>
        <trkpt lat="29.5696139" lon="103.4036436"><ele>744.82</ele><time>2026-05-29T14:58:42.000Z</time></trkpt>
        <trkpt lat="29.569686" lon="103.4035636"><ele>744</ele><time>2026-05-29T14:58:52.000Z</time></trkpt>
        <trkpt lat="29.5697545" lon="103.4034898"><ele>742.83</ele><time>2026-05-29T14:59:02.000Z</time></trkpt>
        <trkpt lat="29.5698293" lon="103.4034078"><ele>741.87</ele><time>2026-05-29T14:59:12.000Z</time></trkpt>
        <trkpt lat="29.5698997" lon="103.4033173"><ele>741.27</ele><time>2026-05-29T14:59:22.000Z</time></trkpt>
        <trkpt lat="29.569957" lon="103.403213"><ele>740.81</ele><time>2026-05-29T14:59:32.000Z</time></trkpt>
        <trkpt lat="29.5700124" lon="103.40311"><ele>740.3</ele><time>2026-05-29T14:59:42.000Z</time></trkpt>
        <trkpt lat="29.5700581" lon="103.4030087"><ele>739.96</ele><time>2026-05-29T14:59:52.000Z</time></trkpt>
        <trkpt lat="29.5701092" lon="103.4029028"><ele>739.48</ele><time>2026-05-29T15:00:02.000Z</time></trkpt>
        <trkpt lat="29.5701861" lon="103.4028242"><ele>738.63</ele><time>2026-05-29T15:00:10.000Z</time></trkpt>
        <trkpt lat="29.5702798" lon="103.4027787"><ele>737.85</ele><time>2026-05-29T15:00:18.000Z</time></trkpt>
        <trkpt lat="29.5703796" lon="103.4027728"><ele>737.33</ele><time>2026-05-29T15:00:26.000Z</time></trkpt>
        <trkpt lat="29.5704887" lon="103.4027673"><ele>736.96</ele><time>2026-05-29T15:00:38.000Z</time></trkpt>
        <trkpt lat="29.5705899" lon="103.4027642"><ele>736.47</ele><time>2026-05-29T15:00:46.000Z</time></trkpt>
        <trkpt lat="29.5706828" lon="103.4027429"><ele>736.29</ele><time>2026-05-29T15:00:56.000Z</time></trkpt>
        <trkpt lat="29.5707768" lon="103.4027138"><ele>735.63</ele><time>2026-05-29T15:01:04.000Z</time></trkpt>
        <trkpt lat="29.5708744" lon="103.4026708"><ele>734.77</ele><time>2026-05-29T15:01:14.000Z</time></trkpt>
        <trkpt lat="29.570972" lon="103.4026177"><ele>733.52</ele><time>2026-05-29T15:01:24.000Z</time></trkpt>
        <trkpt lat="29.5710624" lon="103.4025619"><ele>732.67</ele><time>2026-05-29T15:01:36.000Z</time></trkpt>
        <trkpt lat="29.5711371" lon="103.4024776"><ele>731</ele><time>2026-05-29T15:01:46.000Z</time></trkpt>
        <trkpt lat="29.5711993" lon="103.4023895"><ele>729.68</ele><time>2026-05-29T15:01:54.000Z</time></trkpt>
        <trkpt lat="29.5712594" lon="103.4022904"><ele>728.82</ele><time>2026-05-29T15:02:06.000Z</time></trkpt>
        <trkpt lat="29.5713243" lon="103.4021885"><ele>728.44</ele><time>2026-05-29T15:02:16.000Z</time></trkpt>
        <trkpt lat="29.5713802" lon="103.4020984"><ele>727.56</ele><time>2026-05-29T15:02:24.000Z</time></trkpt>
        <trkpt lat="29.5714474" lon="103.4020133"><ele>726.16</ele><time>2026-05-29T15:02:34.000Z</time></trkpt>
        <trkpt lat="29.5715106" lon="103.4019357"><ele>724.69</ele><time>2026-05-29T15:02:44.000Z</time></trkpt>
        <trkpt lat="29.5715922" lon="103.4018776"><ele>723.86</ele><time>2026-05-29T15:02:54.000Z</time></trkpt>
        <trkpt lat="29.5716862" lon="103.4018546"><ele>723.33</ele><time>2026-05-29T15:03:04.000Z</time></trkpt>
        <trkpt lat="29.5717637" lon="103.4017973"><ele>723.62</ele><time>2026-05-29T15:03:14.000Z</time></trkpt>
        <trkpt lat="29.5718168" lon="103.4017075"><ele>723.98</ele><time>2026-05-29T15:03:28.000Z</time></trkpt>
        <trkpt lat="29.571887" lon="103.4016293"><ele>723.89</ele><time>2026-05-29T15:03:42.000Z</time></trkpt>
        <trkpt lat="29.5719636" lon="103.4015573"><ele>723.45</ele><time>2026-05-29T15:03:50.000Z</time></trkpt>
        <trkpt lat="29.5720323" lon="103.4014708"><ele>723.02</ele><time>2026-05-29T15:04:00.000Z</time></trkpt>
        <trkpt lat="29.572036" lon="103.4013675"><ele>722.92</ele><time>2026-05-29T15:04:14.000Z</time></trkpt>
        <trkpt lat="29.5720177" lon="103.4012588"><ele>723.24</ele><time>2026-05-29T15:04:26.000Z</time></trkpt>
        <trkpt lat="29.5719992" lon="103.4011493"><ele>723.03</ele><time>2026-05-29T15:05:06.000Z</time></trkpt>
        <trkpt lat="29.5719767" lon="103.401035"><ele>723.67</ele><time>2026-05-29T15:05:32.000Z</time></trkpt>
        <trkpt lat="29.5719487" lon="103.4009308"><ele>723.91</ele><time>2026-05-29T15:05:46.000Z</time></trkpt>
        <trkpt lat="29.5719341" lon="103.4008194"><ele>725.2</ele><time>2026-05-29T15:06:10.000Z</time></trkpt>
        <trkpt lat="29.5719109" lon="103.4007167"><ele>726.85</ele><time>2026-05-29T15:06:32.000Z</time></trkpt>
        <trkpt lat="29.571893" lon="103.4006116"><ele>729.24</ele><time>2026-05-29T15:06:58.000Z</time></trkpt>
        <trkpt lat="29.5718773" lon="103.4005053"><ele>732.11</ele><time>2026-05-29T15:07:54.000Z</time></trkpt>
        <trkpt lat="29.5718609" lon="103.4003985"><ele>735.13</ele><time>2026-05-29T15:08:36.000Z</time></trkpt>
        <trkpt lat="29.5718469" lon="103.4002916"><ele>737.7</ele><time>2026-05-29T15:09:12.000Z</time></trkpt>
        <trkpt lat="29.5718338" lon="103.400179"><ele>740.66</ele><time>2026-05-29T15:09:36.000Z</time></trkpt>
        <trkpt lat="29.571825" lon="103.4000643"><ele>743.28</ele><time>2026-05-29T15:10:18.000Z</time></trkpt>
        <trkpt lat="29.5718106" lon="103.3999549"><ele>745.99</ele><time>2026-05-29T15:10:34.000Z</time></trkpt>
        <trkpt lat="29.5718154" lon="103.3998478"><ele>749.59</ele><time>2026-05-29T15:10:56.000Z</time></trkpt>
        <trkpt lat="29.5718327" lon="103.3997421"><ele>753.83</ele><time>2026-05-29T15:12:26.000Z</time></trkpt>
        <trkpt lat="29.5718479" lon="103.3996353"><ele>759.36</ele><time>2026-05-29T15:12:56.000Z</time></trkpt>
        <trkpt lat="29.571839" lon="103.3995285"><ele>764.02</ele><time>2026-05-29T15:13:14.000Z</time></trkpt>
        <trkpt lat="29.5718243" lon="103.3994158"><ele>768.89</ele><time>2026-05-29T15:13:26.000Z</time></trkpt>
        <trkpt lat="29.5718004" lon="103.3993013"><ele>772.37</ele><time>2026-05-29T15:13:42.000Z</time></trkpt>
        <trkpt lat="29.5717724" lon="103.3992378"><ele>775.54</ele><time>2026-05-29T15:13:50.000Z</time></trkpt>
        <trkpt lat="29.5717166" lon="103.3991703"><ele>777.66</ele><time>2026-05-29T15:14:12.000Z</time></trkpt>
        <trkpt lat="29.5716828" lon="103.3990701"><ele>779.45</ele><time>2026-05-29T15:14:30.000Z</time></trkpt>
        <trkpt lat="29.5716404" lon="103.3989625"><ele>781.33</ele><time>2026-05-29T15:14:46.000Z</time></trkpt>
        <trkpt lat="29.5716133" lon="103.3988361"><ele>783.73</ele><time>2026-05-29T15:15:00.000Z</time></trkpt>
        <trkpt lat="29.5715979" lon="103.3987211"><ele>786.06</ele><time>2026-05-29T15:15:08.000Z</time></trkpt>
        <trkpt lat="29.5715932" lon="103.398606"><ele>788.59</ele><time>2026-05-29T15:15:16.000Z</time></trkpt>
        <trkpt lat="29.571573" lon="103.3984969"><ele>790.85</ele><time>2026-05-29T15:15:30.000Z</time></trkpt>
        <trkpt lat="29.5715674" lon="103.3983844"><ele>793.77</ele><time>2026-05-29T15:15:42.000Z</time></trkpt>
        <trkpt lat="29.5715788" lon="103.3982646"><ele>795.4</ele><time>2026-05-29T15:15:56.000Z</time></trkpt>
        <trkpt lat="29.5715787" lon="103.3981536"><ele>795.51</ele><time>2026-05-29T15:16:10.000Z</time></trkpt>
        <trkpt lat="29.5715745" lon="103.3980464"><ele>794.88</ele><time>2026-05-29T15:16:24.000Z</time></trkpt>
        <trkpt lat="29.5715386" lon="103.3979516"><ele>793.73</ele><time>2026-05-29T15:16:40.000Z</time></trkpt>
        <trkpt lat="29.5715086" lon="103.3978496"><ele>792.04</ele><time>2026-05-29T15:17:00.000Z</time></trkpt>
        <trkpt lat="29.5714796" lon="103.3977384"><ele>789.8</ele><time>2026-05-29T15:17:16.000Z</time></trkpt>
        <trkpt lat="29.5714446" lon="103.3976238"><ele>787.15</ele><time>2026-05-29T15:17:34.000Z</time></trkpt>
        <trkpt lat="29.5714449" lon="103.3975141"><ele>783.83</ele><time>2026-05-29T15:17:44.000Z</time></trkpt>
        <trkpt lat="29.5714528" lon="103.3974009"><ele>781.1</ele><time>2026-05-29T15:17:56.000Z</time></trkpt>
        <trkpt lat="29.5714948" lon="103.3972979"><ele>779.14</ele><time>2026-05-29T15:18:06.000Z</time></trkpt>
        <trkpt lat="29.5715423" lon="103.397193"><ele>777.28</ele><time>2026-05-29T15:18:28.000Z</time></trkpt>
        <trkpt lat="29.5715977" lon="103.3970927"><ele>775.74</ele><time>2026-05-29T15:18:42.000Z</time></trkpt>
        <trkpt lat="29.5716516" lon="103.3969997"><ele>773.58</ele><time>2026-05-29T15:18:56.000Z</time></trkpt>
        <trkpt lat="29.5717121" lon="103.396909"><ele>771.37</ele><time>2026-05-29T15:19:10.000Z</time></trkpt>
        <trkpt lat="29.5717717" lon="103.3968243"><ele>769.07</ele><time>2026-05-29T15:19:20.000Z</time></trkpt>
        <trkpt lat="29.5718588" lon="103.3967873"><ele>767.15</ele><time>2026-05-29T15:19:34.000Z</time></trkpt>
        <trkpt lat="29.5719528" lon="103.3967728"><ele>764.94</ele><time>2026-05-29T15:19:46.000Z</time></trkpt>
        <trkpt lat="29.5720505" lon="103.3967522"><ele>762.99</ele><time>2026-05-29T15:20:00.000Z</time></trkpt>
        <trkpt lat="29.5721455" lon="103.3967323"><ele>760.82</ele><time>2026-05-29T15:20:16.000Z</time></trkpt>
        <trkpt lat="29.5722357" lon="103.3967115"><ele>757.35</ele><time>2026-05-29T15:20:30.000Z</time></trkpt>
        <trkpt lat="29.5723253" lon="103.3966783"><ele>754.53</ele><time>2026-05-29T15:20:46.000Z</time></trkpt>
        <trkpt lat="29.5723631" lon="103.3965887"><ele>751.11</ele><time>2026-05-29T15:20:58.000Z</time></trkpt>
        <trkpt lat="29.5723549" lon="103.3964789"><ele>747.39</ele><time>2026-05-29T15:21:14.000Z</time></trkpt>
        <trkpt lat="29.5723457" lon="103.3963538"><ele>743.55</ele><time>2026-05-29T15:21:24.000Z</time></trkpt>
        <trkpt lat="29.572376" lon="103.3962431"><ele>740.92</ele><time>2026-05-29T15:21:36.000Z</time></trkpt>
        <trkpt lat="29.5724014" lon="103.3961228"><ele>738.39</ele><time>2026-05-29T15:21:50.000Z</time></trkpt>
        <trkpt lat="29.5724541" lon="103.3960225"><ele>736.32</ele><time>2026-05-29T15:22:02.000Z</time></trkpt>
        <trkpt lat="29.5725266" lon="103.3959417"><ele>734.8</ele><time>2026-05-29T15:22:16.000Z</time></trkpt>
        <trkpt lat="29.5726075" lon="103.3958788"><ele>732.71</ele><time>2026-05-29T15:22:26.000Z</time></trkpt>
        <trkpt lat="29.5726896" lon="103.3958095"><ele>730.25</ele><time>2026-05-29T15:22:42.000Z</time></trkpt>
        <trkpt lat="29.5727577" lon="103.3957305"><ele>726.44</ele><time>2026-05-29T15:22:52.000Z</time></trkpt>
        <trkpt lat="29.5728241" lon="103.3956415"><ele>723.54</ele><time>2026-05-29T15:23:02.000Z</time></trkpt>
        <trkpt lat="29.5728888" lon="103.3955435"><ele>722.15</ele><time>2026-05-29T15:23:12.000Z</time></trkpt>
        <trkpt lat="29.5729316" lon="103.3954428"><ele>721.23</ele><time>2026-05-29T15:23:22.000Z</time></trkpt>
        <trkpt lat="29.5729796" lon="103.3953362"><ele>720.83</ele><time>2026-05-29T15:23:32.000Z</time></trkpt>
        <trkpt lat="29.5729792" lon="103.3952223"><ele>719.35</ele><time>2026-05-29T15:23:46.000Z</time></trkpt>
        <trkpt lat="29.5729686" lon="103.395181"><ele>717.49</ele><time>2026-05-29T15:23:50.000Z</time></trkpt>
        <trkpt lat="29.5729415" lon="103.3950981"><ele>716.29</ele><time>2026-05-29T15:24:00.000Z</time></trkpt>
        <trkpt lat="29.5729334" lon="103.3949907"><ele>715.11</ele><time>2026-05-29T15:24:10.000Z</time></trkpt>
        <trkpt lat="29.5729327" lon="103.3948805"><ele>714.07</ele><time>2026-05-29T15:24:20.000Z</time></trkpt>
        <trkpt lat="29.5728976" lon="103.394765"><ele>713.15</ele><time>2026-05-29T15:24:32.000Z</time></trkpt>
        <trkpt lat="29.5728236" lon="103.3946944"><ele>712.23</ele><time>2026-05-29T15:24:44.000Z</time></trkpt>
        <trkpt lat="29.5727472" lon="103.3946182"><ele>710.21</ele><time>2026-05-29T15:24:58.000Z</time></trkpt>
        <trkpt lat="29.5727446" lon="103.3945263"><ele>707.21</ele><time>2026-05-29T15:25:16.000Z</time></trkpt>
        <trkpt lat="29.572785" lon="103.3944223"><ele>703.62</ele><time>2026-05-29T15:25:30.000Z</time></trkpt>
        <trkpt lat="29.5728165" lon="103.3943085"><ele>700.48</ele><time>2026-05-29T15:25:42.000Z</time></trkpt>
        <trkpt lat="29.5728708" lon="103.3942035"><ele>697.73</ele><time>2026-05-29T15:25:56.000Z</time></trkpt>
        <trkpt lat="29.572916" lon="103.394097"><ele>694.54</ele><time>2026-05-29T15:26:08.000Z</time></trkpt>
        <trkpt lat="29.5729602" lon="103.3939901"><ele>691.92</ele><time>2026-05-29T15:26:18.000Z</time></trkpt>
        <trkpt lat="29.5729989" lon="103.3938888"><ele>689.87</ele><time>2026-05-29T15:26:28.000Z</time></trkpt>
        <trkpt lat="29.5730455" lon="103.3937782"><ele>688.59</ele><time>2026-05-29T15:26:38.000Z</time></trkpt>
        <trkpt lat="29.5731238" lon="103.393704"><ele>687.85</ele><time>2026-05-29T15:26:48.000Z</time></trkpt>
        <trkpt lat="29.5732161" lon="103.3936952"><ele>687.5</ele><time>2026-05-29T15:27:02.000Z</time></trkpt>
        <trkpt lat="29.5733016" lon="103.3936625"><ele>685.96</ele><time>2026-05-29T15:27:16.000Z</time></trkpt>
        <trkpt lat="29.5733901" lon="103.3936166"><ele>683.94</ele><time>2026-05-29T15:27:24.000Z</time></trkpt>
        <trkpt lat="29.573479" lon="103.3935647"><ele>682.79</ele><time>2026-05-29T15:27:32.000Z</time></trkpt>
        <trkpt lat="29.5735676" lon="103.3935338"><ele>682.13</ele><time>2026-05-29T15:27:40.000Z</time></trkpt>
        <trkpt lat="29.5736515" lon="103.3934765"><ele>681.45</ele><time>2026-05-29T15:28:14.000Z</time></trkpt>
        <trkpt lat="29.5737393" lon="103.3934144"><ele>680.67</ele><time>2026-05-29T15:28:24.000Z</time></trkpt>
        <trkpt lat="29.5738245" lon="103.3933686"><ele>680.14</ele><time>2026-05-29T15:28:32.000Z</time></trkpt>
        <trkpt lat="29.5739099" lon="103.3933067"><ele>679.68</ele><time>2026-05-29T15:28:42.000Z</time></trkpt>
        <trkpt lat="29.5739727" lon="103.3932212"><ele>679.3</ele><time>2026-05-29T15:28:54.000Z</time></trkpt>
        <trkpt lat="29.5740143" lon="103.3931219"><ele>678.77</ele><time>2026-05-29T15:29:06.000Z</time></trkpt>
        <trkpt lat="29.5740465" lon="103.3930193"><ele>677.57</ele><time>2026-05-29T15:29:16.000Z</time></trkpt>
        <trkpt lat="29.57408" lon="103.3929113"><ele>676.73</ele><time>2026-05-29T15:29:30.000Z</time></trkpt>
        <trkpt lat="29.5741083" lon="103.3928024"><ele>675.75</ele><time>2026-05-29T15:29:40.000Z</time></trkpt>
        <trkpt lat="29.574124" lon="103.3926883"><ele>674.48</ele><time>2026-05-29T15:29:58.000Z</time></trkpt>
        <trkpt lat="29.574117" lon="103.3925785"><ele>672.64</ele><time>2026-05-29T15:30:12.000Z</time></trkpt>
        <trkpt lat="29.5740814" lon="103.3924708"><ele>671.14</ele><time>2026-05-29T15:30:26.000Z</time></trkpt>
        <trkpt lat="29.5741331" lon="103.3924098"><ele>669.63</ele><time>2026-05-29T15:30:52.000Z</time></trkpt>
        <trkpt lat="29.5742006" lon="103.3923257"><ele>666.89</ele><time>2026-05-29T15:31:02.000Z</time></trkpt>
        <trkpt lat="29.5741758" lon="103.3922477"><ele>664.66</ele><time>2026-05-29T15:31:30.000Z</time></trkpt>
        <trkpt lat="29.5741261" lon="103.3921546"><ele>662.52</ele><time>2026-05-29T15:31:48.000Z</time></trkpt>
        <trkpt lat="29.5740422" lon="103.3920728"><ele>660.83</ele><time>2026-05-29T15:32:32.000Z</time></trkpt>
        <trkpt lat="29.5739392" lon="103.3920703"><ele>658.57</ele><time>2026-05-29T15:32:44.000Z</time></trkpt>
        <trkpt lat="29.5738398" lon="103.3920907"><ele>656.75</ele><time>2026-05-29T15:32:56.000Z</time></trkpt>
        <trkpt lat="29.5737434" lon="103.3920634"><ele>655.33</ele><time>2026-05-29T15:33:06.000Z</time></trkpt>
        <trkpt lat="29.5736509" lon="103.3920093"><ele>654</ele><time>2026-05-29T15:33:16.000Z</time></trkpt>
        <trkpt lat="29.5735689" lon="103.3919347"><ele>652.98</ele><time>2026-05-29T15:33:26.000Z</time></trkpt>
        <trkpt lat="29.573501" lon="103.3918428"><ele>652.24</ele><time>2026-05-29T15:33:34.000Z</time></trkpt>
        <trkpt lat="29.5734319" lon="103.3917698"><ele>651.58</ele><time>2026-05-29T15:33:42.000Z</time></trkpt>
        <trkpt lat="29.5733469" lon="103.3917343"><ele>651.52</ele><time>2026-05-29T15:34:00.000Z</time></trkpt>
        <trkpt lat="29.5732471" lon="103.391724"><ele>651.79</ele><time>2026-05-29T15:34:16.000Z</time></trkpt>
        <trkpt lat="29.5731511" lon="103.3917267"><ele>651.73</ele><time>2026-05-29T15:34:36.000Z</time></trkpt>
        <trkpt lat="29.5730504" lon="103.3916973"><ele>652.28</ele><time>2026-05-29T15:34:52.000Z</time></trkpt>
        <trkpt lat="29.5729771" lon="103.3917458"><ele>652.73</ele><time>2026-05-29T15:35:00.000Z</time></trkpt>
        <trkpt lat="29.5728842" lon="103.3918121"><ele>652.97</ele><time>2026-05-29T15:35:10.000Z</time></trkpt>
        <trkpt lat="29.5727857" lon="103.3918637"><ele>653.42</ele><time>2026-05-29T15:35:20.000Z</time></trkpt>
        <trkpt lat="29.5726927" lon="103.391861"><ele>653.67</ele><time>2026-05-29T15:35:38.000Z</time></trkpt>
        <trkpt lat="29.5726109" lon="103.3918149"><ele>654.2</ele><time>2026-05-29T15:35:56.000Z</time></trkpt>
        <trkpt lat="29.5725188" lon="103.3918241"><ele>655.03</ele><time>2026-05-29T15:36:10.000Z</time></trkpt>
        <trkpt lat="29.572418" lon="103.3918057"><ele>655.51</ele><time>2026-05-29T15:36:20.000Z</time></trkpt>
        <trkpt lat="29.5723229" lon="103.3917475"><ele>656.24</ele><time>2026-05-29T15:36:32.000Z</time></trkpt>
        <trkpt lat="29.5722218" lon="103.3917158"><ele>656.79</ele><time>2026-05-29T15:36:44.000Z</time></trkpt>
        <trkpt lat="29.5721373" lon="103.3916564"><ele>657.61</ele><time>2026-05-29T15:36:52.000Z</time></trkpt>
        <trkpt lat="29.5720418" lon="103.3916442"><ele>658.05</ele><time>2026-05-29T15:37:02.000Z</time></trkpt>
        <trkpt lat="29.5719503" lon="103.391622"><ele>659.09</ele><time>2026-05-29T15:37:12.000Z</time></trkpt>
        <trkpt lat="29.5718604" lon="103.3916116"><ele>660.04</ele><time>2026-05-29T15:37:20.000Z</time></trkpt>
        <trkpt lat="29.5717667" lon="103.3916166"><ele>660.68</ele><time>2026-05-29T15:37:32.000Z</time></trkpt>
        <trkpt lat="29.57166" lon="103.3916321"><ele>661.04</ele><time>2026-05-29T15:37:44.000Z</time></trkpt>
        <trkpt lat="29.5715458" lon="103.3916558"><ele>661.23</ele><time>2026-05-29T15:37:54.000Z</time></trkpt>
        <trkpt lat="29.5714383" lon="103.3916756"><ele>660.67</ele><time>2026-05-29T15:38:02.000Z</time></trkpt>
        <trkpt lat="29.571344" lon="103.3916756"><ele>660.73</ele><time>2026-05-29T15:38:12.000Z</time></trkpt>
        <trkpt lat="29.5712604" lon="103.3916622"><ele>661.22</ele><time>2026-05-29T15:38:24.000Z</time></trkpt>
        <trkpt lat="29.5711643" lon="103.3916907"><ele>661.52</ele><time>2026-05-29T15:38:46.000Z</time></trkpt>
        <trkpt lat="29.5710683" lon="103.3917186"><ele>662.03</ele><time>2026-05-29T15:38:58.000Z</time></trkpt>
        <trkpt lat="29.5709798" lon="103.3916986"><ele>662.28</ele><time>2026-05-29T15:39:16.000Z</time></trkpt>
        <trkpt lat="29.5708898" lon="103.3916489"><ele>662.42</ele><time>2026-05-29T15:39:24.000Z</time></trkpt>
        <trkpt lat="29.5707931" lon="103.3915905"><ele>662.48</ele><time>2026-05-29T15:39:34.000Z</time></trkpt>
        <trkpt lat="29.5706997" lon="103.3915482"><ele>662.74</ele><time>2026-05-29T15:40:42.000Z</time></trkpt>
        <trkpt lat="29.57061" lon="103.3915863"><ele>663.73</ele><time>2026-05-29T15:40:50.000Z</time></trkpt>
        <trkpt lat="29.5705365" lon="103.3915082"><ele>663.9</ele><time>2026-05-29T15:41:08.000Z</time></trkpt>
        <trkpt lat="29.5704733" lon="103.3914155"><ele>663.83</ele><time>2026-05-29T15:41:16.000Z</time></trkpt>
        <trkpt lat="29.5704075" lon="103.3913291"><ele>663.58</ele><time>2026-05-29T15:41:28.000Z</time></trkpt>
        <trkpt lat="29.570326" lon="103.3912583"><ele>663.49</ele><time>2026-05-29T15:41:38.000Z</time></trkpt>
        <trkpt lat="29.5702284" lon="103.3912292"><ele>663.15</ele><time>2026-05-29T15:41:48.000Z</time></trkpt>
        <trkpt lat="29.57019" lon="103.3912211"><ele>662.87</ele><time>2026-05-29T15:41:50.000Z</time></trkpt>
        <trkpt lat="29.5701129" lon="103.3911955"><ele>662.66</ele><time>2026-05-29T15:41:58.000Z</time></trkpt>
        <trkpt lat="29.570009" lon="103.3911897"><ele>662.75</ele><time>2026-05-29T15:42:08.000Z</time></trkpt>
        <trkpt lat="29.5699047" lon="103.3911909"><ele>663.31</ele><time>2026-05-29T15:42:18.000Z</time></trkpt>
        <trkpt lat="29.5697935" lon="103.3911877"><ele>664.03</ele><time>2026-05-29T15:42:28.000Z</time></trkpt>
        <trkpt lat="29.5696937" lon="103.3911704"><ele>664.85</ele><time>2026-05-29T15:42:36.000Z</time></trkpt>
        <trkpt lat="29.5695946" lon="103.3911361"><ele>665.27</ele><time>2026-05-29T15:42:46.000Z</time></trkpt>
        <trkpt lat="29.5695072" lon="103.3910962"><ele>665.61</ele><time>2026-05-29T15:42:56.000Z</time></trkpt>
        <trkpt lat="29.5694253" lon="103.3910441"><ele>665.58</ele><time>2026-05-29T15:43:12.000Z</time></trkpt>
        <trkpt lat="29.5693935" lon="103.3910287"><ele>665.09</ele><time>2026-05-29T15:43:14.000Z</time></trkpt>
        <trkpt lat="29.5693105" lon="103.3910163"><ele>664.74</ele><time>2026-05-29T15:43:24.000Z</time></trkpt>
        <trkpt lat="29.5692129" lon="103.3910037"><ele>664.57</ele><time>2026-05-29T15:43:34.000Z</time></trkpt>
        <trkpt lat="29.5691268" lon="103.3910531"><ele>664.34</ele><time>2026-05-29T15:43:56.000Z</time></trkpt>
        <trkpt lat="29.5690393" lon="103.391119"><ele>664.58</ele><time>2026-05-29T15:44:10.000Z</time></trkpt>
        <trkpt lat="29.5689584" lon="103.3911873"><ele>664.42</ele><time>2026-05-29T15:44:18.000Z</time></trkpt>
        <trkpt lat="29.5688716" lon="103.3912021"><ele>664.73</ele><time>2026-05-29T15:44:52.000Z</time></trkpt>
        <trkpt lat="29.5687722" lon="103.3911841"><ele>666.05</ele><time>2026-05-29T15:45:18.000Z</time></trkpt>
        <trkpt lat="29.5687015" lon="103.3911105"><ele>666.73</ele><time>2026-05-29T15:45:28.000Z</time></trkpt>
        <trkpt lat="29.5686276" lon="103.3910021"><ele>667.02</ele><time>2026-05-29T15:45:36.000Z</time></trkpt>
        <trkpt lat="29.5685456" lon="103.3909258"><ele>667.17</ele><time>2026-05-29T15:45:44.000Z</time></trkpt>
        <trkpt lat="29.5684532" lon="103.3908828"><ele>667.42</ele><time>2026-05-29T15:45:54.000Z</time></trkpt>
        <trkpt lat="29.5684029" lon="103.3909097"><ele>667.76</ele><time>2026-05-29T15:45:58.000Z</time></trkpt>
        <trkpt lat="29.5683229" lon="103.3909435"><ele>668.03</ele><time>2026-05-29T15:46:12.000Z</time></trkpt>
        <trkpt lat="29.5682975" lon="103.3909637"><ele>668.65</ele><time>2026-05-29T15:46:14.000Z</time></trkpt>
        <trkpt lat="29.5682295" lon="103.3910048"><ele>669.18</ele><time>2026-05-29T15:46:30.000Z</time></trkpt>
        <trkpt lat="29.5681504" lon="103.3909724"><ele>670.44</ele><time>2026-05-29T15:46:44.000Z</time></trkpt>
        <trkpt lat="29.5680754" lon="103.3909059"><ele>672.1</ele><time>2026-05-29T15:46:56.000Z</time></trkpt>
        <trkpt lat="29.5679887" lon="103.3908188"><ele>673.6</ele><time>2026-05-29T15:47:08.000Z</time></trkpt>
        <trkpt lat="29.567918" lon="103.3907333"><ele>675.21</ele><time>2026-05-29T15:47:18.000Z</time></trkpt>
        <trkpt lat="29.5678713" lon="103.3907203"><ele>677</ele><time>2026-05-29T15:47:24.000Z</time></trkpt>
        <trkpt lat="29.5677985" lon="103.3907582"><ele>678.05</ele><time>2026-05-29T15:47:32.000Z</time></trkpt>
        <trkpt lat="29.5677017" lon="103.3907485"><ele>678.37</ele><time>2026-05-29T15:47:46.000Z</time></trkpt>
        <trkpt lat="29.5676297" lon="103.3906768"><ele>678.29</ele><time>2026-05-29T15:47:56.000Z</time></trkpt>
        <trkpt lat="29.5675727" lon="103.3905827"><ele>678.4</ele><time>2026-05-29T15:48:06.000Z</time></trkpt>
        <trkpt lat="29.5675179" lon="103.3904782"><ele>678.55</ele><time>2026-05-29T15:48:18.000Z</time></trkpt>
        <trkpt lat="29.5674957" lon="103.3904303"><ele>678.92</ele><time>2026-05-29T15:48:20.000Z</time></trkpt>
        <trkpt lat="29.5674231" lon="103.3903938"><ele>679.19</ele><time>2026-05-29T15:48:28.000Z</time></trkpt>
        <trkpt lat="29.5673371" lon="103.3903424"><ele>679.13</ele><time>2026-05-29T15:48:42.000Z</time></trkpt>
        <trkpt lat="29.5672665" lon="103.3902552"><ele>679.03</ele><time>2026-05-29T15:48:50.000Z</time></trkpt>
        <trkpt lat="29.5671701" lon="103.3902351"><ele>679.59</ele><time>2026-05-29T15:49:16.000Z</time></trkpt>
        <trkpt lat="29.5670729" lon="103.3902186"><ele>679.63</ele><time>2026-05-29T15:49:24.000Z</time></trkpt>
        <trkpt lat="29.5669811" lon="103.3901892"><ele>679.81</ele><time>2026-05-29T15:49:34.000Z</time></trkpt>
        <trkpt lat="29.5668978" lon="103.3901249"><ele>679.91</ele><time>2026-05-29T15:49:44.000Z</time></trkpt>
        <trkpt lat="29.5668207" lon="103.3900477"><ele>679.85</ele><time>2026-05-29T15:49:56.000Z</time></trkpt>
        <trkpt lat="29.5667453" lon="103.3899676"><ele>680.84</ele><time>2026-05-29T15:50:06.000Z</time></trkpt>
        <trkpt lat="29.5666572" lon="103.3899168"><ele>682.43</ele><time>2026-05-29T15:50:14.000Z</time></trkpt>
        <trkpt lat="29.5665755" lon="103.3898433"><ele>684.38</ele><time>2026-05-29T15:50:26.000Z</time></trkpt>
        <trkpt lat="29.5664794" lon="103.3897892"><ele>686.35</ele><time>2026-05-29T15:50:38.000Z</time></trkpt>
        <trkpt lat="29.5663851" lon="103.3897715"><ele>687.36</ele><time>2026-05-29T15:50:58.000Z</time></trkpt>
        <trkpt lat="29.5662808" lon="103.3897893"><ele>687.6</ele><time>2026-05-29T15:51:08.000Z</time></trkpt>
        <trkpt lat="29.5661889" lon="103.3897604"><ele>688.11</ele><time>2026-05-29T15:51:18.000Z</time></trkpt>
        <trkpt lat="29.5661151" lon="103.3896998"><ele>688.81</ele><time>2026-05-29T15:51:26.000Z</time></trkpt>
        <trkpt lat="29.5660247" lon="103.3896744"><ele>689.7</ele><time>2026-05-29T15:51:36.000Z</time></trkpt>
        <trkpt lat="29.5659543" lon="103.3896926"><ele>690.02</ele><time>2026-05-29T15:51:46.000Z</time></trkpt>
        <trkpt lat="29.5658728" lon="103.3897432"><ele>690.42</ele><time>2026-05-29T15:52:04.000Z</time></trkpt>
        <trkpt lat="29.5657707" lon="103.3897627"><ele>690.86</ele><time>2026-05-29T15:52:14.000Z</time></trkpt>
        <trkpt lat="29.5656754" lon="103.3897562"><ele>691.79</ele><time>2026-05-29T15:52:36.000Z</time></trkpt>
        <trkpt lat="29.5656296" lon="103.3896713"><ele>693.18</ele><time>2026-05-29T15:52:54.000Z</time></trkpt>
        <trkpt lat="29.5655693" lon="103.3895936"><ele>694.52</ele><time>2026-05-29T15:53:08.000Z</time></trkpt>
        <trkpt lat="29.5654853" lon="103.389535"><ele>696.28</ele><time>2026-05-29T15:53:18.000Z</time></trkpt>
        <trkpt lat="29.5653878" lon="103.3894799"><ele>697.69</ele><time>2026-05-29T15:53:28.000Z</time></trkpt>
        <trkpt lat="29.5652963" lon="103.3894436"><ele>698.67</ele><time>2026-05-29T15:53:38.000Z</time></trkpt>
        <trkpt lat="29.5652026" lon="103.3894024"><ele>699.14</ele><time>2026-05-29T15:53:48.000Z</time></trkpt>
        <trkpt lat="29.5651257" lon="103.3893413"><ele>699.79</ele><time>2026-05-29T15:54:00.000Z</time></trkpt>
        <trkpt lat="29.5650723" lon="103.3892553"><ele>700.1</ele><time>2026-05-29T15:54:10.000Z</time></trkpt>
        <trkpt lat="29.5650039" lon="103.3891726"><ele>700.78</ele><time>2026-05-29T15:54:22.000Z</time></trkpt>
        <trkpt lat="29.564934" lon="103.3890988"><ele>701.12</ele><time>2026-05-29T15:54:32.000Z</time></trkpt>
        <trkpt lat="29.5648836" lon="103.3890117"><ele>701.73</ele><time>2026-05-29T15:54:44.000Z</time></trkpt>
        <trkpt lat="29.5648088" lon="103.38896"><ele>702.46</ele><time>2026-05-29T15:54:54.000Z</time></trkpt>
        <trkpt lat="29.564714" lon="103.3889963"><ele>702.5</ele><time>2026-05-29T15:55:24.000Z</time></trkpt>
        <trkpt lat="29.5646184" lon="103.3890403"><ele>702.08</ele><time>2026-05-29T15:55:34.000Z</time></trkpt>
        <trkpt lat="29.5645241" lon="103.3890757"><ele>702.38</ele><time>2026-05-29T15:55:44.000Z</time></trkpt>
        <trkpt lat="29.5644267" lon="103.3891046"><ele>702.45</ele><time>2026-05-29T15:55:54.000Z</time></trkpt>
        <trkpt lat="29.5643272" lon="103.3891183"><ele>702.26</ele><time>2026-05-29T15:56:06.000Z</time></trkpt>
        <trkpt lat="29.5642287" lon="103.3891088"><ele>702.63</ele><time>2026-05-29T15:56:16.000Z</time></trkpt>
        <trkpt lat="29.5641352" lon="103.3891088"><ele>703.03</ele><time>2026-05-29T15:56:24.000Z</time></trkpt>
        <trkpt lat="29.5640752" lon="103.3891769"><ele>703.12</ele><time>2026-05-29T15:56:36.000Z</time></trkpt>
        <trkpt lat="29.5639941" lon="103.3891784"><ele>703.55</ele><time>2026-05-29T15:57:18.000Z</time></trkpt>
        <trkpt lat="29.5639566" lon="103.3890948"><ele>704.68</ele><time>2026-05-29T15:57:28.000Z</time></trkpt>
        <trkpt lat="29.5638819" lon="103.3891079"><ele>705.19</ele><time>2026-05-29T15:57:48.000Z</time></trkpt>
        <trkpt lat="29.56379" lon="103.3890932"><ele>705.15</ele><time>2026-05-29T15:57:58.000Z</time></trkpt>
        <trkpt lat="29.5636883" lon="103.3890718"><ele>705.58</ele><time>2026-05-29T15:58:10.000Z</time></trkpt>
        <trkpt lat="29.5635958" lon="103.3890424"><ele>706.07</ele><time>2026-05-29T15:58:20.000Z</time></trkpt>
        <trkpt lat="29.5634994" lon="103.3890049"><ele>706.42</ele><time>2026-05-29T15:58:30.000Z</time></trkpt>
        <trkpt lat="29.563406" lon="103.3890053"><ele>707.28</ele><time>2026-05-29T15:58:44.000Z</time></trkpt>
        <trkpt lat="29.5633183" lon="103.3890318"><ele>707.74</ele><time>2026-05-29T15:58:56.000Z</time></trkpt>
        <trkpt lat="29.5632226" lon="103.3890605"><ele>707.87</ele><time>2026-05-29T15:59:04.000Z</time></trkpt>
        <trkpt lat="29.5631295" lon="103.3890648"><ele>707.97</ele><time>2026-05-29T15:59:20.000Z</time></trkpt>
        <trkpt lat="29.5630404" lon="103.3890817"><ele>708.45</ele><time>2026-05-29T15:59:40.000Z</time></trkpt>
        <trkpt lat="29.5629456" lon="103.3891039"><ele>708.99</ele><time>2026-05-29T16:00:02.000Z</time></trkpt>
        <trkpt lat="29.5628528" lon="103.3891333"><ele>709.97</ele><time>2026-05-29T16:00:16.000Z</time></trkpt>
        <trkpt lat="29.5627624" lon="103.3891592"><ele>711.12</ele><time>2026-05-29T16:00:30.000Z</time></trkpt>
        <trkpt lat="29.562766" lon="103.3890857"><ele>712.9</ele><time>2026-05-29T16:01:02.000Z</time></trkpt>
        <trkpt lat="29.5627035" lon="103.3890618"><ele>714.53</ele><time>2026-05-29T16:01:14.000Z</time></trkpt>
        <trkpt lat="29.5626202" lon="103.3890727"><ele>716.66</ele><time>2026-05-29T16:01:30.000Z</time></trkpt>
        <trkpt lat="29.5625273" lon="103.3890794"><ele>719.76</ele><time>2026-05-29T16:01:50.000Z</time></trkpt>
        <trkpt lat="29.5624426" lon="103.3890253"><ele>722.58</ele><time>2026-05-29T16:02:04.000Z</time></trkpt>
        <trkpt lat="29.5623464" lon="103.3889827"><ele>724.93</ele><time>2026-05-29T16:02:14.000Z</time></trkpt>
        <trkpt lat="29.5622535" lon="103.3889873"><ele>726.49</ele><time>2026-05-29T16:02:22.000Z</time></trkpt>
        <trkpt lat="29.5621553" lon="103.3890044"><ele>727.87</ele><time>2026-05-29T16:02:32.000Z</time></trkpt>
        <trkpt lat="29.5620656" lon="103.3890468"><ele>729.39</ele><time>2026-05-29T16:02:46.000Z</time></trkpt>
        <trkpt lat="29.5619778" lon="103.3891082"><ele>729.88</ele><time>2026-05-29T16:02:56.000Z</time></trkpt>
        <trkpt lat="29.5619866" lon="103.3892029"><ele>729.82</ele><time>2026-05-29T16:03:10.000Z</time></trkpt>
        <trkpt lat="29.5620634" lon="103.3892845"><ele>729.72</ele><time>2026-05-29T16:03:36.000Z</time></trkpt>
        <trkpt lat="29.5621023" lon="103.3893869"><ele>728.84</ele><time>2026-05-29T16:03:44.000Z</time></trkpt>
        <trkpt lat="29.562062" lon="103.3894731"><ele>727.98</ele><time>2026-05-29T16:03:58.000Z</time></trkpt>
        <trkpt lat="29.5619712" lon="103.3894945"><ele>727.21</ele><time>2026-05-29T16:04:06.000Z</time></trkpt>
        <trkpt lat="29.5618628" lon="103.3894808"><ele>727.5</ele><time>2026-05-29T16:04:16.000Z</time></trkpt>
        <trkpt lat="29.561764" lon="103.3894234"><ele>728.09</ele><time>2026-05-29T16:04:30.000Z</time></trkpt>
        <trkpt lat="29.5616707" lon="103.3893538"><ele>729.04</ele><time>2026-05-29T16:04:44.000Z</time></trkpt>
        <trkpt lat="29.5615794" lon="103.3893186"><ele>729.8</ele><time>2026-05-29T16:04:52.000Z</time></trkpt>
        <trkpt lat="29.5614876" lon="103.389299"><ele>730.3</ele><time>2026-05-29T16:05:02.000Z</time></trkpt>
        <trkpt lat="29.561393" lon="103.389302"><ele>730.54</ele><time>2026-05-29T16:05:10.000Z</time></trkpt>
        <trkpt lat="29.561296" lon="103.3892779"><ele>731.97</ele><time>2026-05-29T16:05:22.000Z</time></trkpt>
        <trkpt lat="29.5611997" lon="103.3892879"><ele>733.63</ele><time>2026-05-29T16:05:34.000Z</time></trkpt>
        <trkpt lat="29.5611068" lon="103.3893167"><ele>734.28</ele><time>2026-05-29T16:05:48.000Z</time></trkpt>
        <trkpt lat="29.5610195" lon="103.3893508"><ele>734.3</ele><time>2026-05-29T16:06:02.000Z</time></trkpt>
        <trkpt lat="29.5609198" lon="103.3893677"><ele>734.24</ele><time>2026-05-29T16:06:14.000Z</time></trkpt>
        <trkpt lat="29.5608252" lon="103.3893828"><ele>734.56</ele><time>2026-05-29T16:06:22.000Z</time></trkpt>
        <trkpt lat="29.5607215" lon="103.3894033"><ele>735.55</ele><time>2026-05-29T16:06:32.000Z</time></trkpt>
        <trkpt lat="29.5606259" lon="103.3894259"><ele>736.05</ele><time>2026-05-29T16:06:40.000Z</time></trkpt>
        <trkpt lat="29.5605423" lon="103.3894721"><ele>737.29</ele><time>2026-05-29T16:07:00.000Z</time></trkpt>
        <trkpt lat="29.5604572" lon="103.3894637"><ele>737.9</ele><time>2026-05-29T16:07:10.000Z</time></trkpt>
        <trkpt lat="29.5603679" lon="103.3894281"><ele>738.22</ele><time>2026-05-29T16:07:20.000Z</time></trkpt>
        <trkpt lat="29.5602768" lon="103.3893734"><ele>738.4</ele><time>2026-05-29T16:07:32.000Z</time></trkpt>
        <trkpt lat="29.5602754" lon="103.3892801"><ele>739.34</ele><time>2026-05-29T16:07:42.000Z</time></trkpt>
        <trkpt lat="29.5602295" lon="103.3892037"><ele>740.07</ele><time>2026-05-29T16:08:06.000Z</time></trkpt>
        <trkpt lat="29.5601782" lon="103.3891083"><ele>741.18</ele><time>2026-05-29T16:08:16.000Z</time></trkpt>
        <trkpt lat="29.5601463" lon="103.3889896"><ele>742.95</ele><time>2026-05-29T16:08:26.000Z</time></trkpt>
        <trkpt lat="29.5601247" lon="103.3888754"><ele>744.82</ele><time>2026-05-29T16:08:40.000Z</time></trkpt>
        <trkpt lat="29.5601688" lon="103.3887879"><ele>746.53</ele><time>2026-05-29T16:08:56.000Z</time></trkpt>
        <trkpt lat="29.5601959" lon="103.388688"><ele>748.56</ele><time>2026-05-29T16:09:08.000Z</time></trkpt>
        <trkpt lat="29.5601408" lon="103.3886285"><ele>749.67</ele><time>2026-05-29T16:09:16.000Z</time></trkpt>
        <trkpt lat="29.5600416" lon="103.3885838"><ele>750.44</ele><time>2026-05-29T16:09:24.000Z</time></trkpt>
        <trkpt lat="29.5599315" lon="103.3885367"><ele>751.77</ele><time>2026-05-29T16:09:34.000Z</time></trkpt>
        <trkpt lat="29.5598376" lon="103.3884868"><ele>752.93</ele><time>2026-05-29T16:09:42.000Z</time></trkpt>
        <trkpt lat="29.5597527" lon="103.3884464"><ele>754.08</ele><time>2026-05-29T16:09:58.000Z</time></trkpt>
        <trkpt lat="29.5596644" lon="103.3883977"><ele>755.53</ele><time>2026-05-29T16:10:28.000Z</time></trkpt>
        <trkpt lat="29.559648" lon="103.388288"><ele>757.1</ele><time>2026-05-29T16:10:36.000Z</time></trkpt>
        <trkpt lat="29.5596593" lon="103.3881675"><ele>758.24</ele><time>2026-05-29T16:10:44.000Z</time></trkpt>
        <trkpt lat="29.5596325" lon="103.3880579"><ele>758.85</ele><time>2026-05-29T16:10:54.000Z</time></trkpt>
        <trkpt lat="29.5595638" lon="103.3879891"><ele>758.91</ele><time>2026-05-29T16:11:02.000Z</time></trkpt>
        <trkpt lat="29.5594714" lon="103.3879359"><ele>759.52</ele><time>2026-05-29T16:11:12.000Z</time></trkpt>
        <trkpt lat="29.5593713" lon="103.3879094"><ele>759.78</ele><time>2026-05-29T16:11:20.000Z</time></trkpt>
        <trkpt lat="29.5592767" lon="103.3878622"><ele>759.7</ele><time>2026-05-29T16:11:30.000Z</time></trkpt>
        <trkpt lat="29.5591873" lon="103.3878221"><ele>759.43</ele><time>2026-05-29T16:11:40.000Z</time></trkpt>
        <trkpt lat="29.5590804" lon="103.3878246"><ele>759.1</ele><time>2026-05-29T16:11:50.000Z</time></trkpt>
        <trkpt lat="29.5589757" lon="103.3878308"><ele>759.6</ele><time>2026-05-29T16:12:02.000Z</time></trkpt>
        <trkpt lat="29.5588729" lon="103.3878414"><ele>760.29</ele><time>2026-05-29T16:12:14.000Z</time></trkpt>
        <trkpt lat="29.5587711" lon="103.3878291"><ele>760.91</ele><time>2026-05-29T16:12:24.000Z</time></trkpt>
        <trkpt lat="29.5586813" lon="103.387796"><ele>761.31</ele><time>2026-05-29T16:12:32.000Z</time></trkpt>
        <trkpt lat="29.5585988" lon="103.3877386"><ele>761.29</ele><time>2026-05-29T16:12:42.000Z</time></trkpt>
        <trkpt lat="29.5585082" lon="103.3877084"><ele>761.03</ele><time>2026-05-29T16:12:56.000Z</time></trkpt>
        <trkpt lat="29.5584397" lon="103.3876214"><ele>761.1</ele><time>2026-05-29T16:13:06.000Z</time></trkpt>
        <trkpt lat="29.558365" lon="103.3875305"><ele>761.4</ele><time>2026-05-29T16:13:16.000Z</time></trkpt>
        <trkpt lat="29.5582955" lon="103.3874411"><ele>762.11</ele><time>2026-05-29T16:13:26.000Z</time></trkpt>
        <trkpt lat="29.5582433" lon="103.3873482"><ele>762.73</ele><time>2026-05-29T16:13:40.000Z</time></trkpt>
        <trkpt lat="29.5581769" lon="103.3872722"><ele>763.2</ele><time>2026-05-29T16:13:54.000Z</time></trkpt>
        <trkpt lat="29.5581014" lon="103.3872087"><ele>764.34</ele><time>2026-05-29T16:14:14.000Z</time></trkpt>
        <trkpt lat="29.558014" lon="103.3871606"><ele>766.83</ele><time>2026-05-29T16:14:24.000Z</time></trkpt>
        <trkpt lat="29.5579257" lon="103.3871057"><ele>768.88</ele><time>2026-05-29T16:14:34.000Z</time></trkpt>
        <trkpt lat="29.5578324" lon="103.3870584"><ele>770.72</ele><time>2026-05-29T16:14:46.000Z</time></trkpt>
        <trkpt lat="29.5577377" lon="103.3870308"><ele>772.41</ele><time>2026-05-29T16:14:56.000Z</time></trkpt>
        <trkpt lat="29.5576919" lon="103.3869466"><ele>773.7</ele><time>2026-05-29T16:15:20.000Z</time></trkpt>
        <trkpt lat="29.5576772" lon="103.3868404"><ele>775.72</ele><time>2026-05-29T16:15:34.000Z</time></trkpt>
        <trkpt lat="29.5576369" lon="103.38674"><ele>777.31</ele><time>2026-05-29T16:15:46.000Z</time></trkpt>
        <trkpt lat="29.5575629" lon="103.3866785"><ele>779.07</ele><time>2026-05-29T16:15:56.000Z</time></trkpt>
        <trkpt lat="29.5575078" lon="103.3865921"><ele>780.39</ele><time>2026-05-29T16:16:06.000Z</time></trkpt>
        <trkpt lat="29.5574413" lon="103.3865065"><ele>781.03</ele><time>2026-05-29T16:16:22.000Z</time></trkpt>
        <trkpt lat="29.5573591" lon="103.3864503"><ele>781.02</ele><time>2026-05-29T16:16:34.000Z</time></trkpt>
        <trkpt lat="29.5572674" lon="103.3864224"><ele>780.98</ele><time>2026-05-29T16:16:46.000Z</time></trkpt>
        <trkpt lat="29.5571705" lon="103.3864032"><ele>781.21</ele><time>2026-05-29T16:16:58.000Z</time></trkpt>
        <trkpt lat="29.5570714" lon="103.3864193"><ele>782.07</ele><time>2026-05-29T16:17:10.000Z</time></trkpt>
        <trkpt lat="29.5570112" lon="103.3863548"><ele>783.35</ele><time>2026-05-29T16:17:24.000Z</time></trkpt>
        <trkpt lat="29.5570101" lon="103.3862523"><ele>784.65</ele><time>2026-05-29T16:17:32.000Z</time></trkpt>
        <trkpt lat="29.5569929" lon="103.3861332"><ele>785.46</ele><time>2026-05-29T16:17:42.000Z</time></trkpt>
        <trkpt lat="29.5569256" lon="103.3860688"><ele>785.84</ele><time>2026-05-29T16:17:50.000Z</time></trkpt>
        <trkpt lat="29.5568645" lon="103.3860216"><ele>787.03</ele><time>2026-05-29T16:18:00.000Z</time></trkpt>
        <trkpt lat="29.5567746" lon="103.3859448"><ele>788.25</ele><time>2026-05-29T16:18:18.000Z</time></trkpt>
        <trkpt lat="29.556685" lon="103.3858898"><ele>789.12</ele><time>2026-05-29T16:18:26.000Z</time></trkpt>
        <trkpt lat="29.5565917" lon="103.3859123"><ele>789.17</ele><time>2026-05-29T16:18:34.000Z</time></trkpt>
        <trkpt lat="29.5565755" lon="103.3860138"><ele>788.91</ele><time>2026-05-29T16:18:38.000Z</time></trkpt>
        <trkpt lat="29.5565596" lon="103.3861396"><ele>789.23</ele><time>2026-05-29T16:18:48.000Z</time></trkpt>
        <trkpt lat="29.5564898" lon="103.3861527"><ele>790.49</ele><time>2026-05-29T16:19:10.000Z</time></trkpt>
        <trkpt lat="29.5564312" lon="103.3860796"><ele>791.82</ele><time>2026-05-29T16:19:30.000Z</time></trkpt>
        <trkpt lat="29.5564115" lon="103.3859671"><ele>792.86</ele><time>2026-05-29T16:20:02.000Z</time></trkpt>
        <trkpt lat="29.5563491" lon="103.3859615"><ele>793.82</ele><time>2026-05-29T16:20:44.000Z</time></trkpt>
        <trkpt lat="29.5562878" lon="103.3860292"><ele>797.6</ele><time>2026-05-29T16:21:12.000Z</time></trkpt>
        <trkpt lat="29.5562124" lon="103.3861094"><ele>801.53</ele><time>2026-05-29T16:21:42.000Z</time></trkpt>
        <trkpt lat="29.5561197" lon="103.3861256"><ele>806.75</ele><time>2026-05-29T16:22:16.000Z</time></trkpt>
        <trkpt lat="29.5560246" lon="103.3861033"><ele>811.37</ele><time>2026-05-29T16:22:44.000Z</time></trkpt>
        <trkpt lat="29.5559444" lon="103.3860399"><ele>815.57</ele><time>2026-05-29T16:23:06.000Z</time></trkpt>
        <trkpt lat="29.555961" lon="103.3859472"><ele>819.99</ele><time>2026-05-29T16:23:56.000Z</time></trkpt>
        <trkpt lat="29.5560441" lon="103.385905"><ele>825</ele><time>2026-05-29T16:24:08.000Z</time></trkpt>
        <trkpt lat="29.5560157" lon="103.3858561"><ele>828.97</ele><time>2026-05-29T16:24:56.000Z</time></trkpt>
        <trkpt lat="29.5560589" lon="103.3857811"><ele>833.27</ele><time>2026-05-29T16:25:12.000Z</time></trkpt>
        <trkpt lat="29.5560635" lon="103.3856792"><ele>837.18</ele><time>2026-05-29T16:25:32.000Z</time></trkpt>
        <trkpt lat="29.5560688" lon="103.3855689"><ele>840.08</ele><time>2026-05-29T16:25:50.000Z</time></trkpt>
        <trkpt lat="29.5560908" lon="103.3854578"><ele>842.57</ele><time>2026-05-29T16:26:10.000Z</time></trkpt>
        <trkpt lat="29.5560462" lon="103.3854798"><ele>845.39</ele><time>2026-05-29T16:26:34.000Z</time></trkpt>
        <trkpt lat="29.5559809" lon="103.3855628"><ele>849.68</ele><time>2026-05-29T16:26:56.000Z</time></trkpt>
        <trkpt lat="29.5559456" lon="103.385518"><ele>853.58</ele><time>2026-05-29T16:27:34.000Z</time></trkpt>
        <trkpt lat="29.555874" lon="103.3855285"><ele>857.33</ele><time>2026-05-29T16:28:24.000Z</time></trkpt>
        <trkpt lat="29.5557834" lon="103.3855224"><ele>860.47</ele><time>2026-05-29T16:28:52.000Z</time></trkpt>
        <trkpt lat="29.5557235" lon="103.3854515"><ele>864.25</ele><time>2026-05-29T16:29:46.000Z</time></trkpt>
        <trkpt lat="29.5556597" lon="103.3853688"><ele>868.98</ele><time>2026-05-29T16:30:18.000Z</time></trkpt>
        <trkpt lat="29.5556698" lon="103.3852386"><ele>874.23</ele><time>2026-05-29T16:37:36.000Z</time></trkpt>
        <trkpt lat="29.5556793" lon="103.3851318"><ele>880.2</ele><time>2026-05-29T16:37:50.000Z</time></trkpt>
        <trkpt lat="29.5556068" lon="103.3850632"><ele>885.34</ele><time>2026-05-29T16:38:56.000Z</time></trkpt>
        <trkpt lat="29.5555115" lon="103.3850327"><ele>889.98</ele><time>2026-05-29T16:39:06.000Z</time></trkpt>
        <trkpt lat="29.5554226" lon="103.3850086"><ele>891.78</ele><time>2026-05-29T16:39:42.000Z</time></trkpt>
        <trkpt lat="29.5553318" lon="103.3849916"><ele>894</ele><time>2026-05-29T16:39:58.000Z</time></trkpt>
        <trkpt lat="29.5552377" lon="103.384971"><ele>896.58</ele><time>2026-05-29T16:40:22.000Z</time></trkpt>
        <trkpt lat="29.5551467" lon="103.3849718"><ele>900.41</ele><time>2026-05-29T16:40:42.000Z</time></trkpt>
        <trkpt lat="29.5550554" lon="103.3849575"><ele>905.03</ele><time>2026-05-29T16:41:00.000Z</time></trkpt>
        <trkpt lat="29.5549654" lon="103.3849134"><ele>909.11</ele><time>2026-05-29T16:41:20.000Z</time></trkpt>
        <trkpt lat="29.5548802" lon="103.3848586"><ele>912.55</ele><time>2026-05-29T16:41:36.000Z</time></trkpt>
        <trkpt lat="29.5548181" lon="103.384773"><ele>915.36</ele><time>2026-05-29T16:41:52.000Z</time></trkpt>
        <trkpt lat="29.5547598" lon="103.3846891"><ele>918.43</ele><time>2026-05-29T16:42:08.000Z</time></trkpt>
        <trkpt lat="29.5546901" lon="103.3846198"><ele>920.92</ele><time>2026-05-29T16:42:24.000Z</time></trkpt>
        <trkpt lat="29.5546267" lon="103.3845398"><ele>923.27</ele><time>2026-05-29T16:42:44.000Z</time></trkpt>
        <trkpt lat="29.5546659" lon="103.3844672"><ele>925.68</ele><time>2026-05-29T16:43:44.000Z</time></trkpt>
        <trkpt lat="29.5547554" lon="103.3844266"><ele>929.7</ele><time>2026-05-29T16:44:14.000Z</time></trkpt>
        <trkpt lat="29.5548058" lon="103.3844089"><ele>933.87</ele><time>2026-05-29T16:44:20.000Z</time></trkpt>
        <trkpt lat="29.5548791" lon="103.3843519"><ele>936.58</ele><time>2026-05-29T16:45:18.000Z</time></trkpt>
        <trkpt lat="29.5549698" lon="103.3842955"><ele>939.69</ele><time>2026-05-29T16:45:44.000Z</time></trkpt>
        <trkpt lat="29.5550552" lon="103.3842289"><ele>942.44</ele><time>2026-05-29T16:46:14.000Z</time></trkpt>
        <trkpt lat="29.555055" lon="103.384136"><ele>946.22</ele><time>2026-05-29T16:46:30.000Z</time></trkpt>
        <trkpt lat="29.5549717" lon="103.3840408"><ele>949.79</ele><time>2026-05-29T16:48:50.000Z</time></trkpt>
        <trkpt lat="29.5549297" lon="103.3839417"><ele>952.56</ele><time>2026-05-29T16:48:58.000Z</time></trkpt>
        <trkpt lat="29.5549281" lon="103.383836"><ele>954.79</ele><time>2026-05-29T16:49:06.000Z</time></trkpt>
        <trkpt lat="29.5549719" lon="103.3837469"><ele>956.96</ele><time>2026-05-29T16:49:14.000Z</time></trkpt>
        <trkpt lat="29.5550488" lon="103.3836572"><ele>958.39</ele><time>2026-05-29T16:49:24.000Z</time></trkpt>
        <trkpt lat="29.5550527" lon="103.3835554"><ele>960.22</ele><time>2026-05-29T16:49:50.000Z</time></trkpt>
        <trkpt lat="29.5550092" lon="103.383466"><ele>961.16</ele><time>2026-05-29T16:50:00.000Z</time></trkpt>
        <trkpt lat="29.5549203" lon="103.3834046"><ele>961.63</ele><time>2026-05-29T16:50:12.000Z</time></trkpt>
        <trkpt lat="29.5548228" lon="103.3833701"><ele>961.96</ele><time>2026-05-29T16:50:20.000Z</time></trkpt>
        <trkpt lat="29.5547424" lon="103.3832979"><ele>962.09</ele><time>2026-05-29T16:50:28.000Z</time></trkpt>
        <trkpt lat="29.5546553" lon="103.3832554"><ele>962.32</ele><time>2026-05-29T16:50:38.000Z</time></trkpt>
        <trkpt lat="29.5545677" lon="103.3832072"><ele>962.57</ele><time>2026-05-29T16:50:50.000Z</time></trkpt>
        <trkpt lat="29.5544878" lon="103.3831501"><ele>962.83</ele><time>2026-05-29T16:51:04.000Z</time></trkpt>
        <trkpt lat="29.5544426" lon="103.3830607"><ele>963.13</ele><time>2026-05-29T16:51:18.000Z</time></trkpt>
        <trkpt lat="29.5543812" lon="103.3829885"><ele>963.59</ele><time>2026-05-29T16:51:40.000Z</time></trkpt>
        <trkpt lat="29.5543563" lon="103.3828844"><ele>964.06</ele><time>2026-05-29T16:52:08.000Z</time></trkpt>
        <trkpt lat="29.5543761" lon="103.3827801"><ele>965.65</ele><time>2026-05-29T16:52:38.000Z</time></trkpt>
        <trkpt lat="29.5544029" lon="103.3826719"><ele>967.46</ele><time>2026-05-29T16:53:14.000Z</time></trkpt>
        <trkpt lat="29.5543786" lon="103.3825747"><ele>970.61</ele><time>2026-05-29T16:53:38.000Z</time></trkpt>
        <trkpt lat="29.5543247" lon="103.3824879"><ele>973.07</ele><time>2026-05-29T16:53:58.000Z</time></trkpt>
        <trkpt lat="29.5542559" lon="103.3824105"><ele>975.5</ele><time>2026-05-29T16:54:18.000Z</time></trkpt>
        <trkpt lat="29.5542257" lon="103.3823071"><ele>978.13</ele><time>2026-05-29T16:54:36.000Z</time></trkpt>
        <trkpt lat="29.554216" lon="103.3821991"><ele>980.21</ele><time>2026-05-29T16:54:50.000Z</time></trkpt>
        <trkpt lat="29.5542257" lon="103.3820847"><ele>982.29</ele><time>2026-05-29T16:55:02.000Z</time></trkpt>
        <trkpt lat="29.5542293" lon="103.3819686"><ele>984.27</ele><time>2026-05-29T16:55:14.000Z</time></trkpt>
        <trkpt lat="29.5542002" lon="103.3818642"><ele>985.96</ele><time>2026-05-29T16:55:24.000Z</time></trkpt>
        <trkpt lat="29.5541613" lon="103.3817645"><ele>987.24</ele><time>2026-05-29T16:55:44.000Z</time></trkpt>
        <trkpt lat="29.5541288" lon="103.381649"><ele>988.98</ele><time>2026-05-29T16:56:00.000Z</time></trkpt>
        <trkpt lat="29.5540927" lon="103.3815444"><ele>990.71</ele><time>2026-05-29T16:56:12.000Z</time></trkpt>
        <trkpt lat="29.5540758" lon="103.3814272"><ele>992.11</ele><time>2026-05-29T16:56:24.000Z</time></trkpt>
        <trkpt lat="29.5540605" lon="103.381311"><ele>993.48</ele><time>2026-05-29T16:56:38.000Z</time></trkpt>
        <trkpt lat="29.5540479" lon="103.3812013"><ele>995.13</ele><time>2026-05-29T16:56:50.000Z</time></trkpt>
        <trkpt lat="29.5540084" lon="103.3811057"><ele>996.51</ele><time>2026-05-29T16:56:58.000Z</time></trkpt>
        <trkpt lat="29.5539486" lon="103.3810208"><ele>997.39</ele><time>2026-05-29T16:57:10.000Z</time></trkpt>
        <trkpt lat="29.5539343" lon="103.380916"><ele>998.52</ele><time>2026-05-29T16:57:24.000Z</time></trkpt>
        <trkpt lat="29.5539641" lon="103.3808085"><ele>999.69</ele><time>2026-05-29T16:57:36.000Z</time></trkpt>
        <trkpt lat="29.5540057" lon="103.3807064"><ele>1000.47</ele><time>2026-05-29T16:57:50.000Z</time></trkpt>
        <trkpt lat="29.554044" lon="103.3806009"><ele>1002.27</ele><time>2026-05-29T16:58:06.000Z</time></trkpt>
        <trkpt lat="29.5540443" lon="103.3804769"><ele>1003.64</ele><time>2026-05-29T16:58:18.000Z</time></trkpt>
        <trkpt lat="29.5540283" lon="103.3803577"><ele>1004.62</ele><time>2026-05-29T16:58:30.000Z</time></trkpt>
        <trkpt lat="29.554025" lon="103.3802415"><ele>1005.07</ele><time>2026-05-29T16:58:42.000Z</time></trkpt>
        <trkpt lat="29.5540194" lon="103.3801265"><ele>1005.28</ele><time>2026-05-29T16:58:56.000Z</time></trkpt>
        <trkpt lat="29.5540003" lon="103.3800179"><ele>1006.04</ele><time>2026-05-29T16:59:12.000Z</time></trkpt>
        <trkpt lat="29.553968" lon="103.3799171"><ele>1007.26</ele><time>2026-05-29T16:59:26.000Z</time></trkpt>
        <trkpt lat="29.553933" lon="103.3798189"><ele>1008.4</ele><time>2026-05-29T17:00:14.000Z</time></trkpt>
        <trkpt lat="29.5539069" lon="103.3797095"><ele>1009.73</ele><time>2026-05-29T17:00:38.000Z</time></trkpt>
        <trkpt lat="29.5538877" lon="103.3796013"><ele>1012.22</ele><time>2026-05-29T17:01:00.000Z</time></trkpt>
        <trkpt lat="29.5538681" lon="103.3794939"><ele>1014.55</ele><time>2026-05-29T17:01:20.000Z</time></trkpt>
        <trkpt lat="29.5538407" lon="103.3793868"><ele>1016.99</ele><time>2026-05-29T17:01:36.000Z</time></trkpt>
        <trkpt lat="29.5538246" lon="103.37928"><ele>1019.71</ele><time>2026-05-29T17:01:50.000Z</time></trkpt>
        <trkpt lat="29.5538086" lon="103.3791675"><ele>1022.41</ele><time>2026-05-29T17:02:04.000Z</time></trkpt>
        <trkpt lat="29.5537851" lon="103.3790586"><ele>1024.97</ele><time>2026-05-29T17:02:18.000Z</time></trkpt>
        <trkpt lat="29.553783" lon="103.3789399"><ele>1027.08</ele><time>2026-05-29T17:02:30.000Z</time></trkpt>
        <trkpt lat="29.5538032" lon="103.3788233"><ele>1028.64</ele><time>2026-05-29T17:02:40.000Z</time></trkpt>
        <trkpt lat="29.5538336" lon="103.3787137"><ele>1030.16</ele><time>2026-05-29T17:02:54.000Z</time></trkpt>
        <trkpt lat="29.5538285" lon="103.3786011"><ele>1031.95</ele><time>2026-05-29T17:03:12.000Z</time></trkpt>
        <trkpt lat="29.5538004" lon="103.3784986"><ele>1033.29</ele><time>2026-05-29T17:03:32.000Z</time></trkpt>
        <trkpt lat="29.5537737" lon="103.3783883"><ele>1034.74</ele><time>2026-05-29T17:03:54.000Z</time></trkpt>
        <trkpt lat="29.5537278" lon="103.3782918"><ele>1037.47</ele><time>2026-05-29T17:04:14.000Z</time></trkpt>
        <trkpt lat="29.5536601" lon="103.3782062"><ele>1040.25</ele><time>2026-05-29T17:04:30.000Z</time></trkpt>
        <trkpt lat="29.5536194" lon="103.3780975"><ele>1042.58</ele><time>2026-05-29T17:05:32.000Z</time></trkpt>
        <trkpt lat="29.5535507" lon="103.3780212"><ele>1044.63</ele><time>2026-05-29T17:05:48.000Z</time></trkpt>
        <trkpt lat="29.5534934" lon="103.3779385"><ele>1046.81</ele><time>2026-05-29T17:06:16.000Z</time></trkpt>
        <trkpt lat="29.5534439" lon="103.3778487"><ele>1049.65</ele><time>2026-05-29T17:06:52.000Z</time></trkpt>
        <trkpt lat="29.5533811" lon="103.3777739"><ele>1052.98</ele><time>2026-05-29T17:07:26.000Z</time></trkpt>
        <trkpt lat="29.5533104" lon="103.3777105"><ele>1056.03</ele><time>2026-05-29T17:08:18.000Z</time></trkpt>
        <trkpt lat="29.5532131" lon="103.377655"><ele>1059.74</ele><time>2026-05-29T17:10:50.000Z</time></trkpt>
        <trkpt lat="29.5531559" lon="103.3775635"><ele>1063.08</ele><time>2026-05-29T17:11:04.000Z</time></trkpt>
        <trkpt lat="29.5530842" lon="103.3774913"><ele>1066.3</ele><time>2026-05-29T17:11:24.000Z</time></trkpt>
        <trkpt lat="29.5530201" lon="103.3774166"><ele>1069.63</ele><time>2026-05-29T17:11:52.000Z</time></trkpt>
        <trkpt lat="29.5529585" lon="103.3773356"><ele>1072.9</ele><time>2026-05-29T17:12:26.000Z</time></trkpt>
        <trkpt lat="29.5528876" lon="103.3772635"><ele>1076.16</ele><time>2026-05-29T17:13:14.000Z</time></trkpt>
        <trkpt lat="29.552806" lon="103.3772178"><ele>1079.82</ele><time>2026-05-29T17:13:30.000Z</time></trkpt>
        <trkpt lat="29.5527195" lon="103.377187"><ele>1082.92</ele><time>2026-05-29T17:14:12.000Z</time></trkpt>
        <trkpt lat="29.5526492" lon="103.3771142"><ele>1086.69</ele><time>2026-05-29T17:14:28.000Z</time></trkpt>
        <trkpt lat="29.5525627" lon="103.3770905"><ele>1089.9</ele><time>2026-05-29T17:15:34.000Z</time></trkpt>
        <trkpt lat="29.5524788" lon="103.3770523"><ele>1093.71</ele><time>2026-05-29T17:16:16.000Z</time></trkpt>
        <trkpt lat="29.5523884" lon="103.3770142"><ele>1096.88</ele><time>2026-05-29T17:16:40.000Z</time></trkpt>
        <trkpt lat="29.5522998" lon="103.3769701"><ele>1099.74</ele><time>2026-05-29T17:17:30.000Z</time></trkpt>
        <trkpt lat="29.5522118" lon="103.3769357"><ele>1103.42</ele><time>2026-05-29T17:17:56.000Z</time></trkpt>
        <trkpt lat="29.5521297" lon="103.3768821"><ele>1106.49</ele><time>2026-05-29T17:18:12.000Z</time></trkpt>
        <trkpt lat="29.5520469" lon="103.376821"><ele>1109.86</ele><time>2026-05-29T17:18:38.000Z</time></trkpt>
        <trkpt lat="29.5519593" lon="103.3767868"><ele>1113.05</ele><time>2026-05-29T17:19:02.000Z</time></trkpt>
        <trkpt lat="29.5518608" lon="103.3768005"><ele>1116.75</ele><time>2026-05-29T17:21:20.000Z</time></trkpt>
        <trkpt lat="29.5518665" lon="103.3766861"><ele>1119.52</ele><time>2026-05-29T17:25:22.000Z</time></trkpt>
        <trkpt lat="29.551897" lon="103.3765793"><ele>1122.22</ele><time>2026-05-29T17:25:34.000Z</time></trkpt>
        <trkpt lat="29.5518837" lon="103.3766861"><ele>1126.65</ele><time>2026-05-29T17:28:28.000Z</time></trkpt>
        <trkpt lat="29.5518093" lon="103.3766098"><ele>1131.99</ele><time>2026-05-29T17:28:54.000Z</time></trkpt>
        <trkpt lat="29.5517817" lon="103.3765077"><ele>1136.56</ele><time>2026-05-29T17:29:32.000Z</time></trkpt>
        <trkpt lat="29.5517698" lon="103.3763951"><ele>1140.65</ele><time>2026-05-29T17:30:02.000Z</time></trkpt>
        <trkpt lat="29.5517128" lon="103.3763193"><ele>1143.87</ele><time>2026-05-29T17:30:56.000Z</time></trkpt>
        <trkpt lat="29.55171" lon="103.3762231"><ele>1148.64</ele><time>2026-05-29T17:31:16.000Z</time></trkpt>
        <trkpt lat="29.5517398" lon="103.3761238"><ele>1152.09</ele><time>2026-05-29T17:31:40.000Z</time></trkpt>
        <trkpt lat="29.5517407" lon="103.376018"><ele>1155.41</ele><time>2026-05-29T17:32:02.000Z</time></trkpt>
        <trkpt lat="29.5517251" lon="103.3759103"><ele>1158.92</ele><time>2026-05-29T17:32:40.000Z</time></trkpt>
        <trkpt lat="29.5517165" lon="103.3758024"><ele>1162.2</ele><time>2026-05-29T17:32:58.000Z</time></trkpt>
        <trkpt lat="29.5516912" lon="103.3756949"><ele>1166.34</ele><time>2026-05-29T17:33:14.000Z</time></trkpt>
        <trkpt lat="29.5516556" lon="103.3755934"><ele>1170.34</ele><time>2026-05-29T17:33:24.000Z</time></trkpt>
        <trkpt lat="29.5515857" lon="103.3755229"><ele>1173.91</ele><time>2026-05-29T17:33:34.000Z</time></trkpt>
        <trkpt lat="29.5514972" lon="103.3754635"><ele>1176.5</ele><time>2026-05-29T17:33:48.000Z</time></trkpt>
        <trkpt lat="29.5514057" lon="103.3754005"><ele>1178.22</ele><time>2026-05-29T17:34:00.000Z</time></trkpt>
        <trkpt lat="29.5513198" lon="103.375346"><ele>1179.76</ele><time>2026-05-29T17:34:12.000Z</time></trkpt>
        <trkpt lat="29.5512316" lon="103.3753056"><ele>1181.13</ele><time>2026-05-29T17:34:32.000Z</time></trkpt>
        <trkpt lat="29.551143" lon="103.3752694"><ele>1182.04</ele><time>2026-05-29T17:34:56.000Z</time></trkpt>
        <trkpt lat="29.5510474" lon="103.3752565"><ele>1183.32</ele><time>2026-05-29T17:35:16.000Z</time></trkpt>
        <trkpt lat="29.5509538" lon="103.3752456"><ele>1185.1</ele><time>2026-05-29T17:35:38.000Z</time></trkpt>
        <trkpt lat="29.55086" lon="103.375245"><ele>1186.83</ele><time>2026-05-29T17:35:52.000Z</time></trkpt>
        <trkpt lat="29.5507878" lon="103.3751899"><ele>1188.33</ele><time>2026-05-29T17:36:06.000Z</time></trkpt>
        <trkpt lat="29.5506991" lon="103.3751425"><ele>1189.85</ele><time>2026-05-29T17:36:16.000Z</time></trkpt>
        <trkpt lat="29.5506048" lon="103.3750887"><ele>1191.56</ele><time>2026-05-29T17:36:28.000Z</time></trkpt>
        <trkpt lat="29.5505116" lon="103.375045"><ele>1193.14</ele><time>2026-05-29T17:36:38.000Z</time></trkpt>
        <trkpt lat="29.550422" lon="103.375"><ele>1194.5</ele><time>2026-05-29T17:36:50.000Z</time></trkpt>
        <trkpt lat="29.5503341" lon="103.3749487"><ele>1195.89</ele><time>2026-05-29T17:37:00.000Z</time></trkpt>
        <trkpt lat="29.550248" lon="103.3749123"><ele>1196.64</ele><time>2026-05-29T17:37:10.000Z</time></trkpt>
        <trkpt lat="29.5501553" lon="103.3748874"><ele>1197.17</ele><time>2026-05-29T17:37:30.000Z</time></trkpt>
        <trkpt lat="29.5500758" lon="103.3748374"><ele>1198</ele><time>2026-05-29T17:37:42.000Z</time></trkpt>
        <trkpt lat="29.5499857" lon="103.374783"><ele>1199</ele><time>2026-05-29T17:37:54.000Z</time></trkpt>
        <trkpt lat="29.5499168" lon="103.3747049"><ele>1199.97</ele><time>2026-05-29T17:38:08.000Z</time></trkpt>
        <trkpt lat="29.5499592" lon="103.3746074"><ele>1201.57</ele><time>2026-05-29T17:38:24.000Z</time></trkpt>
        <trkpt lat="29.5500107" lon="103.3744888"><ele>1203.78</ele><time>2026-05-29T17:39:40.000Z</time></trkpt>
        <trkpt lat="29.550087" lon="103.3744278"><ele>1207.97</ele><time>2026-05-29T17:40:02.000Z</time></trkpt>
        <trkpt lat="29.5501713" lon="103.3743603"><ele>1211.77</ele><time>2026-05-29T17:40:12.000Z</time></trkpt>
        <trkpt lat="29.5502483" lon="103.3742917"><ele>1214.79</ele><time>2026-05-29T17:40:24.000Z</time></trkpt>
        <trkpt lat="29.5503302" lon="103.3742341"><ele>1218.42</ele><time>2026-05-29T17:40:38.000Z</time></trkpt>
        <trkpt lat="29.550411" lon="103.3741578"><ele>1222.43</ele><time>2026-05-29T17:40:56.000Z</time></trkpt>
        <trkpt lat="29.5504971" lon="103.374097"><ele>1224.87</ele><time>2026-05-29T17:41:10.000Z</time></trkpt>
        <trkpt lat="29.5505951" lon="103.3740943"><ele>1227.63</ele><time>2026-05-29T17:41:24.000Z</time></trkpt>
        <trkpt lat="29.5506771" lon="103.3740494"><ele>1229.12</ele><time>2026-05-29T17:41:50.000Z</time></trkpt>
        <trkpt lat="29.5507553" lon="103.3739855"><ele>1230.26</ele><time>2026-05-29T17:41:56.000Z</time></trkpt>
        <trkpt lat="29.5508197" lon="103.3739095"><ele>1230.87</ele><time>2026-05-29T17:42:10.000Z</time></trkpt>
        <trkpt lat="29.5509138" lon="103.3738706"><ele>1230.74</ele><time>2026-05-29T17:42:20.000Z</time></trkpt>
        <trkpt lat="29.5510155" lon="103.3738637"><ele>1231.43</ele><time>2026-05-29T17:42:30.000Z</time></trkpt>
        <trkpt lat="29.551116" lon="103.3738729"><ele>1232.15</ele><time>2026-05-29T17:42:44.000Z</time></trkpt>
        <trkpt lat="29.551195" lon="103.3738168"><ele>1232.57</ele><time>2026-05-29T17:42:54.000Z</time></trkpt>
        <trkpt lat="29.5512084" lon="103.3737174"><ele>1232.29</ele><time>2026-05-29T17:43:08.000Z</time></trkpt>
        <trkpt lat="29.5512073" lon="103.373599"><ele>1230.87</ele><time>2026-05-29T17:43:18.000Z</time></trkpt>
        <trkpt lat="29.5512452" lon="103.3735001"><ele>1228.76</ele><time>2026-05-29T17:43:42.000Z</time></trkpt>
        <trkpt lat="29.5512988" lon="103.3734114"><ele>1226.55</ele><time>2026-05-29T17:44:06.000Z</time></trkpt>
        <trkpt lat="29.5513318" lon="103.3733039"><ele>1225.07</ele><time>2026-05-29T17:44:16.000Z</time></trkpt>
        <trkpt lat="29.5512772" lon="103.373218"><ele>1223.91</ele><time>2026-05-29T17:44:26.000Z</time></trkpt>
        <trkpt lat="29.5512056" lon="103.3731409"><ele>1222.63</ele><time>2026-05-29T17:44:40.000Z</time></trkpt>
        <trkpt lat="29.5511543" lon="103.373049"><ele>1221.76</ele><time>2026-05-29T17:44:52.000Z</time></trkpt>
        <trkpt lat="29.5511255" lon="103.3729451"><ele>1220.97</ele><time>2026-05-29T17:45:06.000Z</time></trkpt>
        <trkpt lat="29.5510483" lon="103.372929"><ele>1220.38</ele><time>2026-05-29T17:45:28.000Z</time></trkpt>
        <trkpt lat="29.5509528" lon="103.3729113"><ele>1220.87</ele><time>2026-05-29T17:45:42.000Z</time></trkpt>
        <trkpt lat="29.5508498" lon="103.372906"><ele>1221.17</ele><time>2026-05-29T17:45:52.000Z</time></trkpt>
        <trkpt lat="29.5507478" lon="103.3729086"><ele>1221.21</ele><time>2026-05-29T17:46:02.000Z</time></trkpt>
        <trkpt lat="29.5506477" lon="103.3729352"><ele>1220.97</ele><time>2026-05-29T17:46:16.000Z</time></trkpt>
        <trkpt lat="29.5505476" lon="103.3729462"><ele>1220.81</ele><time>2026-05-29T17:46:28.000Z</time></trkpt>
        <trkpt lat="29.5504565" lon="103.3729839"><ele>1220.76</ele><time>2026-05-29T17:46:42.000Z</time></trkpt>
        <trkpt lat="29.5503487" lon="103.3729909"><ele>1220.76</ele><time>2026-05-29T17:47:04.000Z</time></trkpt>
        <trkpt lat="29.550243" lon="103.3729794"><ele>1220.24</ele><time>2026-05-29T17:47:12.000Z</time></trkpt>
        <trkpt lat="29.550199" lon="103.3728874"><ele>1220.18</ele><time>2026-05-29T17:47:34.000Z</time></trkpt>
        <trkpt lat="29.5502623" lon="103.3728191"><ele>1225.29</ele><time>2026-05-29T17:47:44.000Z</time></trkpt>
        <trkpt lat="29.550353" lon="103.3727475"><ele>1231.04</ele><time>2026-05-29T17:47:52.000Z</time></trkpt>
        <trkpt lat="29.5504275" lon="103.3726646"><ele>1235.74</ele><time>2026-05-29T17:48:02.000Z</time></trkpt>
        <trkpt lat="29.5504976" lon="103.3725842"><ele>1239.66</ele><time>2026-05-29T17:48:22.000Z</time></trkpt>
        <trkpt lat="29.5505885" lon="103.3725289"><ele>1243.66</ele><time>2026-05-29T17:48:32.000Z</time></trkpt>
        <trkpt lat="29.5506289" lon="103.3724258"><ele>1245.76</ele><time>2026-05-29T17:48:44.000Z</time></trkpt>
        <trkpt lat="29.5506591" lon="103.3723042"><ele>1245.13</ele><time>2026-05-29T17:48:54.000Z</time></trkpt>
        <trkpt lat="29.5506834" lon="103.3721778"><ele>1241.29</ele><time>2026-05-29T17:49:06.000Z</time></trkpt>
        <trkpt lat="29.5506783" lon="103.3720574"><ele>1236.51</ele><time>2026-05-29T17:49:18.000Z</time></trkpt>
        <trkpt lat="29.5506207" lon="103.3719636"><ele>1232.17</ele><time>2026-05-29T17:49:32.000Z</time></trkpt>
        <trkpt lat="29.5505519" lon="103.3718799"><ele>1228.72</ele><time>2026-05-29T17:49:46.000Z</time></trkpt>
        <trkpt lat="29.5504745" lon="103.3717929"><ele>1226.18</ele><time>2026-05-29T17:49:58.000Z</time></trkpt>
        <trkpt lat="29.5504324" lon="103.371692"><ele>1224.12</ele><time>2026-05-29T17:50:10.000Z</time></trkpt>
        <trkpt lat="29.5503838" lon="103.371597"><ele>1222.55</ele><time>2026-05-29T17:50:24.000Z</time></trkpt>
        <trkpt lat="29.5503232" lon="103.3715161"><ele>1220.63</ele><time>2026-05-29T17:50:44.000Z</time></trkpt>
        <trkpt lat="29.550337" lon="103.3714232"><ele>1219.32</ele><time>2026-05-29T17:51:16.000Z</time></trkpt>
        <trkpt lat="29.5503685" lon="103.3713194"><ele>1219.19</ele><time>2026-05-29T17:51:28.000Z</time></trkpt>
        <trkpt lat="29.5503855" lon="103.371206"><ele>1218.19</ele><time>2026-05-29T17:51:42.000Z</time></trkpt>
        <trkpt lat="29.5504172" lon="103.3710957"><ele>1216.47</ele><time>2026-05-29T17:51:52.000Z</time></trkpt>
        <trkpt lat="29.5504392" lon="103.3709816"><ele>1215.18</ele><time>2026-05-29T17:52:04.000Z</time></trkpt>
        <trkpt lat="29.5504262" lon="103.3708721"><ele>1213.97</ele><time>2026-05-29T17:52:16.000Z</time></trkpt>
        <trkpt lat="29.5503646" lon="103.3707935"><ele>1212.49</ele><time>2026-05-29T17:52:32.000Z</time></trkpt>
        <trkpt lat="29.5503257" lon="103.3706916"><ele>1210.8</ele><time>2026-05-29T17:52:48.000Z</time></trkpt>
        <trkpt lat="29.5503117" lon="103.3705795"><ele>1209.29</ele><time>2026-05-29T17:53:06.000Z</time></trkpt>
        <trkpt lat="29.5503434" lon="103.3704755"><ele>1207.36</ele><time>2026-05-29T17:53:20.000Z</time></trkpt>
        <trkpt lat="29.5503578" lon="103.370369"><ele>1205.03</ele><time>2026-05-29T17:55:34.000Z</time></trkpt>
        <trkpt lat="29.5503731" lon="103.3702621"><ele>1201.52</ele><time>2026-05-29T17:56:08.000Z</time></trkpt>
        <trkpt lat="29.5503867" lon="103.3701489"><ele>1199.97</ele><time>2026-05-29T17:56:32.000Z</time></trkpt>
        <trkpt lat="29.5503751" lon="103.3700345"><ele>1199.42</ele><time>2026-05-29T17:56:44.000Z</time></trkpt>
        <trkpt lat="29.5503225" lon="103.3699484"><ele>1198.76</ele><time>2026-05-29T17:57:00.000Z</time></trkpt>
        <trkpt lat="29.5502659" lon="103.3698611"><ele>1199.38</ele><time>2026-05-29T17:57:16.000Z</time></trkpt>
        <trkpt lat="29.5502279" lon="103.3697607"><ele>1199.95</ele><time>2026-05-29T17:57:34.000Z</time></trkpt>
        <trkpt lat="29.5501862" lon="103.3696594"><ele>1201</ele><time>2026-05-29T17:58:42.000Z</time></trkpt>
        <trkpt lat="29.5501328" lon="103.3695755"><ele>1203.66</ele><time>2026-05-29T17:59:34.000Z</time></trkpt>
        <trkpt lat="29.5500551" lon="103.3695109"><ele>1207.71</ele><time>2026-05-29T18:00:04.000Z</time></trkpt>
        <trkpt lat="29.549988" lon="103.3694321"><ele>1212.5</ele><time>2026-05-29T18:00:26.000Z</time></trkpt>
        <trkpt lat="29.5499483" lon="103.3693318"><ele>1216.24</ele><time>2026-05-29T18:00:40.000Z</time></trkpt>
        <trkpt lat="29.5499" lon="103.369241"><ele>1218.63</ele><time>2026-05-29T18:00:52.000Z</time></trkpt>
        <trkpt lat="29.5498958" lon="103.3691378"><ele>1220.1</ele><time>2026-05-29T18:01:08.000Z</time></trkpt>
        <trkpt lat="29.549902" lon="103.3690262"><ele>1221.05</ele><time>2026-05-29T18:02:10.000Z</time></trkpt>
        <trkpt lat="29.5499573" lon="103.3689423"><ele>1222.22</ele><time>2026-05-29T18:02:50.000Z</time></trkpt>
        <trkpt lat="29.549898" lon="103.3688842"><ele>1223.68</ele><time>2026-05-29T18:03:26.000Z</time></trkpt>
        <trkpt lat="29.5499038" lon="103.3687953"><ele>1225.7</ele><time>2026-05-29T18:04:00.000Z</time></trkpt>
        <trkpt lat="29.5498447" lon="103.368806"><ele>1227.6</ele><time>2026-05-29T18:04:36.000Z</time></trkpt>
        <trkpt lat="29.5497719" lon="103.3687673"><ele>1231.53</ele><time>2026-05-29T18:05:06.000Z</time></trkpt>
        <trkpt lat="29.5496769" lon="103.3687288"><ele>1236.05</ele><time>2026-05-29T18:05:28.000Z</time></trkpt>
        <trkpt lat="29.5496078" lon="103.3686561"><ele>1239.96</ele><time>2026-05-29T18:05:54.000Z</time></trkpt>
        <trkpt lat="29.5496036" lon="103.3685538"><ele>1243.32</ele><time>2026-05-29T18:06:52.000Z</time></trkpt>
        <trkpt lat="29.5496788" lon="103.368454"><ele>1246.38</ele><time>2026-05-29T18:08:22.000Z</time></trkpt>
        <trkpt lat="29.5497704" lon="103.3684692"><ele>1251.25</ele><time>2026-05-29T18:08:56.000Z</time></trkpt>
        <trkpt lat="29.5498142" lon="103.3683777"><ele>1255.9</ele><time>2026-05-29T18:10:30.000Z</time></trkpt>
        <trkpt lat="29.5498409" lon="103.3682785"><ele>1259.29</ele><time>2026-05-29T18:12:16.000Z</time></trkpt>
        <trkpt lat="29.5499096" lon="103.3682022"><ele>1269.66</ele><time>2026-05-29T18:12:50.000Z</time></trkpt>
        <trkpt lat="29.5498753" lon="103.3680954"><ele>1278.21</ele><time>2026-05-29T18:14:34.000Z</time></trkpt>
        <trkpt lat="29.5499001" lon="103.3679886"><ele>1288.11</ele><time>2026-05-29T18:15:16.000Z</time></trkpt>
        <trkpt lat="29.5498276" lon="103.3679276"><ele>1295.79</ele><time>2026-05-29T18:16:22.000Z</time></trkpt>
        <trkpt lat="29.5498695" lon="103.367836"><ele>1302.45</ele><time>2026-05-29T18:17:02.000Z</time></trkpt>
        <trkpt lat="29.5499611" lon="103.3678055"><ele>1307.88</ele><time>2026-05-29T18:18:10.000Z</time></trkpt>
        <trkpt lat="29.5499992" lon="103.3677063"><ele>1315.16</ele><time>2026-05-29T18:19:56.000Z</time></trkpt>
        <trkpt lat="29.5500717" lon="103.3676224"><ele>1324.28</ele><time>2026-05-29T18:20:20.000Z</time></trkpt>
        <trkpt lat="29.5501442" lon="103.3675578"><ele>1331.52</ele><time>2026-05-29T18:20:38.000Z</time></trkpt>
        <trkpt lat="29.5501622" lon="103.3674614"><ele>1336.81</ele><time>2026-05-29T18:21:26.000Z</time></trkpt>
        <trkpt lat="29.5501948" lon="103.3673665"><ele>1341.8</ele><time>2026-05-29T18:22:04.000Z</time></trkpt>
        <trkpt lat="29.5501003" lon="103.3673706"><ele>1345.8</ele><time>2026-05-29T18:23:04.000Z</time></trkpt>
        <trkpt lat="29.5501156" lon="103.3672485"><ele>1354.73</ele><time>2026-05-29T18:24:30.000Z</time></trkpt>
        <trkpt lat="29.5501556" lon="103.3671494"><ele>1363.6</ele><time>2026-05-29T18:24:56.000Z</time></trkpt>
        <trkpt lat="29.5502021" lon="103.3670502"><ele>1370.53</ele><time>2026-05-29T18:25:10.000Z</time></trkpt>
        <trkpt lat="29.5502174" lon="103.3670158"><ele>1375.16</ele><time>2026-05-29T18:25:12.000Z</time></trkpt>
        <trkpt lat="29.5502703" lon="103.3669557"><ele>1377.87</ele><time>2026-05-29T18:25:28.000Z</time></trkpt>
        <trkpt lat="29.5502918" lon="103.3669417"><ele>1380.09</ele><time>2026-05-29T18:25:30.000Z</time></trkpt>
        <trkpt lat="29.5503163" lon="103.3668697"><ele>1381.51</ele><time>2026-05-29T18:25:52.000Z</time></trkpt>
        <trkpt lat="29.5502528" lon="103.3668195"><ele>1384.55</ele><time>2026-05-29T18:26:24.000Z</time></trkpt>
        <trkpt lat="29.5501308" lon="103.3667831"><ele>1388.73</ele><time>2026-05-29T18:27:38.000Z</time></trkpt>
        <trkpt lat="29.5500584" lon="103.3667221"><ele>1393.87</ele><time>2026-05-29T18:28:12.000Z</time></trkpt>
        <trkpt lat="29.5499907" lon="103.3666417"><ele>1398.26</ele><time>2026-05-29T18:29:04.000Z</time></trkpt>
        <trkpt lat="29.5499151" lon="103.3665814"><ele>1402.17</ele><time>2026-05-29T18:29:32.000Z</time></trkpt>
        <trkpt lat="29.5498256" lon="103.3665848"><ele>1405.53</ele><time>2026-05-29T18:29:58.000Z</time></trkpt>
        <trkpt lat="29.5497354" lon="103.3666221"><ele>1411.45</ele><time>2026-05-29T18:30:32.000Z</time></trkpt>
        <trkpt lat="29.5496546" lon="103.3665939"><ele>1417.03</ele><time>2026-05-29T18:31:14.000Z</time></trkpt>
        <trkpt lat="29.5495704" lon="103.366555"><ele>1421.54</ele><time>2026-05-29T18:31:56.000Z</time></trkpt>
        <trkpt lat="29.5494906" lon="103.3665023"><ele>1426.16</ele><time>2026-05-29T18:32:50.000Z</time></trkpt>
        <trkpt lat="29.5494311" lon="103.3664229"><ele>1431.64</ele><time>2026-05-29T18:33:44.000Z</time></trkpt>
        <trkpt lat="29.5494089" lon="103.3663181"><ele>1436.58</ele><time>2026-05-29T18:34:10.000Z</time></trkpt>
        <trkpt lat="29.5493374" lon="103.3663254"><ele>1440.66</ele><time>2026-05-29T18:38:42.000Z</time></trkpt>
        <trkpt lat="29.549427" lon="103.3662872"><ele>1445.43</ele><time>2026-05-29T18:40:18.000Z</time></trkpt>
        <trkpt lat="29.5494995" lon="103.3662186"><ele>1450.28</ele><time>2026-05-29T18:40:30.000Z</time></trkpt>
        <trkpt lat="29.5495865" lon="103.3661628"><ele>1453.28</ele><time>2026-05-29T18:41:06.000Z</time></trkpt>
        <trkpt lat="29.5496805" lon="103.3661035"><ele>1454.91</ele><time>2026-05-29T18:41:18.000Z</time></trkpt>
        <trkpt lat="29.5497021" lon="103.3660029"><ele>1455.92</ele><time>2026-05-29T18:41:30.000Z</time></trkpt>
        <trkpt lat="29.549693" lon="103.3658931"><ele>1457.08</ele><time>2026-05-29T18:41:52.000Z</time></trkpt>
        <trkpt lat="29.5496515" lon="103.3657877"><ele>1458.65</ele><time>2026-05-29T18:42:16.000Z</time></trkpt>
        <trkpt lat="29.5496219" lon="103.3656741"><ele>1460.56</ele><time>2026-05-29T18:42:30.000Z</time></trkpt>
        <trkpt lat="29.5495429" lon="103.365604"><ele>1463.17</ele><time>2026-05-29T18:42:46.000Z</time></trkpt>
        <trkpt lat="29.5495175" lon="103.3655105"><ele>1465.95</ele><time>2026-05-29T18:43:00.000Z</time></trkpt>
        <trkpt lat="29.5495738" lon="103.3654294"><ele>1467.79</ele><time>2026-05-29T18:43:10.000Z</time></trkpt>
        <trkpt lat="29.5496587" lon="103.3653588"><ele>1468.2</ele><time>2026-05-29T18:43:20.000Z</time></trkpt>
        <trkpt lat="29.5497277" lon="103.3652743"><ele>1467.84</ele><time>2026-05-29T18:43:30.000Z</time></trkpt>
        <trkpt lat="29.5497893" lon="103.3651782"><ele>1467.47</ele><time>2026-05-29T18:43:40.000Z</time></trkpt>
        <trkpt lat="29.5498498" lon="103.3650838"><ele>1467.22</ele><time>2026-05-29T18:43:50.000Z</time></trkpt>
        <trkpt lat="29.5499052" lon="103.3649793"><ele>1467.11</ele><time>2026-05-29T18:44:02.000Z</time></trkpt>
        <trkpt lat="29.5499644" lon="103.364883"><ele>1466.43</ele><time>2026-05-29T18:44:14.000Z</time></trkpt>
        <trkpt lat="29.5500452" lon="103.3648076"><ele>1466.02</ele><time>2026-05-29T18:44:26.000Z</time></trkpt>
        <trkpt lat="29.5500808" lon="103.3647112"><ele>1466.43</ele><time>2026-05-29T18:44:36.000Z</time></trkpt>
        <trkpt lat="29.5500729" lon="103.3646058"><ele>1468</ele><time>2026-05-29T18:44:46.000Z</time></trkpt>
        <trkpt lat="29.5501096" lon="103.3645091"><ele>1469.52</ele><time>2026-05-29T18:45:00.000Z</time></trkpt>
        <trkpt lat="29.550179" lon="103.364428"><ele>1470.12</ele><time>2026-05-29T18:45:14.000Z</time></trkpt>
        <trkpt lat="29.5502624" lon="103.3643466"><ele>1469.59</ele><time>2026-05-29T18:45:24.000Z</time></trkpt>
        <trkpt lat="29.5503216" lon="103.3642528"><ele>1469.42</ele><time>2026-05-29T18:45:34.000Z</time></trkpt>
        <trkpt lat="29.55035" lon="103.3641426"><ele>1469.77</ele><time>2026-05-29T18:45:48.000Z</time></trkpt>
        <trkpt lat="29.5503717" lon="103.3640325"><ele>1470.9</ele><time>2026-05-29T18:46:22.000Z</time></trkpt>
        <trkpt lat="29.5504416" lon="103.3639981"><ele>1473.59</ele><time>2026-05-29T18:47:04.000Z</time></trkpt>
        <trkpt lat="29.5504544" lon="103.3639175"><ele>1476.23</ele><time>2026-05-29T18:47:32.000Z</time></trkpt>
        <trkpt lat="29.5504732" lon="103.3638161"><ele>1478.44</ele><time>2026-05-29T18:47:48.000Z</time></trkpt>
        <trkpt lat="29.5505507" lon="103.363788"><ele>1479.85</ele><time>2026-05-29T18:48:04.000Z</time></trkpt>
        <trkpt lat="29.5506448" lon="103.3637478"><ele>1480.88</ele><time>2026-05-29T18:48:24.000Z</time></trkpt>
        <trkpt lat="29.5507377" lon="103.3636827"><ele>1482.33</ele><time>2026-05-29T18:48:36.000Z</time></trkpt>
        <trkpt lat="29.5507605" lon="103.3635846"><ele>1485.31</ele><time>2026-05-29T18:48:52.000Z</time></trkpt>
        <trkpt lat="29.5507279" lon="103.3634867"><ele>1489.03</ele><time>2026-05-29T18:49:04.000Z</time></trkpt>
        <trkpt lat="29.5507197" lon="103.3633681"><ele>1491.7</ele><time>2026-05-29T18:49:50.000Z</time></trkpt>
        <trkpt lat="29.5507965" lon="103.3633041"><ele>1494.34</ele><time>2026-05-29T18:51:06.000Z</time></trkpt>
        <trkpt lat="29.5507774" lon="103.3631973"><ele>1497.45</ele><time>2026-05-29T18:51:40.000Z</time></trkpt>
        <trkpt lat="29.5507616" lon="103.3630905"><ele>1500.13</ele><time>2026-05-29T18:52:10.000Z</time></trkpt>
        <trkpt lat="29.5508461" lon="103.3630447"><ele>1502.47</ele><time>2026-05-29T18:53:32.000Z</time></trkpt>
        <trkpt lat="29.5507717" lon="103.3629684"><ele>1505.56</ele><time>2026-05-29T18:54:18.000Z</time></trkpt>
        <trkpt lat="29.5506859" lon="103.3629303"><ele>1509.85</ele><time>2026-05-29T18:56:00.000Z</time></trkpt>
        <trkpt lat="29.5506001" lon="103.3628998"><ele>1514.68</ele><time>2026-05-29T18:56:38.000Z</time></trkpt>
        <trkpt lat="29.5505933" lon="103.3628047"><ele>1519.51</ele><time>2026-05-29T18:57:34.000Z</time></trkpt>
        <trkpt lat="29.5506153" lon="103.3626982"><ele>1523.94</ele><time>2026-05-29T18:57:56.000Z</time></trkpt>
        <trkpt lat="29.5506409" lon="103.3625878"><ele>1528.4</ele><time>2026-05-29T18:58:38.000Z</time></trkpt>
        <trkpt lat="29.5506774" lon="103.3624829"><ele>1532.55</ele><time>2026-05-29T18:59:14.000Z</time></trkpt>
        <trkpt lat="29.5506744" lon="103.3623657"><ele>1536.92</ele><time>2026-05-29T19:01:04.000Z</time></trkpt>
        <trkpt lat="29.550621" lon="103.3622818"><ele>1541.91</ele><time>2026-05-29T19:01:30.000Z</time></trkpt>
        <trkpt lat="29.5505822" lon="103.362185"><ele>1547.51</ele><time>2026-05-29T19:02:00.000Z</time></trkpt>
        <trkpt lat="29.5505694" lon="103.3620741"><ele>1554.04</ele><time>2026-05-29T19:02:50.000Z</time></trkpt>
        <trkpt lat="29.5505867" lon="103.3619537"><ele>1560.52</ele><time>2026-05-29T19:04:08.000Z</time></trkpt>
        <trkpt lat="29.5505486" lon="103.3618546"><ele>1567.74</ele><time>2026-05-29T19:04:42.000Z</time></trkpt>
        <trkpt lat="29.5505104" lon="103.3617554"><ele>1573.08</ele><time>2026-05-29T19:04:58.000Z</time></trkpt>
        <trkpt lat="29.5504546" lon="103.361668"><ele>1578.03</ele><time>2026-05-29T19:05:16.000Z</time></trkpt>
        <trkpt lat="29.5503846" lon="103.3616015"><ele>1581.78</ele><time>2026-05-29T19:05:52.000Z</time></trkpt>
        <trkpt lat="29.5504075" lon="103.361525"><ele>1585.15</ele><time>2026-05-29T19:06:20.000Z</time></trkpt>
        <trkpt lat="29.5503595" lon="103.3614778"><ele>1589.11</ele><time>2026-05-29T19:07:04.000Z</time></trkpt>
        <trkpt lat="29.5503027" lon="103.3614067"><ele>1593.3</ele><time>2026-05-29T19:07:22.000Z</time></trkpt>
        <trkpt lat="29.5502815" lon="103.3613825"><ele>1597.57</ele><time>2026-05-29T19:07:26.000Z</time></trkpt>
        <trkpt lat="29.5502188" lon="103.3613357"><ele>1600.04</ele><time>2026-05-29T19:07:56.000Z</time></trkpt>
        <trkpt lat="29.5501266" lon="103.3613011"><ele>1603.29</ele><time>2026-05-29T19:08:32.000Z</time></trkpt>
        <trkpt lat="29.5500455" lon="103.3612367"><ele>1607.12</ele><time>2026-05-29T19:08:42.000Z</time></trkpt>
        <trkpt lat="29.5499493" lon="103.361195"><ele>1610.05</ele><time>2026-05-29T19:08:54.000Z</time></trkpt>
        <trkpt lat="29.5499128" lon="103.3611056"><ele>1611.82</ele><time>2026-05-29T19:09:06.000Z</time></trkpt>
        <trkpt lat="29.5498964" lon="103.3609982"><ele>1612.33</ele><time>2026-05-29T19:09:20.000Z</time></trkpt>
        <trkpt lat="29.549859" lon="103.3608865"><ele>1612.48</ele><time>2026-05-29T19:09:34.000Z</time></trkpt>
        <trkpt lat="29.5498629" lon="103.3607755"><ele>1612.84</ele><time>2026-05-29T19:09:48.000Z</time></trkpt>
        <trkpt lat="29.5498933" lon="103.3606546"><ele>1612.93</ele><time>2026-05-29T19:10:00.000Z</time></trkpt>
        <trkpt lat="29.5499481" lon="103.3605596"><ele>1613.14</ele><time>2026-05-29T19:10:10.000Z</time></trkpt>
        <trkpt lat="29.550015" lon="103.3604577"><ele>1613.38</ele><time>2026-05-29T19:10:24.000Z</time></trkpt>
        <trkpt lat="29.550049" lon="103.3603523"><ele>1613.41</ele><time>2026-05-29T19:10:34.000Z</time></trkpt>
        <trkpt lat="29.5500905" lon="103.3602513"><ele>1613.42</ele><time>2026-05-29T19:10:44.000Z</time></trkpt>
        <trkpt lat="29.5501453" lon="103.3601635"><ele>1613.37</ele><time>2026-05-29T19:11:06.000Z</time></trkpt>
        <trkpt lat="29.5501548" lon="103.3600632"><ele>1613.05</ele><time>2026-05-29T19:11:36.000Z</time></trkpt>
        <trkpt lat="29.5500965" lon="103.3599548"><ele>1613.73</ele><time>2026-05-29T19:12:50.000Z</time></trkpt>
        <trkpt lat="29.5500546" lon="103.3598633"><ele>1616.33</ele><time>2026-05-29T19:13:16.000Z</time></trkpt>
        <trkpt lat="29.5500107" lon="103.3597717"><ele>1618.73</ele><time>2026-05-29T19:14:20.000Z</time></trkpt>
        <trkpt lat="29.5499477" lon="103.3596802"><ele>1621.85</ele><time>2026-05-29T19:17:18.000Z</time></trkpt>
        <trkpt lat="29.5498924" lon="103.3595963"><ele>1625.01</ele><time>2026-05-29T19:17:38.000Z</time></trkpt>
        <trkpt lat="29.5498678" lon="103.3594865"><ele>1627.42</ele><time>2026-05-29T19:18:06.000Z</time></trkpt>
        <trkpt lat="29.549853" lon="103.3593781"><ele>1629.05</ele><time>2026-05-29T19:18:36.000Z</time></trkpt>
        <trkpt lat="29.5499074" lon="103.3592929"><ele>1630.98</ele><time>2026-05-29T19:18:54.000Z</time></trkpt>
        <trkpt lat="29.5499904" lon="103.3592164"><ele>1634.03</ele><time>2026-05-29T19:19:18.000Z</time></trkpt>
        <trkpt lat="29.5500826" lon="103.3591364"><ele>1637.27</ele><time>2026-05-29T19:20:12.000Z</time></trkpt>
        <trkpt lat="29.5501799" lon="103.3591115"><ele>1641.3</ele><time>2026-05-29T19:20:22.000Z</time></trkpt>
        <trkpt lat="29.5502535" lon="103.3590434"><ele>1644.52</ele><time>2026-05-29T19:20:34.000Z</time></trkpt>
        <trkpt lat="29.5502838" lon="103.3589447"><ele>1646.5</ele><time>2026-05-29T19:20:52.000Z</time></trkpt>
        <trkpt lat="29.5502901" lon="103.3588356"><ele>1648.3</ele><time>2026-05-29T19:21:10.000Z</time></trkpt>
        <trkpt lat="29.5502788" lon="103.3587248"><ele>1649.77</ele><time>2026-05-29T19:21:28.000Z</time></trkpt>
        <trkpt lat="29.5502809" lon="103.3586149"><ele>1651.26</ele><time>2026-05-29T19:21:56.000Z</time></trkpt>
        <trkpt lat="29.5503033" lon="103.358512"><ele>1652.76</ele><time>2026-05-29T19:22:26.000Z</time></trkpt>
        <trkpt lat="29.5503378" lon="103.3584122"><ele>1654.56</ele><time>2026-05-29T19:22:54.000Z</time></trkpt>
        <trkpt lat="29.5503258" lon="103.3583077"><ele>1657.82</ele><time>2026-05-29T19:23:06.000Z</time></trkpt>
        <trkpt lat="29.5503" lon="103.3582012"><ele>1660.73</ele><time>2026-05-29T19:23:16.000Z</time></trkpt>
        <trkpt lat="29.5502998" lon="103.358094"><ele>1662.88</ele><time>2026-05-29T19:23:30.000Z</time></trkpt>
        <trkpt lat="29.5503222" lon="103.3579811"><ele>1665</ele><time>2026-05-29T19:23:48.000Z</time></trkpt>
        <trkpt lat="29.550361" lon="103.357872"><ele>1667.03</ele><time>2026-05-29T19:24:46.000Z</time></trkpt>
        <trkpt lat="29.5504072" lon="103.3577703"><ele>1669.53</ele><time>2026-05-29T19:25:04.000Z</time></trkpt>
        <trkpt lat="29.5504186" lon="103.3576542"><ele>1672.03</ele><time>2026-05-29T19:25:20.000Z</time></trkpt>
        <trkpt lat="29.5504117" lon="103.3575324"><ele>1674.04</ele><time>2026-05-29T19:25:34.000Z</time></trkpt>
        <trkpt lat="29.5504164" lon="103.3574148"><ele>1675.89</ele><time>2026-05-29T19:25:50.000Z</time></trkpt>
        <trkpt lat="29.5504028" lon="103.3572994"><ele>1677.65</ele><time>2026-05-29T19:26:14.000Z</time></trkpt>
        <trkpt lat="29.5504027" lon="103.3571906"><ele>1679.85</ele><time>2026-05-29T19:26:34.000Z</time></trkpt>
        <trkpt lat="29.5503959" lon="103.3570784"><ele>1682.33</ele><time>2026-05-29T19:26:52.000Z</time></trkpt>
        <trkpt lat="29.5503477" lon="103.3569818"><ele>1684.07</ele><time>2026-05-29T19:27:04.000Z</time></trkpt>
        <trkpt lat="29.5502319" lon="103.3569565"><ele>1685.21</ele><time>2026-05-29T19:28:29.000Z</time></trkpt>
        <trkpt lat="29.5501366" lon="103.356926"><ele>1688.94</ele><time>2026-05-29T19:28:37.000Z</time></trkpt>
        <trkpt lat="29.5500444" lon="103.3569277"><ele>1691.87</ele><time>2026-05-29T19:28:49.000Z</time></trkpt>
        <trkpt lat="29.549984" lon="103.3568497"><ele>1693.96</ele><time>2026-05-29T19:34:43.000Z</time></trkpt>
        <trkpt lat="29.5499878" lon="103.3567352"><ele>1698.27</ele><time>2026-05-29T19:34:57.000Z</time></trkpt>
        <trkpt lat="29.5499554" lon="103.3566284"><ele>1700.4</ele><time>2026-05-29T19:38:52.000Z</time></trkpt>
        <trkpt lat="29.5499611" lon="103.3565063"><ele>1700.98</ele><time>2026-05-29T19:39:14.000Z</time></trkpt>
        <trkpt lat="29.549991" lon="103.3563907"><ele>1700.75</ele><time>2026-05-29T19:39:28.000Z</time></trkpt>
        <trkpt lat="29.5500547" lon="103.3562939"><ele>1700.38</ele><time>2026-05-29T19:39:44.000Z</time></trkpt>
        <trkpt lat="29.5501304" lon="103.3562145"><ele>1698.96</ele><time>2026-05-29T19:39:54.000Z</time></trkpt>
        <trkpt lat="29.5501863" lon="103.3561235"><ele>1697.35</ele><time>2026-05-29T19:40:06.000Z</time></trkpt>
        <trkpt lat="29.5502117" lon="103.3560211"><ele>1695.6</ele><time>2026-05-29T19:40:18.000Z</time></trkpt>
        <trkpt lat="29.5502301" lon="103.3559143"><ele>1693.16</ele><time>2026-05-29T19:40:28.000Z</time></trkpt>
        <trkpt lat="29.5502678" lon="103.3558179"><ele>1690.94</ele><time>2026-05-29T19:40:38.000Z</time></trkpt>
        <trkpt lat="29.5503339" lon="103.3557372"><ele>1689.09</ele><time>2026-05-29T19:40:52.000Z</time></trkpt>
        <trkpt lat="29.5504228" lon="103.3557308"><ele>1687.05</ele><time>2026-05-29T19:41:02.000Z</time></trkpt>
        <trkpt lat="29.5505198" lon="103.355739"><ele>1685.77</ele><time>2026-05-29T19:41:16.000Z</time></trkpt>
        <trkpt lat="29.5506219" lon="103.355748"><ele>1685.02</ele><time>2026-05-29T19:41:26.000Z</time></trkpt>
        <trkpt lat="29.5507242" lon="103.3557425"><ele>1684.48</ele><time>2026-05-29T19:41:36.000Z</time></trkpt>
        <trkpt lat="29.5508197" lon="103.3557128"><ele>1683.97</ele><time>2026-05-29T19:41:46.000Z</time></trkpt>
        <trkpt lat="29.5509136" lon="103.3556569"><ele>1683.05</ele><time>2026-05-29T19:41:56.000Z</time></trkpt>
        <trkpt lat="29.5510097" lon="103.3556099"><ele>1681.91</ele><time>2026-05-29T19:42:08.000Z</time></trkpt>
        <trkpt lat="29.5511011" lon="103.3555624"><ele>1680.22</ele><time>2026-05-29T19:42:18.000Z</time></trkpt>
        <trkpt lat="29.5511793" lon="103.3554983"><ele>1678.96</ele><time>2026-05-29T19:42:36.000Z</time></trkpt>
        <trkpt lat="29.5512514" lon="103.3554341"><ele>1676.3</ele><time>2026-05-29T19:42:46.000Z</time></trkpt>
        <trkpt lat="29.5513106" lon="103.3553482"><ele>1673.78</ele><time>2026-05-29T19:43:00.000Z</time></trkpt>
        <trkpt lat="29.5513574" lon="103.3552548"><ele>1671.11</ele><time>2026-05-29T19:43:20.000Z</time></trkpt>
        <trkpt lat="29.5514136" lon="103.3551545"><ele>1668.6</ele><time>2026-05-29T19:43:32.000Z</time></trkpt>
        <trkpt lat="29.5514644" lon="103.3550528"><ele>1666.38</ele><time>2026-05-29T19:43:40.000Z</time></trkpt>
        <trkpt lat="29.5515265" lon="103.3549575"><ele>1664.02</ele><time>2026-05-29T19:43:50.000Z</time></trkpt>
        <trkpt lat="29.5515714" lon="103.3548535"><ele>1662.37</ele><time>2026-05-29T19:44:00.000Z</time></trkpt>
        <trkpt lat="29.5516011" lon="103.3547522"><ele>1660.93</ele><time>2026-05-29T19:44:12.000Z</time></trkpt>
        <trkpt lat="29.5516446" lon="103.354658"><ele>1659.22</ele><time>2026-05-29T19:44:24.000Z</time></trkpt>
        <trkpt lat="29.5517044" lon="103.3545665"><ele>1657.14</ele><time>2026-05-29T19:44:34.000Z</time></trkpt>
        <trkpt lat="29.5517628" lon="103.3544814"><ele>1655.34</ele><time>2026-05-29T19:44:44.000Z</time></trkpt>
        <trkpt lat="29.5518241" lon="103.354404"><ele>1654</ele><time>2026-05-29T19:44:56.000Z</time></trkpt>
        <trkpt lat="29.5518259" lon="103.3543003"><ele>1652.65</ele><time>2026-05-29T19:45:12.000Z</time></trkpt>
        <trkpt lat="29.5518427" lon="103.354192"><ele>1651.02</ele><time>2026-05-29T19:45:22.000Z</time></trkpt>
        <trkpt lat="29.5519068" lon="103.3541117"><ele>1649.54</ele><time>2026-05-29T19:45:34.000Z</time></trkpt>
        <trkpt lat="29.551946" lon="103.3540138"><ele>1647.67</ele><time>2026-05-29T19:46:00.000Z</time></trkpt>
        <trkpt lat="29.5518951" lon="103.3539314"><ele>1645.85</ele><time>2026-05-29T19:46:12.000Z</time></trkpt>
        <trkpt lat="29.5518474" lon="103.3538205"><ele>1644.64</ele><time>2026-05-29T19:46:22.000Z</time></trkpt>
        <trkpt lat="29.5517699" lon="103.3537273"><ele>1643.51</ele><time>2026-05-29T19:46:32.000Z</time></trkpt>
        <trkpt lat="29.5517014" lon="103.3536303"><ele>1642.44</ele><time>2026-05-29T19:46:40.000Z</time></trkpt>
        <trkpt lat="29.5516878" lon="103.3535258"><ele>1641.44</ele><time>2026-05-29T19:46:50.000Z</time></trkpt>
        <trkpt lat="29.551714" lon="103.353413"><ele>1640.4</ele><time>2026-05-29T19:47:04.000Z</time></trkpt>
        <trkpt lat="29.5517522" lon="103.3533032"><ele>1639.42</ele><time>2026-05-29T19:47:14.000Z</time></trkpt>
        <trkpt lat="29.5517986" lon="103.3532067"><ele>1638.24</ele><time>2026-05-29T19:47:24.000Z</time></trkpt>
        <trkpt lat="29.5518125" lon="103.3531038"><ele>1637.27</ele><time>2026-05-29T19:47:34.000Z</time></trkpt>
        <trkpt lat="29.551827" lon="103.3529979"><ele>1636.42</ele><time>2026-05-29T19:47:54.000Z</time></trkpt>
        <trkpt lat="29.5518699" lon="103.3529081"><ele>1635.45</ele><time>2026-05-29T19:48:12.000Z</time></trkpt>
        <trkpt lat="29.551935" lon="103.3528302"><ele>1634.48</ele><time>2026-05-29T19:48:32.000Z</time></trkpt>
        <trkpt lat="29.5520241" lon="103.3527729"><ele>1633.49</ele><time>2026-05-29T19:48:56.000Z</time></trkpt>
        <trkpt lat="29.5521229" lon="103.3527853"><ele>1631.6</ele><time>2026-05-29T19:49:16.000Z</time></trkpt>
        <trkpt lat="29.5522185" lon="103.3527926"><ele>1628.8</ele><time>2026-05-29T19:49:34.000Z</time></trkpt>
        <trkpt lat="29.5522297" lon="103.3527132"><ele>1625.52</ele><time>2026-05-29T19:50:02.000Z</time></trkpt>
        <trkpt lat="29.5522435" lon="103.3526113"><ele>1622.07</ele><time>2026-05-29T19:50:22.000Z</time></trkpt>
        <trkpt lat="29.5522425" lon="103.3524991"><ele>1619.3</ele><time>2026-05-29T19:50:50.000Z</time></trkpt>
        <trkpt lat="29.5522969" lon="103.3524206"><ele>1616.49</ele><time>2026-05-29T19:51:22.000Z</time></trkpt>
        <trkpt lat="29.5524222" lon="103.352391"><ele>1608.73</ele><time>2026-05-29T19:51:44.000Z</time></trkpt>
        <trkpt lat="29.5525312" lon="103.3523959"><ele>1600.91</ele><time>2026-05-29T19:52:14.000Z</time></trkpt>
        <trkpt lat="29.5526251" lon="103.3523759"><ele>1596.05</ele><time>2026-05-29T19:52:40.000Z</time></trkpt>
        <trkpt lat="29.5527203" lon="103.3523834"><ele>1593.33</ele><time>2026-05-29T19:52:54.000Z</time></trkpt>
        <trkpt lat="29.5528216" lon="103.3524062"><ele>1591.88</ele><time>2026-05-29T19:53:08.000Z</time></trkpt>
        <trkpt lat="29.552905" lon="103.3524673"><ele>1591.11</ele><time>2026-05-29T19:53:20.000Z</time></trkpt>
        <trkpt lat="29.5529585" lon="103.3525635"><ele>1590.66</ele><time>2026-05-29T19:53:32.000Z</time></trkpt>
        <trkpt lat="29.5530376" lon="103.3526064"><ele>1590.53</ele><time>2026-05-29T19:53:48.000Z</time></trkpt>
        <trkpt lat="29.5531081" lon="103.3526722"><ele>1590.51</ele><time>2026-05-29T19:54:02.000Z</time></trkpt>
        <trkpt lat="29.5532053" lon="103.3527072"><ele>1591.56</ele><time>2026-05-29T19:54:14.000Z</time></trkpt>
        <trkpt lat="29.5533067" lon="103.3527074"><ele>1593.09</ele><time>2026-05-29T19:54:24.000Z</time></trkpt>
        <trkpt lat="29.5533998" lon="103.3526388"><ele>1594.33</ele><time>2026-05-29T19:54:38.000Z</time></trkpt>
        <trkpt lat="29.553489" lon="103.3525936"><ele>1594.59</ele><time>2026-05-29T19:54:48.000Z</time></trkpt>
        <trkpt lat="29.5535781" lon="103.3525621"><ele>1594.06</ele><time>2026-05-29T19:55:10.000Z</time></trkpt>
        <trkpt lat="29.5536702" lon="103.352537"><ele>1592.35</ele><time>2026-05-29T19:55:22.000Z</time></trkpt>
        <trkpt lat="29.5537679" lon="103.3524914"><ele>1591.37</ele><time>2026-05-29T19:55:34.000Z</time></trkpt>
        <trkpt lat="29.5538654" lon="103.3525238"><ele>1590.29</ele><time>2026-05-29T19:56:42.000Z</time></trkpt>
        <trkpt lat="29.5539169" lon="103.352623"><ele>1590.38</ele><time>2026-05-29T19:56:56.000Z</time></trkpt>
        <trkpt lat="29.5540104" lon="103.3526318"><ele>1591.08</ele><time>2026-05-29T19:57:12.000Z</time></trkpt>
        <trkpt lat="29.5541113" lon="103.3526364"><ele>1591.19</ele><time>2026-05-29T19:57:20.000Z</time></trkpt>
        <trkpt lat="29.5542147" lon="103.3526564"><ele>1591.31</ele><time>2026-05-29T19:57:32.000Z</time></trkpt>
        <trkpt lat="29.5543125" lon="103.3526661"><ele>1591.35</ele><time>2026-05-29T19:57:48.000Z</time></trkpt>
        <trkpt lat="29.5544118" lon="103.3526725"><ele>1591.47</ele><time>2026-05-29T19:58:02.000Z</time></trkpt>
        <trkpt lat="29.5545099" lon="103.3527014"><ele>1591.69</ele><time>2026-05-29T19:58:34.000Z</time></trkpt>
        <trkpt lat="29.5545172" lon="103.3528023"><ele>1591.65</ele><time>2026-05-29T19:58:46.000Z</time></trkpt>
        <trkpt lat="29.554517" lon="103.352917"><ele>1591.59</ele><time>2026-05-29T19:58:54.000Z</time></trkpt>
        <trkpt lat="29.5545377" lon="103.3530267"><ele>1591.69</ele><time>2026-05-29T19:59:08.000Z</time></trkpt>
        <trkpt lat="29.5546021" lon="103.353097"><ele>1592</ele><time>2026-05-29T19:59:40.000Z</time></trkpt>
        <trkpt lat="29.5546642" lon="103.3531917"><ele>1594.79</ele><time>2026-05-29T20:00:18.000Z</time></trkpt>
        <trkpt lat="29.5546761" lon="103.3532967"><ele>1597.46</ele><time>2026-05-29T20:00:32.000Z</time></trkpt>
        <trkpt lat="29.5546944" lon="103.3534107"><ele>1599.64</ele><time>2026-05-29T20:00:48.000Z</time></trkpt>
        <trkpt lat="29.5546843" lon="103.353527"><ele>1602.42</ele><time>2026-05-29T20:00:58.000Z</time></trkpt>
        <trkpt lat="29.5546689" lon="103.3536376"><ele>1605.83</ele><time>2026-05-29T20:01:08.000Z</time></trkpt>
        <trkpt lat="29.5547138" lon="103.3537167"><ele>1608.85</ele><time>2026-05-29T20:01:22.000Z</time></trkpt>
        <trkpt lat="29.5548036" lon="103.3537385"><ele>1610.91</ele><time>2026-05-29T20:01:28.000Z</time></trkpt>
        <trkpt lat="29.5549057" lon="103.353718"><ele>1612.01</ele><time>2026-05-29T20:01:42.000Z</time></trkpt>
        <trkpt lat="29.554977" lon="103.3536404"><ele>1612.17</ele><time>2026-05-29T20:01:58.000Z</time></trkpt>
        <trkpt lat="29.5550573" lon="103.3535635"><ele>1611.49</ele><time>2026-05-29T20:02:16.000Z</time></trkpt>
        <trkpt lat="29.5551382" lon="103.3534982"><ele>1610.39</ele><time>2026-05-29T20:02:30.000Z</time></trkpt>
        <trkpt lat="29.5552104" lon="103.3534284"><ele>1609.38</ele><time>2026-05-29T20:02:42.000Z</time></trkpt>
        <trkpt lat="29.5552949" lon="103.3533809"><ele>1608.1</ele><time>2026-05-29T20:02:52.000Z</time></trkpt>
        <trkpt lat="29.5553987" lon="103.3533766"><ele>1606.27</ele><time>2026-05-29T20:03:02.000Z</time></trkpt>
        <trkpt lat="29.5555018" lon="103.3533758"><ele>1605.36</ele><time>2026-05-29T20:03:14.000Z</time></trkpt>
        <trkpt lat="29.5556048" lon="103.3533505"><ele>1603.92</ele><time>2026-05-29T20:03:28.000Z</time></trkpt>
        <trkpt lat="29.5557085" lon="103.3533375"><ele>1601.33</ele><time>2026-05-29T20:03:40.000Z</time></trkpt>
        <trkpt lat="29.555805" lon="103.3533581"><ele>1598.93</ele><time>2026-05-29T20:03:50.000Z</time></trkpt>
        <trkpt lat="29.5558957" lon="103.3534193"><ele>1597.12</ele><time>2026-05-29T20:04:02.000Z</time></trkpt>
        <trkpt lat="29.5559789" lon="103.3534759"><ele>1595.62</ele><time>2026-05-29T20:04:10.000Z</time></trkpt>
        <trkpt lat="29.556067" lon="103.3535219"><ele>1594.77</ele><time>2026-05-29T20:04:22.000Z</time></trkpt>
        <trkpt lat="29.5561561" lon="103.3535052"><ele>1593.76</ele><time>2026-05-29T20:04:40.000Z</time></trkpt>
        <trkpt lat="29.5562456" lon="103.3534882"><ele>1593.26</ele><time>2026-05-29T20:05:22.000Z</time></trkpt>
        <trkpt lat="29.5563167" lon="103.3534229"><ele>1593.52</ele><time>2026-05-29T20:05:36.000Z</time></trkpt>
        <trkpt lat="29.556368" lon="103.3533187"><ele>1593.28</ele><time>2026-05-29T20:05:48.000Z</time></trkpt>
        <trkpt lat="29.5564347" lon="103.3532155"><ele>1592.79</ele><time>2026-05-29T20:05:58.000Z</time></trkpt>
        <trkpt lat="29.5565143" lon="103.3531509"><ele>1592.54</ele><time>2026-05-29T20:06:06.000Z</time></trkpt>
        <trkpt lat="29.5566058" lon="103.3530855"><ele>1592.25</ele><time>2026-05-29T20:06:18.000Z</time></trkpt>
        <trkpt lat="29.5566953" lon="103.3530243"><ele>1591.56</ele><time>2026-05-29T20:06:30.000Z</time></trkpt>
        <trkpt lat="29.5567772" lon="103.3529529"><ele>1591.39</ele><time>2026-05-29T20:06:46.000Z</time></trkpt>
        <trkpt lat="29.5568229" lon="103.3528485"><ele>1589.82</ele><time>2026-05-29T20:06:58.000Z</time></trkpt>
        <trkpt lat="29.5568628" lon="103.3527438"><ele>1587.99</ele><time>2026-05-29T20:07:10.000Z</time></trkpt>
        <trkpt lat="29.556907" lon="103.3526468"><ele>1586.18</ele><time>2026-05-29T20:07:20.000Z</time></trkpt>
        <trkpt lat="29.5569785" lon="103.3525764"><ele>1584.75</ele><time>2026-05-29T20:07:34.000Z</time></trkpt>
        <trkpt lat="29.5570619" lon="103.3525275"><ele>1583.61</ele><time>2026-05-29T20:07:44.000Z</time></trkpt>
        <trkpt lat="29.5571399" lon="103.3524564"><ele>1582.17</ele><time>2026-05-29T20:08:29.000Z</time></trkpt>
        <trkpt lat="29.5572088" lon="103.3523809"><ele>1579.96</ele><time>2026-05-29T20:08:45.000Z</time></trkpt>
        <trkpt lat="29.5572655" lon="103.3522926"><ele>1577.56</ele><time>2026-05-29T20:09:07.000Z</time></trkpt>
        <trkpt lat="29.5573423" lon="103.3522172"><ele>1574.11</ele><time>2026-05-29T20:09:21.000Z</time></trkpt>
        <trkpt lat="29.5574202" lon="103.3521359"><ele>1571.86</ele><time>2026-05-29T20:09:39.000Z</time></trkpt>
        <trkpt lat="29.5574862" lon="103.3520522"><ele>1570.14</ele><time>2026-05-29T20:10:01.000Z</time></trkpt>
        <trkpt lat="29.5575204" lon="103.3519449"><ele>1569.18</ele><time>2026-05-29T20:10:13.000Z</time></trkpt>
        <trkpt lat="29.5575261" lon="103.3518292"><ele>1568.25</ele><time>2026-05-29T20:10:27.000Z</time></trkpt>
        <trkpt lat="29.5575793" lon="103.351752"><ele>1567.08</ele><time>2026-05-29T20:10:39.000Z</time></trkpt>
        <trkpt lat="29.5576037" lon="103.3517302"><ele>1566.3</ele><time>2026-05-29T20:10:41.000Z</time></trkpt>
        <trkpt lat="29.557615" lon="103.3516526"><ele>1565.82</ele><time>2026-05-29T20:10:59.000Z</time></trkpt>
        <trkpt lat="29.5576209" lon="103.3515509"><ele>1564.82</ele><time>2026-05-29T20:11:26.000Z</time></trkpt>
        <trkpt lat="29.557682" lon="103.3514815"><ele>1562.45</ele><time>2026-05-29T20:11:38.000Z</time></trkpt>
        <trkpt lat="29.55778" lon="103.3514774"><ele>1559.93</ele><time>2026-05-29T20:11:52.000Z</time></trkpt>
        <trkpt lat="29.557886" lon="103.3514906"><ele>1558.01</ele><time>2026-05-29T20:12:04.000Z</time></trkpt>
        <trkpt lat="29.5579845" lon="103.3515118"><ele>1555.96</ele><time>2026-05-29T20:12:18.000Z</time></trkpt>
        <trkpt lat="29.558078" lon="103.3515445"><ele>1554.67</ele><time>2026-05-29T20:12:32.000Z</time></trkpt>
        <trkpt lat="29.5581746" lon="103.3515448"><ele>1553.24</ele><time>2026-05-29T20:12:50.000Z</time></trkpt>
        <trkpt lat="29.5582607" lon="103.3515029"><ele>1552</ele><time>2026-05-29T20:13:06.000Z</time></trkpt>
        <trkpt lat="29.5583457" lon="103.3514522"><ele>1551.04</ele><time>2026-05-29T20:13:16.000Z</time></trkpt>
        <trkpt lat="29.5584335" lon="103.3514068"><ele>1550.14</ele><time>2026-05-29T20:13:30.000Z</time></trkpt>
        <trkpt lat="29.5585285" lon="103.3513595"><ele>1549.11</ele><time>2026-05-29T20:13:40.000Z</time></trkpt>
        <trkpt lat="29.5586188" lon="103.3512951"><ele>1548.14</ele><time>2026-05-29T20:13:52.000Z</time></trkpt>
        <trkpt lat="29.5586956" lon="103.3512307"><ele>1547.17</ele><time>2026-05-29T20:14:02.000Z</time></trkpt>
        <trkpt lat="29.5587862" lon="103.3511961"><ele>1545.97</ele><time>2026-05-29T20:14:18.000Z</time></trkpt>
        <trkpt lat="29.5588596" lon="103.3511272"><ele>1544.42</ele><time>2026-05-29T20:14:28.000Z</time></trkpt>
        <trkpt lat="29.558935" lon="103.3510559"><ele>1542.48</ele><time>2026-05-29T20:14:38.000Z</time></trkpt>
        <trkpt lat="29.558999" lon="103.3509621"><ele>1540.8</ele><time>2026-05-29T20:14:52.000Z</time></trkpt>
        <trkpt lat="29.5590591" lon="103.3508664"><ele>1539.78</ele><time>2026-05-29T20:15:08.000Z</time></trkpt>
        <trkpt lat="29.55913" lon="103.3507947"><ele>1539.01</ele><time>2026-05-29T20:15:16.000Z</time></trkpt>
        <trkpt lat="29.5592185" lon="103.3507729"><ele>1538.59</ele><time>2026-05-29T20:15:26.000Z</time></trkpt>
        <trkpt lat="29.5593101" lon="103.3507512"><ele>1538.61</ele><time>2026-05-29T20:15:44.000Z</time></trkpt>
        <trkpt lat="29.5593933" lon="103.3506978"><ele>1538</ele><time>2026-05-29T20:15:56.000Z</time></trkpt>
        <trkpt lat="29.5594654" lon="103.3506255"><ele>1536.71</ele><time>2026-05-29T20:16:22.000Z</time></trkpt>
        <trkpt lat="29.5595479" lon="103.3505699"><ele>1535.8</ele><time>2026-05-29T20:16:34.000Z</time></trkpt>
        <trkpt lat="29.5596248" lon="103.3505048"><ele>1534.77</ele><time>2026-05-29T20:16:46.000Z</time></trkpt>
        <trkpt lat="29.5596909" lon="103.3504245"><ele>1533.7</ele><time>2026-05-29T20:17:08.000Z</time></trkpt>
        <trkpt lat="29.5597703" lon="103.3503737"><ele>1532.63</ele><time>2026-05-29T20:17:46.000Z</time></trkpt>
        <trkpt lat="29.559864" lon="103.3503723"><ele>1532.38</ele><time>2026-05-29T20:18:58.000Z</time></trkpt>
        <trkpt lat="29.5599518" lon="103.3503418"><ele>1534.11</ele><time>2026-05-29T20:19:34.000Z</time></trkpt>
        <trkpt lat="29.5600347" lon="103.3503823"><ele>1537.06</ele><time>2026-05-29T20:20:34.000Z</time></trkpt>
        <trkpt lat="29.5601079" lon="103.3504471"><ele>1539.83</ele><time>2026-05-29T20:21:22.000Z</time></trkpt>
        <trkpt lat="29.560168" lon="103.3505314"><ele>1542.35</ele><time>2026-05-29T20:21:52.000Z</time></trkpt>
        <trkpt lat="29.5602055" lon="103.350647"><ele>1545.15</ele><time>2026-05-29T20:23:06.000Z</time></trkpt>
        <trkpt lat="29.5602303" lon="103.3507538"><ele>1547.93</ele><time>2026-05-29T20:24:10.000Z</time></trkpt>
        <trkpt lat="29.5602398" lon="103.3508606"><ele>1553.5</ele><time>2026-05-29T20:24:32.000Z</time></trkpt>
        <trkpt lat="29.5602735" lon="103.3509739"><ele>1559.15</ele><time>2026-05-29T20:25:14.000Z</time></trkpt>
        <trkpt lat="29.5602865" lon="103.3510824"><ele>1564.06</ele><time>2026-05-29T20:25:34.000Z</time></trkpt>
        <trkpt lat="29.5603771" lon="103.3510818"><ele>1567.7</ele><time>2026-05-29T20:28:16.000Z</time></trkpt>
        <trkpt lat="29.5604725" lon="103.3510818"><ele>1577.29</ele><time>2026-05-29T20:28:50.000Z</time></trkpt>
        <trkpt lat="29.5605564" lon="103.3511276"><ele>1584.01</ele><time>2026-05-29T20:32:02.000Z</time></trkpt>
        <trkpt lat="29.5605812" lon="103.3512344"><ele>1592.78</ele><time>2026-05-29T20:33:08.000Z</time></trkpt>
        <trkpt lat="29.5606651" lon="103.3512726"><ele>1602.87</ele><time>2026-05-29T20:35:08.000Z</time></trkpt>
        <trkpt lat="29.5606289" lon="103.3513718"><ele>1613.91</ele><time>2026-05-29T20:35:48.000Z</time></trkpt>
        <trkpt lat="29.5605749" lon="103.3514709"><ele>1624.05</ele><time>2026-05-29T20:36:08.000Z</time></trkpt>
        <trkpt lat="29.560503" lon="103.3515466"><ele>1631.73</ele><time>2026-05-29T20:36:26.000Z</time></trkpt>
        <trkpt lat="29.5605346" lon="103.3516148"><ele>1636.68</ele><time>2026-05-29T20:37:10.000Z</time></trkpt>
        <trkpt lat="29.5606346" lon="103.3515396"><ele>1640.66</ele><time>2026-05-29T20:38:30.000Z</time></trkpt>
        <trkpt lat="29.5607243" lon="103.351532"><ele>1647.83</ele><time>2026-05-29T20:38:52.000Z</time></trkpt>
        <trkpt lat="29.5608107" lon="103.3514856"><ele>1653.27</ele><time>2026-05-29T20:39:24.000Z</time></trkpt>
        <trkpt lat="29.5609016" lon="103.3514862"><ele>1657.74</ele><time>2026-05-29T20:42:43.000Z</time></trkpt>
        <trkpt lat="29.5609684" lon="103.3515625"><ele>1660.14</ele><time>2026-05-29T20:46:07.000Z</time></trkpt>
        <trkpt lat="29.5610466" lon="103.3516159"><ele>1662.8</ele><time>2026-05-29T20:46:25.000Z</time></trkpt>
        <trkpt lat="29.561142" lon="103.3516083"><ele>1664.31</ele><time>2026-05-29T20:47:48.000Z</time></trkpt>
        <trkpt lat="29.5612316" lon="103.3516159"><ele>1664.38</ele><time>2026-05-29T20:47:58.000Z</time></trkpt>
        <trkpt lat="29.5613213" lon="103.35163"><ele>1664.29</ele><time>2026-05-29T20:48:10.000Z</time></trkpt>
        <trkpt lat="29.5614065" lon="103.3516688"><ele>1664.48</ele><time>2026-05-29T20:48:52.000Z</time></trkpt>
        <trkpt lat="29.561453" lon="103.3517555"><ele>1666.11</ele><time>2026-05-29T20:49:32.000Z</time></trkpt>
        <trkpt lat="29.5614548" lon="103.3518906"><ele>1667.78</ele><time>2026-05-29T20:50:40.000Z</time></trkpt>
        <trkpt lat="29.5615368" lon="103.3519516"><ele>1671.94</ele><time>2026-05-29T20:51:56.000Z</time></trkpt>
        <trkpt lat="29.5615635" lon="103.3519592"><ele>1677.42</ele><time>2026-05-29T20:52:02.000Z</time></trkpt>
        <trkpt lat="29.5616451" lon="103.3519669"><ele>1680.85</ele><time>2026-05-29T20:52:24.000Z</time></trkpt>
        <trkpt lat="29.5617202" lon="103.3520275"><ele>1685.07</ele><time>2026-05-29T20:52:54.000Z</time></trkpt>
        <trkpt lat="29.5617542" lon="103.35215"><ele>1689.06</ele><time>2026-05-29T20:54:50.000Z</time></trkpt>
        <trkpt lat="29.5618362" lon="103.3521957"><ele>1697.09</ele><time>2026-05-29T20:55:24.000Z</time></trkpt>
        <trkpt lat="29.5619263" lon="103.3522157"><ele>1703.77</ele><time>2026-05-29T20:55:52.000Z</time></trkpt>
        <trkpt lat="29.5620178" lon="103.3522429"><ele>1709.09</ele><time>2026-05-29T20:56:44.000Z</time></trkpt>
        <trkpt lat="29.562107" lon="103.3522319"><ele>1712.49</ele><time>2026-05-29T20:57:02.000Z</time></trkpt>
        <trkpt lat="29.5621994" lon="103.3522132"><ele>1715.84</ele><time>2026-05-29T20:57:42.000Z</time></trkpt>
        <trkpt lat="29.5622944" lon="103.3521936"><ele>1719.52</ele><time>2026-05-29T20:58:22.000Z</time></trkpt>
        <trkpt lat="29.5623888" lon="103.3521753"><ele>1723.29</ele><time>2026-05-29T20:59:06.000Z</time></trkpt>
        <trkpt lat="29.5624741" lon="103.3522043"><ele>1728.39</ele><time>2026-05-29T20:59:48.000Z</time></trkpt>
        <trkpt lat="29.5625668" lon="103.3522263"><ele>1732.43</ele><time>2026-05-29T21:00:54.000Z</time></trkpt>
        <trkpt lat="29.5626526" lon="103.3522568"><ele>1735.98</ele><time>2026-05-29T21:01:42.000Z</time></trkpt>
        <trkpt lat="29.5627174" lon="103.3521969"><ele>1740.23</ele><time>2026-05-29T21:01:58.000Z</time></trkpt>
        <trkpt lat="29.5627108" lon="103.3520916"><ele>1744.22</ele><time>2026-05-29T21:02:06.000Z</time></trkpt>
        <trkpt lat="29.5626703" lon="103.3519889"><ele>1748.14</ele><time>2026-05-29T21:02:16.000Z</time></trkpt>
        <trkpt lat="29.56262" lon="103.3518781"><ele>1751.54</ele><time>2026-05-29T21:02:28.000Z</time></trkpt>
        <trkpt lat="29.5625456" lon="103.3517896"><ele>1754.82</ele><time>2026-05-29T21:02:38.000Z</time></trkpt>
        <trkpt lat="29.5625039" lon="103.3517281"><ele>1757.12</ele><time>2026-05-29T21:02:50.000Z</time></trkpt>
        <trkpt lat="29.5625668" lon="103.3516617"><ele>1758.85</ele><time>2026-05-29T21:03:56.000Z</time></trkpt>
        <trkpt lat="29.5626259" lon="103.3515778"><ele>1760.48</ele><time>2026-05-29T21:04:32.000Z</time></trkpt>
        <trkpt lat="29.5626753" lon="103.3514809"><ele>1761.7</ele><time>2026-05-29T21:05:02.000Z</time></trkpt>
        <trkpt lat="29.5627039" lon="103.3513759"><ele>1763.41</ele><time>2026-05-29T21:05:12.000Z</time></trkpt>
        <trkpt lat="29.5627331" lon="103.351274"><ele>1765.45</ele><time>2026-05-29T21:05:28.000Z</time></trkpt>
        <trkpt lat="29.5627704" lon="103.3511679"><ele>1767.67</ele><time>2026-05-29T21:05:46.000Z</time></trkpt>
        <trkpt lat="29.56282" lon="103.3510777"><ele>1770.51</ele><time>2026-05-29T21:06:06.000Z</time></trkpt>
        <trkpt lat="29.5628324" lon="103.3509708"><ele>1773.69</ele><time>2026-05-29T21:06:30.000Z</time></trkpt>
        <trkpt lat="29.5628334" lon="103.3508627"><ele>1777.18</ele><time>2026-05-29T21:06:48.000Z</time></trkpt>
        <trkpt lat="29.5628404" lon="103.3507549"><ele>1780.03</ele><time>2026-05-29T21:07:38.000Z</time></trkpt>
        <trkpt lat="29.5628014" lon="103.350647"><ele>1784.68</ele><time>2026-05-29T21:10:56.000Z</time></trkpt>
        <trkpt lat="29.5627975" lon="103.3505325"><ele>1787.91</ele><time>2026-05-29T21:11:06.000Z</time></trkpt>
        <trkpt lat="29.5628115" lon="103.3504116"><ele>1789.75</ele><time>2026-05-29T21:11:18.000Z</time></trkpt>
        <trkpt lat="29.5628256" lon="103.3503014"><ele>1790.13</ele><time>2026-05-29T21:11:28.000Z</time></trkpt>
        <trkpt lat="29.5628672" lon="103.3501944"><ele>1789.92</ele><time>2026-05-29T21:11:38.000Z</time></trkpt>
        <trkpt lat="29.5629155" lon="103.3500941"><ele>1789.56</ele><time>2026-05-29T21:11:46.000Z</time></trkpt>
        <trkpt lat="29.5629532" lon="103.3499959"><ele>1789.06</ele><time>2026-05-29T21:11:56.000Z</time></trkpt>
        <trkpt lat="29.5629557" lon="103.3498807"><ele>1788.45</ele><time>2026-05-29T21:12:06.000Z</time></trkpt>
        <trkpt lat="29.5629695" lon="103.3497645"><ele>1787.74</ele><time>2026-05-29T21:12:16.000Z</time></trkpt>
        <trkpt lat="29.5629966" lon="103.3496602"><ele>1787.11</ele><time>2026-05-29T21:12:26.000Z</time></trkpt>
        <trkpt lat="29.5630345" lon="103.3495549"><ele>1786.55</ele><time>2026-05-29T21:12:38.000Z</time></trkpt>
        <trkpt lat="29.5630945" lon="103.3494603"><ele>1786.26</ele><time>2026-05-29T21:12:50.000Z</time></trkpt>
        <trkpt lat="29.5631316" lon="103.349358"><ele>1785.84</ele><time>2026-05-29T21:13:00.000Z</time></trkpt>
        <trkpt lat="29.5631687" lon="103.3492522"><ele>1785.47</ele><time>2026-05-29T21:13:10.000Z</time></trkpt>
        <trkpt lat="29.5631933" lon="103.3491967"><ele>1785.38</ele><time>2026-05-29T21:13:14.000Z</time></trkpt>
        <trkpt lat="29.5632178" lon="103.3491083"><ele>1785.31</ele><time>2026-05-29T21:13:24.000Z</time></trkpt>
        <trkpt lat="29.5632173" lon="103.3489994"><ele>1785.04</ele><time>2026-05-29T21:13:36.000Z</time></trkpt>
        <trkpt lat="29.5632395" lon="103.3488893"><ele>1784.97</ele><time>2026-05-29T21:13:50.000Z</time></trkpt>
        <trkpt lat="29.5632359" lon="103.34878"><ele>1784.95</ele><time>2026-05-29T21:14:00.000Z</time></trkpt>
        <trkpt lat="29.5632152" lon="103.3486718"><ele>1784.88</ele><time>2026-05-29T21:14:10.000Z</time></trkpt>
        <trkpt lat="29.5632196" lon="103.3485643"><ele>1784.89</ele><time>2026-05-29T21:14:20.000Z</time></trkpt>
        <trkpt lat="29.5632362" lon="103.3484573"><ele>1784.89</ele><time>2026-05-29T21:14:28.000Z</time></trkpt>
        <trkpt lat="29.5632639" lon="103.348339"><ele>1785.31</ele><time>2026-05-29T21:14:40.000Z</time></trkpt>
        <trkpt lat="29.5633247" lon="103.3482509"><ele>1785.94</ele><time>2026-05-29T21:14:50.000Z</time></trkpt>
        <trkpt lat="29.5633879" lon="103.3481631"><ele>1786.58</ele><time>2026-05-29T21:15:06.000Z</time></trkpt>
        <trkpt lat="29.5634253" lon="103.3480912"><ele>1787.56</ele><time>2026-05-29T21:15:12.000Z</time></trkpt>
        <trkpt lat="29.5634733" lon="103.3480072"><ele>1788.25</ele><time>2026-05-29T21:15:22.000Z</time></trkpt>
        <trkpt lat="29.5635344" lon="103.3479175"><ele>1788.76</ele><time>2026-05-29T21:15:32.000Z</time></trkpt>
        <trkpt lat="29.5635715" lon="103.3478028"><ele>1789.36</ele><time>2026-05-29T21:15:46.000Z</time></trkpt>
        <trkpt lat="29.5635774" lon="103.3476851"><ele>1790.1</ele><time>2026-05-29T21:15:58.000Z</time></trkpt>
        <trkpt lat="29.5635728" lon="103.3475734"><ele>1790.42</ele><time>2026-05-29T21:16:08.000Z</time></trkpt>
        <trkpt lat="29.5635637" lon="103.347465"><ele>1790.49</ele><time>2026-05-29T21:16:22.000Z</time></trkpt>
        <trkpt lat="29.5635246" lon="103.3473695"><ele>1789.61</ele><time>2026-05-29T21:16:30.000Z</time></trkpt>
        <trkpt lat="29.5634642" lon="103.3472728"><ele>1788.48</ele><time>2026-05-29T21:16:42.000Z</time></trkpt>
        <trkpt lat="29.5633925" lon="103.3471921"><ele>1787.57</ele><time>2026-05-29T21:16:54.000Z</time></trkpt>
        <trkpt lat="29.5633134" lon="103.3471227"><ele>1786.95</ele><time>2026-05-29T21:17:04.000Z</time></trkpt>
        <trkpt lat="29.5632248" lon="103.3470678"><ele>1787.25</ele><time>2026-05-29T21:17:14.000Z</time></trkpt>
        <trkpt lat="29.5631571" lon="103.3469942"><ele>1787.22</ele><time>2026-05-29T21:17:24.000Z</time></trkpt>
        <trkpt lat="29.563094" lon="103.3469122"><ele>1787.04</ele><time>2026-05-29T21:17:34.000Z</time></trkpt>
        <trkpt lat="29.5630277" lon="103.3468275"><ele>1786.76</ele><time>2026-05-29T21:17:48.000Z</time></trkpt>
        <trkpt lat="29.5629628" lon="103.3467424"><ele>1785.78</ele><time>2026-05-29T21:18:00.000Z</time></trkpt>
        <trkpt lat="29.5628938" lon="103.3466518"><ele>1784.61</ele><time>2026-05-29T21:18:12.000Z</time></trkpt>
        <trkpt lat="29.5628305" lon="103.3465481"><ele>1783.91</ele><time>2026-05-29T21:18:22.000Z</time></trkpt>
        <trkpt lat="29.5627608" lon="103.3464687"><ele>1783.7</ele><time>2026-05-29T21:18:32.000Z</time></trkpt>
        <trkpt lat="29.5626627" lon="103.3464393"><ele>1783.1</ele><time>2026-05-29T21:18:42.000Z</time></trkpt>
        <trkpt lat="29.562566" lon="103.3463871"><ele>1782.54</ele><time>2026-05-29T21:18:50.000Z</time></trkpt>
        <trkpt lat="29.5624857" lon="103.3463292"><ele>1782.18</ele><time>2026-05-29T21:19:00.000Z</time></trkpt>
        <trkpt lat="29.5624209" lon="103.3462516"><ele>1782.03</ele><time>2026-05-29T21:19:12.000Z</time></trkpt>
        <trkpt lat="29.5623584" lon="103.3461611"><ele>1780.95</ele><time>2026-05-29T21:19:22.000Z</time></trkpt>
        <trkpt lat="29.5622971" lon="103.3460785"><ele>1779.53</ele><time>2026-05-29T21:19:32.000Z</time></trkpt>
        <trkpt lat="29.5622527" lon="103.3459715"><ele>1778.74</ele><time>2026-05-29T21:19:42.000Z</time></trkpt>
        <trkpt lat="29.5622083" lon="103.3458672"><ele>1778.13</ele><time>2026-05-29T21:19:54.000Z</time></trkpt>
        <trkpt lat="29.5621383" lon="103.3457768"><ele>1777.1</ele><time>2026-05-29T21:20:04.000Z</time></trkpt>
        <trkpt lat="29.5620886" lon="103.345675"><ele>1776.16</ele><time>2026-05-29T21:20:14.000Z</time></trkpt>
        <trkpt lat="29.5620043" lon="103.3455973"><ele>1775.64</ele><time>2026-05-29T21:20:28.000Z</time></trkpt>
        <trkpt lat="29.5619039" lon="103.3455746"><ele>1775.22</ele><time>2026-05-29T21:20:38.000Z</time></trkpt>
        <trkpt lat="29.5618079" lon="103.3455708"><ele>1775.11</ele><time>2026-05-29T21:20:50.000Z</time></trkpt>
        <trkpt lat="29.5617067" lon="103.3455877"><ele>1775.06</ele><time>2026-05-29T21:21:04.000Z</time></trkpt>
        <trkpt lat="29.5616099" lon="103.3455575"><ele>1775.27</ele><time>2026-05-29T21:21:16.000Z</time></trkpt>
        <trkpt lat="29.5615268" lon="103.3455017"><ele>1775.69</ele><time>2026-05-29T21:21:26.000Z</time></trkpt>
        <trkpt lat="29.5614643" lon="103.3454056"><ele>1776.21</ele><time>2026-05-29T21:23:38.000Z</time></trkpt>
        <trkpt lat="29.5614052" lon="103.3453217"><ele>1776.15</ele><time>2026-05-29T21:23:48.000Z</time></trkpt>
        <trkpt lat="29.5613518" lon="103.3452377"><ele>1776.17</ele><time>2026-05-29T21:24:48.000Z</time></trkpt>
        <trkpt lat="29.561264" lon="103.3452072"><ele>1775.99</ele><time>2026-05-29T21:25:24.000Z</time></trkpt>
        <trkpt lat="29.5612221" lon="103.3451004"><ele>1776.69</ele><time>2026-05-29T21:26:28.000Z</time></trkpt>
        <trkpt lat="29.5611401" lon="103.345047"><ele>1778.25</ele><time>2026-05-29T21:27:24.000Z</time></trkpt>
        <trkpt lat="29.561058" lon="103.3450012"><ele>1780.5</ele><time>2026-05-29T21:28:58.000Z</time></trkpt>
        <trkpt lat="29.5609703" lon="103.3450317"><ele>1784.04</ele><time>2026-05-29T21:30:16.000Z</time></trkpt>
        <trkpt lat="29.5608768" lon="103.3450241"><ele>1787.92</ele><time>2026-05-29T21:31:02.000Z</time></trkpt>
        <trkpt lat="29.5608189" lon="103.3449455"><ele>1792.66</ele><time>2026-05-29T21:31:50.000Z</time></trkpt>
        <trkpt lat="29.5607319" lon="103.3449097"><ele>1797.33</ele><time>2026-05-29T21:33:48.000Z</time></trkpt>
        <trkpt lat="29.5607128" lon="103.3448029"><ele>1804.85</ele><time>2026-05-29T21:34:10.000Z</time></trkpt>
        <trkpt lat="29.5606744" lon="103.3447025"><ele>1812.75</ele><time>2026-05-29T21:34:52.000Z</time></trkpt>
        <trkpt lat="29.5605888" lon="103.3446503"><ele>1820.42</ele><time>2026-05-29T21:37:36.000Z</time></trkpt>
        <trkpt lat="29.5604973" lon="103.3446121"><ele>1826.67</ele><time>2026-05-29T21:38:02.000Z</time></trkpt>
        <trkpt lat="29.5604138" lon="103.3445546"><ele>1830.84</ele><time>2026-05-29T21:38:50.000Z</time></trkpt>
        <trkpt lat="29.5603288" lon="103.3444996"><ele>1835.11</ele><time>2026-05-29T21:39:22.000Z</time></trkpt>
        <trkpt lat="29.5602434" lon="103.3444509"><ele>1838.93</ele><time>2026-05-29T21:40:02.000Z</time></trkpt>
        <trkpt lat="29.5601778" lon="103.3443761"><ele>1842.4</ele><time>2026-05-29T21:40:50.000Z</time></trkpt>
        <trkpt lat="29.5601094" lon="103.3443031"><ele>1846.18</ele><time>2026-05-29T21:41:28.000Z</time></trkpt>
        <trkpt lat="29.5601692" lon="103.3442078"><ele>1850.43</ele><time>2026-05-29T21:42:50.000Z</time></trkpt>
        <trkpt lat="29.5600796" lon="103.3442001"><ele>1857.1</ele><time>2026-05-29T21:43:20.000Z</time></trkpt>
        <trkpt lat="29.5600719" lon="103.3440933"><ele>1863.3</ele><time>2026-05-29T21:44:36.000Z</time></trkpt>
        <trkpt lat="29.5601101" lon="103.3439636"><ele>1868.79</ele><time>2026-05-29T21:46:20.000Z</time></trkpt>
        <trkpt lat="29.5600662" lon="103.3438721"><ele>1876.1</ele><time>2026-05-29T21:47:58.000Z</time></trkpt>
        <trkpt lat="29.559988" lon="103.3438187"><ele>1883.8</ele><time>2026-05-29T21:48:32.000Z</time></trkpt>
        <trkpt lat="29.5599022" lon="103.3437729"><ele>1890.79</ele><time>2026-05-29T21:49:46.000Z</time></trkpt>
        <trkpt lat="29.559824" lon="103.3437119"><ele>1896.75</ele><time>2026-05-29T21:50:18.000Z</time></trkpt>
        <trkpt lat="29.5597522" lon="103.3436444"><ele>1902.36</ele><time>2026-05-29T21:50:44.000Z</time></trkpt>
        <trkpt lat="29.5596919" lon="103.3435639"><ele>1907.67</ele><time>2026-05-29T21:51:20.000Z</time></trkpt>
        <trkpt lat="29.5596066" lon="103.3435974"><ele>1912.46</ele><time>2026-05-29T21:52:30.000Z</time></trkpt>
        <trkpt lat="29.5595188" lon="103.3435593"><ele>1917.82</ele><time>2026-05-29T21:53:14.000Z</time></trkpt>
        <trkpt lat="29.5594359" lon="103.3435147"><ele>1922.76</ele><time>2026-05-29T21:53:42.000Z</time></trkpt>
        <trkpt lat="29.5593739" lon="103.3435898"><ele>1927.55</ele><time>2026-05-29T21:54:44.000Z</time></trkpt>
        <trkpt lat="29.5592804" lon="103.3435669"><ele>1932.38</ele><time>2026-05-29T21:56:02.000Z</time></trkpt>
        <trkpt lat="29.5592365" lon="103.3436661"><ele>1938.95</ele><time>2026-05-29T21:59:26.000Z</time></trkpt>
        <trkpt lat="29.5591946" lon="103.3437653"><ele>1944.46</ele><time>2026-05-29T21:59:58.000Z</time></trkpt>
        <trkpt lat="29.5591087" lon="103.3437271"><ele>1949.49</ele><time>2026-05-29T22:01:56.000Z</time></trkpt>
        <trkpt lat="29.559021" lon="103.3437042"><ele>1958.47</ele><time>2026-05-29T22:03:26.000Z</time></trkpt>
        <trkpt lat="29.5589314" lon="103.3437424"><ele>1969.25</ele><time>2026-05-29T22:04:00.000Z</time></trkpt>
        <trkpt lat="29.5588643" lon="103.3438128"><ele>1977.38</ele><time>2026-05-29T22:04:30.000Z</time></trkpt>
        <trkpt lat="29.5588675" lon="103.3439184"><ele>1984.15</ele><time>2026-05-29T22:04:42.000Z</time></trkpt>
        <trkpt lat="29.5588971" lon="103.3440294"><ele>1989.32</ele><time>2026-05-29T22:04:52.000Z</time></trkpt>
        <trkpt lat="29.5589252" lon="103.3441409"><ele>1993.01</ele><time>2026-05-29T22:05:08.000Z</time></trkpt>
        <trkpt lat="29.5588703" lon="103.344223"><ele>1996.21</ele><time>2026-05-29T22:06:14.000Z</time></trkpt>
        <trkpt lat="29.5588436" lon="103.3443222"><ele>2000.76</ele><time>2026-05-29T22:06:42.000Z</time></trkpt>
        <trkpt lat="29.5587911" lon="103.3442665"><ele>2006.84</ele><time>2026-05-29T22:07:02.000Z</time></trkpt>
        <trkpt lat="29.558706" lon="103.3442481"><ele>2012.55</ele><time>2026-05-29T22:07:38.000Z</time></trkpt>
        <trkpt lat="29.5586135" lon="103.3442348"><ele>2017.19</ele><time>2026-05-29T22:07:52.000Z</time></trkpt>
        <trkpt lat="29.5585225" lon="103.34419"><ele>2020.03</ele><time>2026-05-29T22:08:46.000Z</time></trkpt>
        <trkpt lat="29.5584809" lon="103.3440941"><ele>2024.57</ele><time>2026-05-29T22:08:58.000Z</time></trkpt>
        <trkpt lat="29.5584854" lon="103.3439817"><ele>2028.57</ele><time>2026-05-29T22:09:08.000Z</time></trkpt>
        <trkpt lat="29.5584672" lon="103.3440333"><ele>2031.8</ele><time>2026-05-29T22:09:37.000Z</time></trkpt>
        <trkpt lat="29.5583883" lon="103.3440734"><ele>2034.04</ele><time>2026-05-29T22:10:03.000Z</time></trkpt>
        <trkpt lat="29.5582908" lon="103.3440904"><ele>2035.61</ele><time>2026-05-29T22:10:23.000Z</time></trkpt>
        <trkpt lat="29.5581741" lon="103.3439026"><ele>2037.1</ele><time>2026-05-29T22:16:03.000Z</time></trkpt>
        <trkpt lat="29.5581398" lon="103.3439941"><ele>2038.03</ele><time>2026-05-29T22:16:09.000Z</time></trkpt>
        <trkpt lat="29.5580619" lon="103.344047"><ele>2037.56</ele><time>2026-05-29T22:16:31.000Z</time></trkpt>
        <trkpt lat="29.5578349" lon="103.3439869"><ele>2038.25</ele><time>2026-05-29T22:17:09.000Z</time></trkpt>
        <trkpt lat="29.5578482" lon="103.3439775"><ele>2038.64</ele><time>2026-05-29T22:17:15.000Z</time></trkpt>
        <trkpt lat="29.5578255" lon="103.3438986"><ele>2039.88</ele><time>2026-05-29T22:17:31.000Z</time></trkpt>
        <trkpt lat="29.5576591" lon="103.343811"><ele>2042.03</ele><time>2026-05-29T22:18:52.000Z</time></trkpt>
        <trkpt lat="29.5577621" lon="103.3438492"><ele>2043.1</ele><time>2026-05-29T22:20:36.000Z</time></trkpt>
        <trkpt lat="29.5577831" lon="103.3438416"><ele>2043.71</ele><time>2026-05-29T22:20:48.000Z</time></trkpt>
        <trkpt lat="29.5577557" lon="103.34375"><ele>2038.29</ele><time>2026-05-29T22:21:02.000Z</time></trkpt>
        <trkpt lat="29.5576667" lon="103.343726"><ele>2041.23</ele><time>2026-05-29T22:21:16.000Z</time></trkpt>
        <trkpt lat="29.5575697" lon="103.3437342"><ele>2042.67</ele><time>2026-05-29T22:21:24.000Z</time></trkpt>
        <trkpt lat="29.5574737" lon="103.3437188"><ele>2043.29</ele><time>2026-05-29T22:21:36.000Z</time></trkpt>
        <trkpt lat="29.5573764" lon="103.3437037"><ele>2043.8</ele><time>2026-05-29T22:22:06.000Z</time></trkpt>
        <trkpt lat="29.5572567" lon="103.3436584"><ele>2043.35</ele><time>2026-05-29T22:23:44.000Z</time></trkpt>
        <trkpt lat="29.5571747" lon="103.343605"><ele>2043.79</ele><time>2026-05-29T22:24:22.000Z</time></trkpt>
        <trkpt lat="29.5570894" lon="103.3436226"><ele>2046.31</ele><time>2026-05-29T22:24:56.000Z</time></trkpt>
        <trkpt lat="29.5569992" lon="103.3436705"><ele>2048.89</ele><time>2026-05-29T22:25:36.000Z</time></trkpt>
        <trkpt lat="29.5569172" lon="103.3437576"><ele>2051.96</ele><time>2026-05-29T22:26:38.000Z</time></trkpt>
        <trkpt lat="29.5569077" lon="103.34375"><ele>2055.41</ele><time>2026-05-29T22:26:50.000Z</time></trkpt>
        <trkpt lat="29.5568303" lon="103.343723"><ele>2057.86</ele><time>2026-05-29T22:27:26.000Z</time></trkpt>
        <trkpt lat="29.5567351" lon="103.3437161"><ele>2060.32</ele><time>2026-05-29T22:27:50.000Z</time></trkpt>
        <trkpt lat="29.5566521" lon="103.3437958"><ele>2063.23</ele><time>2026-05-29T22:29:10.000Z</time></trkpt>
        <trkpt lat="29.5565968" lon="103.3439026"><ele>2065.49</ele><time>2026-05-29T22:30:48.000Z</time></trkpt>
        <trkpt lat="29.5565338" lon="103.3440018"><ele>2067.37</ele><time>2026-05-29T22:31:08.000Z</time></trkpt>
        <trkpt lat="29.5564644" lon="103.344088"><ele>2070.91</ele><time>2026-05-29T22:32:00.000Z</time></trkpt>
        <trkpt lat="29.556385" lon="103.3441602"><ele>2074.63</ele><time>2026-05-29T22:32:14.000Z</time></trkpt>
        <trkpt lat="29.5563011" lon="103.344228"><ele>2079.59</ele><time>2026-05-29T22:32:44.000Z</time></trkpt>
        <trkpt lat="29.5562273" lon="103.3443176"><ele>2085.17</ele><time>2026-05-29T22:33:18.000Z</time></trkpt>
        <trkpt lat="29.5561664" lon="103.3444046"><ele>2090.7</ele><time>2026-05-29T22:33:36.000Z</time></trkpt>
        <trkpt lat="29.5561085" lon="103.3444977"><ele>2095.55</ele><time>2026-05-29T22:36:39.000Z</time></trkpt>
        <trkpt lat="29.5560303" lon="103.3445816"><ele>2100.6</ele><time>2026-05-29T22:37:11.000Z</time></trkpt>
        <trkpt lat="29.5559788" lon="103.3446732"><ele>2105.7</ele><time>2026-05-29T22:38:33.000Z</time></trkpt>
        <trkpt lat="29.5559139" lon="103.34478"><ele>2109.28</ele><time>2026-05-29T22:38:49.000Z</time></trkpt>
        <trkpt lat="29.5558523" lon="103.344861"><ele>2111.66</ele><time>2026-05-29T22:39:07.000Z</time></trkpt>
        <trkpt lat="29.555769" lon="103.344902"><ele>2114.72</ele><time>2026-05-29T22:40:49.000Z</time></trkpt>
        <trkpt lat="29.5556755" lon="103.3449631"><ele>2117.7</ele><time>2026-05-29T22:42:25.000Z</time></trkpt>
        <trkpt lat="29.5555916" lon="103.3450317"><ele>2121.25</ele><time>2026-05-29T22:43:19.000Z</time></trkpt>
        <trkpt lat="29.5555012" lon="103.345081"><ele>2124.91</ele><time>2026-05-29T22:44:01.000Z</time></trkpt>
        <trkpt lat="29.5554082" lon="103.3450621"><ele>2129.12</ele><time>2026-05-29T22:44:25.000Z</time></trkpt>
        <trkpt lat="29.5553302" lon="103.3450046"><ele>2135.53</ele><time>2026-05-29T22:44:45.000Z</time></trkpt>
        <trkpt lat="29.5552462" lon="103.3450098"><ele>2142.22</ele><time>2026-05-29T22:45:07.000Z</time></trkpt>
        <trkpt lat="29.5551637" lon="103.3450651"><ele>2147.91</ele><time>2026-05-29T22:45:25.000Z</time></trkpt>
        <trkpt lat="29.5550766" lon="103.3451233"><ele>2153.21</ele><time>2026-05-29T22:46:59.000Z</time></trkpt>
        <trkpt lat="29.5549831" lon="103.3451538"><ele>2157.03</ele><time>2026-05-29T22:47:13.000Z</time></trkpt>
        <trkpt lat="29.5548961" lon="103.3451843"><ele>2159.9</ele><time>2026-05-29T22:47:27.000Z</time></trkpt>
        <trkpt lat="29.5548221" lon="103.3452502"><ele>2161.97</ele><time>2026-05-29T22:48:07.000Z</time></trkpt>
        <trkpt lat="29.554739" lon="103.345314"><ele>2164.74</ele><time>2026-05-29T22:49:15.000Z</time></trkpt>
        <trkpt lat="29.5546513" lon="103.3453674"><ele>2167.01</ele><time>2026-05-29T22:49:33.000Z</time></trkpt>
        <trkpt lat="29.5545654" lon="103.3454208"><ele>2168.8</ele><time>2026-05-29T22:50:33.000Z</time></trkpt>
        <trkpt lat="29.554472" lon="103.3454361"><ele>2171.25</ele><time>2026-05-29T22:51:15.000Z</time></trkpt>
        <trkpt lat="29.5543747" lon="103.3454437"><ele>2175.48</ele><time>2026-05-29T22:52:51.000Z</time></trkpt>
        <trkpt lat="29.554287" lon="103.3454742"><ele>2178.86</ele><time>2026-05-29T22:53:47.000Z</time></trkpt>
        <trkpt lat="29.5541879" lon="103.3454918"><ele>2180.25</ele><time>2026-05-29T22:53:57.000Z</time></trkpt>
        <trkpt lat="29.5540913" lon="103.3455189"><ele>2181.3</ele><time>2026-05-29T22:54:31.000Z</time></trkpt>
        <trkpt lat="29.5539968" lon="103.3454915"><ele>2184.39</ele><time>2026-05-29T22:55:01.000Z</time></trkpt>
        <trkpt lat="29.5539075" lon="103.3454444"><ele>2189.92</ele><time>2026-05-29T22:55:15.000Z</time></trkpt>
        <trkpt lat="29.5538185" lon="103.3453869"><ele>2194.36</ele><time>2026-05-29T22:55:31.000Z</time></trkpt>
        <trkpt lat="29.553728" lon="103.3453627"><ele>2199.34</ele><time>2026-05-29T22:55:55.000Z</time></trkpt>
        <trkpt lat="29.5536396" lon="103.3453412"><ele>2203.41</ele><time>2026-05-29T22:56:19.000Z</time></trkpt>
        <trkpt lat="29.5535506" lon="103.3453542"><ele>2206.3</ele><time>2026-05-29T22:56:31.000Z</time></trkpt>
        <trkpt lat="29.5534597" lon="103.3453564"><ele>2208.38</ele><time>2026-05-29T22:56:45.000Z</time></trkpt>
        <trkpt lat="29.5533581" lon="103.3453903"><ele>2210.12</ele><time>2026-05-29T22:59:11.000Z</time></trkpt>
        <trkpt lat="29.5532589" lon="103.3453827"><ele>2211.83</ele><time>2026-05-29T22:59:37.000Z</time></trkpt>
        <trkpt lat="29.5531629" lon="103.345388"><ele>2213.47</ele><time>2026-05-29T22:59:47.000Z</time></trkpt>
        <trkpt lat="29.5530602" lon="103.3453955"><ele>2214.6</ele><time>2026-05-29T22:59:57.000Z</time></trkpt>
        <trkpt lat="29.5529668" lon="103.3454211"><ele>2215.39</ele><time>2026-05-29T23:00:07.000Z</time></trkpt>
        <trkpt lat="29.552867" lon="103.3454586"><ele>2216.17</ele><time>2026-05-29T23:00:19.000Z</time></trkpt>
        <trkpt lat="29.5527644" lon="103.3454708"><ele>2217.15</ele><time>2026-05-29T23:00:29.000Z</time></trkpt>
        <trkpt lat="29.552661" lon="103.3454494"><ele>2218.86</ele><time>2026-05-29T23:00:41.000Z</time></trkpt>
        <trkpt lat="29.5525676" lon="103.3454738"><ele>2220.05</ele><time>2026-05-29T23:00:53.000Z</time></trkpt>
        <trkpt lat="29.552478" lon="103.345477"><ele>2221.05</ele><time>2026-05-29T23:01:11.000Z</time></trkpt>
        <trkpt lat="29.5524395" lon="103.3454424"><ele>2222.01</ele><time>2026-05-29T23:01:17.000Z</time></trkpt>
        <trkpt lat="29.5524306" lon="103.3453314"><ele>2223.51</ele><time>2026-05-29T23:01:29.000Z</time></trkpt>
        <trkpt lat="29.5523809" lon="103.3452407"><ele>2225.82</ele><time>2026-05-29T23:01:45.000Z</time></trkpt>
        <trkpt lat="29.5523573" lon="103.3452087"><ele>2227.98</ele><time>2026-05-29T23:01:47.000Z</time></trkpt>
        <trkpt lat="29.5522995" lon="103.3451597"><ele>2229.27</ele><time>2026-05-29T23:01:55.000Z</time></trkpt>
        <trkpt lat="29.5522151" lon="103.3451367"><ele>2230.2</ele><time>2026-05-29T23:02:07.000Z</time></trkpt>
        <trkpt lat="29.5521752" lon="103.3451343"><ele>2230.67</ele><time>2026-05-29T23:02:09.000Z</time></trkpt>
        <trkpt lat="29.5520979" lon="103.3450978"><ele>2230.93</ele><time>2026-05-29T23:02:19.000Z</time></trkpt>
        <trkpt lat="29.5520127" lon="103.3450468"><ele>2231.11</ele><time>2026-05-29T23:02:31.000Z</time></trkpt>
        <trkpt lat="29.5519891" lon="103.3449398"><ele>2231.66</ele><time>2026-05-29T23:02:41.000Z</time></trkpt>
        <trkpt lat="29.5519604" lon="103.344825"><ele>2232.76</ele><time>2026-05-29T23:02:49.000Z</time></trkpt>
        <trkpt lat="29.5519028" lon="103.344734"><ele>2232.75</ele><time>2026-05-29T23:03:01.000Z</time></trkpt>
        <trkpt lat="29.5518377" lon="103.3446541"><ele>2232.4</ele><time>2026-05-29T23:03:13.000Z</time></trkpt>
        <trkpt lat="29.5517737" lon="103.3445668"><ele>2232.48</ele><time>2026-05-29T23:03:25.000Z</time></trkpt>
        <trkpt lat="29.5517139" lon="103.3444761"><ele>2233.53</ele><time>2026-05-29T23:03:39.000Z</time></trkpt>
        <trkpt lat="29.5516503" lon="103.3443958"><ele>2235.41</ele><time>2026-05-29T23:03:49.000Z</time></trkpt>
        <trkpt lat="29.5515868" lon="103.3443195"><ele>2236.8</ele><time>2026-05-29T23:03:59.000Z</time></trkpt>
        <trkpt lat="29.5515335" lon="103.3442785"><ele>2237.51</ele><time>2026-05-29T23:04:07.000Z</time></trkpt>
        <trkpt lat="29.5514583" lon="103.3442386"><ele>2237.8</ele><time>2026-05-29T23:04:19.000Z</time></trkpt>
        <trkpt lat="29.5513645" lon="103.344214"><ele>2238.02</ele><time>2026-05-29T23:04:31.000Z</time></trkpt>
        <trkpt lat="29.5512577" lon="103.3441996"><ele>2238.04</ele><time>2026-05-29T23:04:45.000Z</time></trkpt>
        <trkpt lat="29.5511491" lon="103.3442161"><ele>2237.75</ele><time>2026-05-29T23:04:53.000Z</time></trkpt>
        <trkpt lat="29.5510442" lon="103.3442024"><ele>2237.57</ele><time>2026-05-29T23:05:03.000Z</time></trkpt>
        <trkpt lat="29.5509531" lon="103.3441581"><ele>2237.74</ele><time>2026-05-29T23:05:13.000Z</time></trkpt>
        <trkpt lat="29.5508586" lon="103.3441373"><ele>2237.73</ele><time>2026-05-29T23:05:23.000Z</time></trkpt>
        <trkpt lat="29.5507595" lon="103.3441156"><ele>2237.26</ele><time>2026-05-29T23:05:35.000Z</time></trkpt>
        <trkpt lat="29.5507115" lon="103.3440244"><ele>2236.79</ele><time>2026-05-29T23:05:51.000Z</time></trkpt>
        <trkpt lat="29.5506408" lon="103.3439594"><ele>2235.49</ele><time>2026-05-29T23:06:07.000Z</time></trkpt>
        <trkpt lat="29.5505606" lon="103.3439076"><ele>2234.96</ele><time>2026-05-29T23:06:19.000Z</time></trkpt>
        <trkpt lat="29.5504968" lon="103.3438211"><ele>2234.68</ele><time>2026-05-29T23:06:31.000Z</time></trkpt>
        <trkpt lat="29.5504336" lon="103.3437216"><ele>2234.63</ele><time>2026-05-29T23:06:43.000Z</time></trkpt>
        <trkpt lat="29.5503643" lon="103.3436418"><ele>2235.52</ele><time>2026-05-29T23:06:55.000Z</time></trkpt>
        <trkpt lat="29.5503052" lon="103.3435594"><ele>2235.87</ele><time>2026-05-29T23:07:07.000Z</time></trkpt>
        <trkpt lat="29.5502586" lon="103.3434586"><ele>2236</ele><time>2026-05-29T23:07:19.000Z</time></trkpt>
        <trkpt lat="29.5502061" lon="103.3433569"><ele>2236.17</ele><time>2026-05-29T23:07:27.000Z</time></trkpt>
        <trkpt lat="29.5501375" lon="103.343273"><ele>2236.22</ele><time>2026-05-29T23:07:39.000Z</time></trkpt>
        <trkpt lat="29.5500643" lon="103.3432077"><ele>2236.45</ele><time>2026-05-29T23:07:49.000Z</time></trkpt>
        <trkpt lat="29.5500017" lon="103.3431313"><ele>2236.71</ele><time>2026-05-29T23:08:03.000Z</time></trkpt>
        <trkpt lat="29.549945" lon="103.3430323"><ele>2236.91</ele><time>2026-05-29T23:08:15.000Z</time></trkpt>
        <trkpt lat="29.5498861" lon="103.3429364"><ele>2237.4</ele><time>2026-05-29T23:08:27.000Z</time></trkpt>
        <trkpt lat="29.5498415" lon="103.3428371"><ele>2237.85</ele><time>2026-05-29T23:08:37.000Z</time></trkpt>
        <trkpt lat="29.5497893" lon="103.3427484"><ele>2238.3</ele><time>2026-05-29T23:08:49.000Z</time></trkpt>
        <trkpt lat="29.5497362" lon="103.3426526"><ele>2238.8</ele><time>2026-05-29T23:09:01.000Z</time></trkpt>
        <trkpt lat="29.5496656" lon="103.3425595"><ele>2239.25</ele><time>2026-05-29T23:09:11.000Z</time></trkpt>
        <trkpt lat="29.5495944" lon="103.3424849"><ele>2239.31</ele><time>2026-05-29T23:09:19.000Z</time></trkpt>
        <trkpt lat="29.5495325" lon="103.3424055"><ele>2239.51</ele><time>2026-05-29T23:09:29.000Z</time></trkpt>
        <trkpt lat="29.5494617" lon="103.3423233"><ele>2239.83</ele><time>2026-05-29T23:09:41.000Z</time></trkpt>
        <trkpt lat="29.5493889" lon="103.3422398"><ele>2240.22</ele><time>2026-05-29T23:09:51.000Z</time></trkpt>
        <trkpt lat="29.5493385" lon="103.3421444"><ele>2240.85</ele><time>2026-05-29T23:10:03.000Z</time></trkpt>
        <trkpt lat="29.5493312" lon="103.3420389"><ele>2241.4</ele><time>2026-05-29T23:10:17.000Z</time></trkpt>
        <trkpt lat="29.5493336" lon="103.3419266"><ele>2241.85</ele><time>2026-05-29T23:11:19.000Z</time></trkpt>
        <trkpt lat="29.5492973" lon="103.3418274"><ele>2242.07</ele><time>2026-05-29T23:13:09.000Z</time></trkpt>
        <trkpt lat="29.5492516" lon="103.3417053"><ele>2241.82</ele><time>2026-05-29T23:13:27.000Z</time></trkpt>
        <trkpt lat="29.5492251" lon="103.3415833"><ele>2241.49</ele><time>2026-05-29T23:13:39.000Z</time></trkpt>
        <trkpt lat="29.5491919" lon="103.341473"><ele>2241.27</ele><time>2026-05-29T23:13:53.000Z</time></trkpt>
        <trkpt lat="29.5491608" lon="103.3413721"><ele>2241.38</ele><time>2026-05-29T23:14:19.000Z</time></trkpt>
        <trkpt lat="29.5490933" lon="103.3413029"><ele>2241.92</ele><time>2026-05-29T23:14:45.000Z</time></trkpt>
        <trkpt lat="29.5490367" lon="103.3412216"><ele>2243.1</ele><time>2026-05-29T23:15:01.000Z</time></trkpt>
        <trkpt lat="29.5489514" lon="103.3411738"><ele>2244.52</ele><time>2026-05-29T23:15:21.000Z</time></trkpt>
        <trkpt lat="29.5488548" lon="103.3411549"><ele>2245.98</ele><time>2026-05-29T23:15:43.000Z</time></trkpt>
        <trkpt lat="29.5487572" lon="103.341156"><ele>2248.23</ele><time>2026-05-29T23:16:27.000Z</time></trkpt>
        <trkpt lat="29.5486622" lon="103.3411731"><ele>2251.44</ele><time>2026-05-29T23:17:13.000Z</time></trkpt>
        <trkpt lat="29.5485706" lon="103.3411993"><ele>2253.74</ele><time>2026-05-29T23:17:53.000Z</time></trkpt>
        <trkpt lat="29.5484747" lon="103.3412208"><ele>2255.59</ele><time>2026-05-29T23:18:13.000Z</time></trkpt>
        <trkpt lat="29.5483859" lon="103.3412505"><ele>2256.89</ele><time>2026-05-29T23:18:49.000Z</time></trkpt>
        <trkpt lat="29.5482999" lon="103.3412366"><ele>2259.33</ele><time>2026-05-29T23:19:15.000Z</time></trkpt>
        <trkpt lat="29.5482089" lon="103.3412232"><ele>2262.23</ele><time>2026-05-29T23:19:39.000Z</time></trkpt>
        <trkpt lat="29.5481187" lon="103.3411948"><ele>2266.26</ele><time>2026-05-29T23:19:55.000Z</time></trkpt>
        <trkpt lat="29.5480274" lon="103.3411791"><ele>2268.79</ele><time>2026-05-29T23:20:21.000Z</time></trkpt>
        <trkpt lat="29.5479358" lon="103.3411923"><ele>2271.63</ele><time>2026-05-29T23:20:35.000Z</time></trkpt>
        <trkpt lat="29.5478413" lon="103.3411645"><ele>2274.67</ele><time>2026-05-29T23:20:53.000Z</time></trkpt>
        <trkpt lat="29.5477514" lon="103.3411202"><ele>2278.26</ele><time>2026-05-29T23:21:13.000Z</time></trkpt>
        <trkpt lat="29.5476592" lon="103.3410885"><ele>2281.8</ele><time>2026-05-29T23:21:23.000Z</time></trkpt>
        <trkpt lat="29.5475631" lon="103.3410802"><ele>2284.3</ele><time>2026-05-29T23:21:45.000Z</time></trkpt>
        <trkpt lat="29.5474713" lon="103.3410635"><ele>2286.84</ele><time>2026-05-29T23:22:11.000Z</time></trkpt>
        <trkpt lat="29.5473857" lon="103.3410252"><ele>2289.34</ele><time>2026-05-29T23:22:49.000Z</time></trkpt>
        <trkpt lat="29.5473165" lon="103.3409504"><ele>2291.51</ele><time>2026-05-29T23:23:05.000Z</time></trkpt>
        <trkpt lat="29.5472415" lon="103.3408804"><ele>2292.94</ele><time>2026-05-29T23:23:19.000Z</time></trkpt>
        <trkpt lat="29.5471804" lon="103.3407976"><ele>2293.22</ele><time>2026-05-29T23:23:31.000Z</time></trkpt>
        <trkpt lat="29.5471764" lon="103.340683"><ele>2293.13</ele><time>2026-05-29T23:25:17.000Z</time></trkpt>
        <trkpt lat="29.5471268" lon="103.3405838"><ele>2293.66</ele><time>2026-05-29T23:25:47.000Z</time></trkpt>
        <trkpt lat="29.5471175" lon="103.3404782"><ele>2293.61</ele><time>2026-05-29T23:26:13.000Z</time></trkpt>
        <trkpt lat="29.5471066" lon="103.3403714"><ele>2294.62</ele><time>2026-05-29T23:26:37.000Z</time></trkpt>
        <trkpt lat="29.5470652" lon="103.3402814"><ele>2296.32</ele><time>2026-05-29T23:27:13.000Z</time></trkpt>
        <trkpt lat="29.5470352" lon="103.3401794"><ele>2298.62</ele><time>2026-05-29T23:28:35.000Z</time></trkpt>
        <trkpt lat="29.54702" lon="103.3400726"><ele>2302.25</ele><time>2026-05-29T23:28:55.000Z</time></trkpt>
        <trkpt lat="29.5470063" lon="103.3399658"><ele>2306.59</ele><time>2026-05-29T23:29:51.000Z</time></trkpt>
        <trkpt lat="29.547018" lon="103.339859"><ele>2312.79</ele><time>2026-05-29T23:30:13.000Z</time></trkpt>
        <trkpt lat="29.5470132" lon="103.3397522"><ele>2318.9</ele><time>2026-05-29T23:30:35.000Z</time></trkpt>
        <trkpt lat="29.546963" lon="103.3396626"><ele>2324.58</ele><time>2026-05-29T23:31:15.000Z</time></trkpt>
        <trkpt lat="29.5468806" lon="103.3396079"><ele>2329.86</ele><time>2026-05-29T23:31:55.000Z</time></trkpt>
        <trkpt lat="29.5468247" lon="103.3395192"><ele>2334.13</ele><time>2026-05-29T23:32:53.000Z</time></trkpt>
        <trkpt lat="29.5468147" lon="103.3394157"><ele>2339.2</ele><time>2026-05-29T23:33:33.000Z</time></trkpt>
        <trkpt lat="29.5467758" lon="103.3393173"><ele>2346.06</ele><time>2026-05-29T23:36:23.000Z</time></trkpt>
        <trkpt lat="29.5467129" lon="103.339241"><ele>2354.24</ele><time>2026-05-29T23:36:43.000Z</time></trkpt>
        <trkpt lat="29.546629" lon="103.3391776"><ele>2360.02</ele><time>2026-05-29T23:37:29.000Z</time></trkpt>
        <trkpt lat="29.5465693" lon="103.339093"><ele>2364.48</ele><time>2026-05-29T23:37:45.000Z</time></trkpt>
        <trkpt lat="29.5465085" lon="103.3390132"><ele>2368</ele><time>2026-05-29T23:38:37.000Z</time></trkpt>
        <trkpt lat="29.5464569" lon="103.3389243"><ele>2371.63</ele><time>2026-05-29T23:39:07.000Z</time></trkpt>
        <trkpt lat="29.5463939" lon="103.3388435"><ele>2375.58</ele><time>2026-05-29T23:39:59.000Z</time></trkpt>
        <trkpt lat="29.5463161" lon="103.3387836"><ele>2378.9</ele><time>2026-05-29T23:40:39.000Z</time></trkpt>
        <trkpt lat="29.5462532" lon="103.3387082"><ele>2382.19</ele><time>2026-05-29T23:41:09.000Z</time></trkpt>
        <trkpt lat="29.5461981" lon="103.338626"><ele>2385.07</ele><time>2026-05-29T23:41:23.000Z</time></trkpt>
        <trkpt lat="29.5461656" lon="103.3385185"><ele>2387.96</ele><time>2026-05-29T23:41:45.000Z</time></trkpt>
        <trkpt lat="29.5461273" lon="103.3384094"><ele>2391.68</ele><time>2026-05-29T23:44:09.000Z</time></trkpt>
        <trkpt lat="29.5461483" lon="103.3383026"><ele>2394.78</ele><time>2026-05-29T23:44:48.000Z</time></trkpt>
        <trkpt lat="29.5461467" lon="103.3381958"><ele>2398.12</ele><time>2026-05-29T23:45:08.000Z</time></trkpt>
        <trkpt lat="29.5461794" lon="103.3381008"><ele>2401.1</ele><time>2026-05-29T23:45:32.000Z</time></trkpt>
        <trkpt lat="29.5462226" lon="103.3379979"><ele>2405.02</ele><time>2026-05-29T23:45:48.000Z</time></trkpt>
        <trkpt lat="29.546289" lon="103.3379091"><ele>2408.59</ele><time>2026-05-29T23:46:04.000Z</time></trkpt>
        <trkpt lat="29.5463584" lon="103.3378198"><ele>2411.47</ele><time>2026-05-29T23:46:14.000Z</time></trkpt>
        <trkpt lat="29.5463955" lon="103.3377181"><ele>2413.65</ele><time>2026-05-29T23:46:42.000Z</time></trkpt>
        <trkpt lat="29.546418" lon="103.3375943"><ele>2414.99</ele><time>2026-05-29T23:46:54.000Z</time></trkpt>
        <trkpt lat="29.5464737" lon="103.3374974"><ele>2415.65</ele><time>2026-05-29T23:47:04.000Z</time></trkpt>
        <trkpt lat="29.5465371" lon="103.3374174"><ele>2416.46</ele><time>2026-05-29T23:47:28.000Z</time></trkpt>
        <trkpt lat="29.5465765" lon="103.33732"><ele>2417.69</ele><time>2026-05-29T23:47:40.000Z</time></trkpt>
        <trkpt lat="29.5465903" lon="103.3372093"><ele>2418.48</ele><time>2026-05-29T23:47:52.000Z</time></trkpt>
        <trkpt lat="29.5465942" lon="103.3370996"><ele>2419.5</ele><time>2026-05-29T23:48:19.000Z</time></trkpt>
        <trkpt lat="29.5465389" lon="103.3370027"><ele>2421.69</ele><time>2026-05-29T23:48:45.000Z</time></trkpt>
        <trkpt lat="29.5464893" lon="103.3369051"><ele>2423.84</ele><time>2026-05-29T23:48:55.000Z</time></trkpt>
        <trkpt lat="29.5464402" lon="103.3368011"><ele>2425.33</ele><time>2026-05-29T23:49:05.000Z</time></trkpt>
        <trkpt lat="29.5464273" lon="103.3366944"><ele>2426.33</ele><time>2026-05-29T23:49:17.000Z</time></trkpt>
        <trkpt lat="29.5464388" lon="103.3365756"><ele>2426.89</ele><time>2026-05-29T23:49:29.000Z</time></trkpt>
        <trkpt lat="29.5464748" lon="103.3364698"><ele>2426.49</ele><time>2026-05-29T23:49:41.000Z</time></trkpt>
        <trkpt lat="29.5465148" lon="103.3363639"><ele>2425.39</ele><time>2026-05-29T23:49:55.000Z</time></trkpt>
        <trkpt lat="29.5465079" lon="103.3362461"><ele>2424.05</ele><time>2026-05-29T23:50:11.000Z</time></trkpt>
        <trkpt lat="29.5465355" lon="103.3361354"><ele>2422.5</ele><time>2026-05-29T23:50:23.000Z</time></trkpt>
        <trkpt lat="29.5465873" lon="103.3360392"><ele>2421.2</ele><time>2026-05-29T23:50:33.000Z</time></trkpt>
        <trkpt lat="29.5466199" lon="103.3359369"><ele>2419.59</ele><time>2026-05-29T23:50:43.000Z</time></trkpt>
        <trkpt lat="29.546645" lon="103.3358199"><ele>2417.68</ele><time>2026-05-29T23:50:55.000Z</time></trkpt>
        <trkpt lat="29.5466675" lon="103.3357033"><ele>2415.82</ele><time>2026-05-29T23:51:07.000Z</time></trkpt>
        <trkpt lat="29.5466923" lon="103.3355875"><ele>2413.7</ele><time>2026-05-29T23:51:19.000Z</time></trkpt>
        <trkpt lat="29.5467342" lon="103.3354838"><ele>2411.78</ele><time>2026-05-29T23:51:29.000Z</time></trkpt>
        <trkpt lat="29.5467623" lon="103.3353791"><ele>2410.61</ele><time>2026-05-29T23:51:39.000Z</time></trkpt>
        <trkpt lat="29.5467887" lon="103.3352733"><ele>2410.13</ele><time>2026-05-29T23:51:53.000Z</time></trkpt>
        <trkpt lat="29.5468105" lon="103.3351554"><ele>2409.39</ele><time>2026-05-29T23:52:07.000Z</time></trkpt>
        <trkpt lat="29.5467951" lon="103.3350445"><ele>2408.78</ele><time>2026-05-29T23:52:19.000Z</time></trkpt>
        <trkpt lat="29.546732" lon="103.3349655"><ele>2408.63</ele><time>2026-05-29T23:52:35.000Z</time></trkpt>
        <trkpt lat="29.5466437" lon="103.3349038"><ele>2407.49</ele><time>2026-05-29T23:52:45.000Z</time></trkpt>
        <trkpt lat="29.5465472" lon="103.334858"><ele>2406.88</ele><time>2026-05-29T23:52:59.000Z</time></trkpt>
        <trkpt lat="29.5464525" lon="103.3348277"><ele>2406.54</ele><time>2026-05-29T23:53:09.000Z</time></trkpt>
        <trkpt lat="29.5463578" lon="103.3347897"><ele>2406.78</ele><time>2026-05-29T23:53:29.000Z</time></trkpt>
        <trkpt lat="29.5462671" lon="103.3347643"><ele>2408.08</ele><time>2026-05-29T23:53:53.000Z</time></trkpt>
        <trkpt lat="29.5461698" lon="103.3347772"><ele>2409.45</ele><time>2026-05-29T23:54:09.000Z</time></trkpt>
        <trkpt lat="29.5460803" lon="103.3347631"><ele>2410.87</ele><time>2026-05-29T23:54:21.000Z</time></trkpt>
        <trkpt lat="29.5459811" lon="103.3347479"><ele>2411.52</ele><time>2026-05-29T23:54:37.000Z</time></trkpt>
        <trkpt lat="29.5459097" lon="103.3346694"><ele>2411.58</ele><time>2026-05-29T23:54:53.000Z</time></trkpt>
        <trkpt lat="29.545856" lon="103.3345736"><ele>2410.35</ele><time>2026-05-29T23:55:05.000Z</time></trkpt>
        <trkpt lat="29.5457845" lon="103.3345094"><ele>2409.39</ele><time>2026-05-29T23:55:17.000Z</time></trkpt>
        <trkpt lat="29.545705" lon="103.3344595"><ele>2407.95</ele><time>2026-05-29T23:55:27.000Z</time></trkpt>
        <trkpt lat="29.5456225" lon="103.3344147"><ele>2406.64</ele><time>2026-05-29T23:55:37.000Z</time></trkpt>
        <trkpt lat="29.5455395" lon="103.3343707"><ele>2405.78</ele><time>2026-05-29T23:55:47.000Z</time></trkpt>
        <trkpt lat="29.5454438" lon="103.3343436"><ele>2405.87</ele><time>2026-05-29T23:56:17.000Z</time></trkpt>
        <trkpt lat="29.5453552" lon="103.3342934"><ele>2405.98</ele><time>2026-05-29T23:56:29.000Z</time></trkpt>
        <trkpt lat="29.5452757" lon="103.3342223"><ele>2405.99</ele><time>2026-05-29T23:56:41.000Z</time></trkpt>
        <trkpt lat="29.5452125" lon="103.3341383"><ele>2406.27</ele><time>2026-05-29T23:56:55.000Z</time></trkpt>
        <trkpt lat="29.5451305" lon="103.3340799"><ele>2406.83</ele><time>2026-05-29T23:57:09.000Z</time></trkpt>
        <trkpt lat="29.5450403" lon="103.3340609"><ele>2407.85</ele><time>2026-05-29T23:57:19.000Z</time></trkpt>
        <trkpt lat="29.5449434" lon="103.3340672"><ele>2408.81</ele><time>2026-05-29T23:57:31.000Z</time></trkpt>
        <trkpt lat="29.5448476" lon="103.3341147"><ele>2408.86</ele><time>2026-05-29T23:57:43.000Z</time></trkpt>
        <trkpt lat="29.5447671" lon="103.3341917"><ele>2408.51</ele><time>2026-05-29T23:57:53.000Z</time></trkpt>
        <trkpt lat="29.5446841" lon="103.3342585"><ele>2408.17</ele><time>2026-05-29T23:58:07.000Z</time></trkpt>
        <trkpt lat="29.544598" lon="103.3342608"><ele>2407.84</ele><time>2026-05-29T23:58:17.000Z</time></trkpt>
        <trkpt lat="29.5445148" lon="103.334221"><ele>2407.56</ele><time>2026-05-29T23:58:25.000Z</time></trkpt>
        <trkpt lat="29.544417" lon="103.3341972"><ele>2407.1</ele><time>2026-05-29T23:58:35.000Z</time></trkpt>
        <trkpt lat="29.5443224" lon="103.3341832"><ele>2407.03</ele><time>2026-05-29T23:58:45.000Z</time></trkpt>
        <trkpt lat="29.544221" lon="103.3341623"><ele>2407.01</ele><time>2026-05-29T23:58:57.000Z</time></trkpt>
        <trkpt lat="29.5441217" lon="103.3341448"><ele>2407.45</ele><time>2026-05-29T23:59:11.000Z</time></trkpt>
        <trkpt lat="29.5440393" lon="103.3340831"><ele>2407.52</ele><time>2026-05-29T23:59:23.000Z</time></trkpt>
        <trkpt lat="29.5439634" lon="103.3340166"><ele>2407.34</ele><time>2026-05-29T23:59:33.000Z</time></trkpt>
        <trkpt lat="29.5438989" lon="103.333928"><ele>2407.42</ele><time>2026-05-29T23:59:43.000Z</time></trkpt>
        <trkpt lat="29.5438149" lon="103.3339131"><ele>2406.97</ele><time>2026-05-29T23:59:55.000Z</time></trkpt>
        <trkpt lat="29.5437212" lon="103.3339214"><ele>2406.9</ele><time>2026-05-30T00:00:05.000Z</time></trkpt>
        <trkpt lat="29.5436318" lon="103.3338722"><ele>2406.96</ele><time>2026-05-30T00:00:15.000Z</time></trkpt>
        <trkpt lat="29.5435676" lon="103.3337934"><ele>2406.58</ele><time>2026-05-30T00:00:25.000Z</time></trkpt>
        <trkpt lat="29.5435085" lon="103.3337112"><ele>2406.63</ele><time>2026-05-30T00:00:39.000Z</time></trkpt>
        <trkpt lat="29.5434442" lon="103.3336245"><ele>2406.15</ele><time>2026-05-30T00:00:53.000Z</time></trkpt>
        <trkpt lat="29.5434087" lon="103.3335147"><ele>2405.35</ele><time>2026-05-30T00:01:03.000Z</time></trkpt>
        <trkpt lat="29.5433948" lon="103.3333976"><ele>2404.34</ele><time>2026-05-30T00:01:13.000Z</time></trkpt>
        <trkpt lat="29.5433586" lon="103.3332967"><ele>2403.65</ele><time>2026-05-30T00:01:21.000Z</time></trkpt>
        <trkpt lat="29.5433063" lon="103.3331918"><ele>2402.52</ele><time>2026-05-30T00:01:31.000Z</time></trkpt>
        <trkpt lat="29.5432455" lon="103.3331023"><ele>2400.86</ele><time>2026-05-30T00:01:43.000Z</time></trkpt>
        <trkpt lat="29.5431767" lon="103.3330129"><ele>2400.12</ele><time>2026-05-30T00:02:05.000Z</time></trkpt>
        <trkpt lat="29.543083" lon="103.3329916"><ele>2399.92</ele><time>2026-05-30T00:02:17.000Z</time></trkpt>
        <trkpt lat="29.5429855" lon="103.3329718"><ele>2400.2</ele><time>2026-05-30T00:02:33.000Z</time></trkpt>
        <trkpt lat="29.5429" lon="103.3329256"><ele>2400.85</ele><time>2026-05-30T00:02:49.000Z</time></trkpt>
        <trkpt lat="29.5428386" lon="103.3328333"><ele>2401.34</ele><time>2026-05-30T00:03:09.000Z</time></trkpt>
        <trkpt lat="29.5427818" lon="103.3327416"><ele>2401.22</ele><time>2026-05-30T00:03:23.000Z</time></trkpt>
        <trkpt lat="29.5427095" lon="103.3326642"><ele>2401.31</ele><time>2026-05-30T00:03:35.000Z</time></trkpt>
        <trkpt lat="29.5426163" lon="103.3326221"><ele>2401.91</ele><time>2026-05-30T00:03:45.000Z</time></trkpt>
        <trkpt lat="29.5425587" lon="103.3325356"><ele>2402.42</ele><time>2026-05-30T00:03:59.000Z</time></trkpt>
        <trkpt lat="29.5425457" lon="103.3324309"><ele>2402.17</ele><time>2026-05-30T00:04:15.000Z</time></trkpt>
        <trkpt lat="29.5425089" lon="103.3323209"><ele>2401.72</ele><time>2026-05-30T00:04:31.000Z</time></trkpt>
        <trkpt lat="29.5424618" lon="103.3322164"><ele>2401.37</ele><time>2026-05-30T00:04:41.000Z</time></trkpt>
        <trkpt lat="29.5424077" lon="103.3321209"><ele>2401.48</ele><time>2026-05-30T00:04:51.000Z</time></trkpt>
        <trkpt lat="29.5423371" lon="103.3320405"><ele>2401.46</ele><time>2026-05-30T00:05:01.000Z</time></trkpt>
        <trkpt lat="29.5422453" lon="103.3320284"><ele>2401.72</ele><time>2026-05-30T00:05:09.000Z</time></trkpt>
        <trkpt lat="29.5421527" lon="103.3320058"><ele>2402.22</ele><time>2026-05-30T00:05:27.000Z</time></trkpt>
        <trkpt lat="29.5420602" lon="103.332021"><ele>2401.43</ele><time>2026-05-30T00:05:45.000Z</time></trkpt>
        <trkpt lat="29.5419759" lon="103.3320826"><ele>2400.58</ele><time>2026-05-30T00:05:59.000Z</time></trkpt>
        <trkpt lat="29.5418822" lon="103.3320896"><ele>2399.66</ele><time>2026-05-30T00:06:09.000Z</time></trkpt>
        <trkpt lat="29.5417878" lon="103.3320896"><ele>2399.04</ele><time>2026-05-30T00:06:21.000Z</time></trkpt>
        <trkpt lat="29.5417265" lon="103.332019"><ele>2399.15</ele><time>2026-05-30T00:06:31.000Z</time></trkpt>
        <trkpt lat="29.5417234" lon="103.3319121"><ele>2398.52</ele><time>2026-05-30T00:06:41.000Z</time></trkpt>
        <trkpt lat="29.5417815" lon="103.3318019"><ele>2396.64</ele><time>2026-05-30T00:06:59.000Z</time></trkpt>
        <trkpt lat="29.5418148" lon="103.331689"><ele>2394.05</ele><time>2026-05-30T00:07:17.000Z</time></trkpt>
        <trkpt lat="29.5417434" lon="103.3316751"><ele>2391.39</ele><time>2026-05-30T00:07:55.000Z</time></trkpt>
        <trkpt lat="29.5416406" lon="103.3316873"><ele>2390.66</ele><time>2026-05-30T00:08:07.000Z</time></trkpt>
        <trkpt lat="29.5415271" lon="103.3317158"><ele>2391.41</ele><time>2026-05-30T00:08:21.000Z</time></trkpt>
        <trkpt lat="29.5414253" lon="103.3317464"><ele>2392.31</ele><time>2026-05-30T00:08:29.000Z</time></trkpt>
        <trkpt lat="29.5413308" lon="103.3317748"><ele>2393.3</ele><time>2026-05-30T00:08:37.000Z</time></trkpt>
        <trkpt lat="29.5412464" lon="103.3317413"><ele>2394.24</ele><time>2026-05-30T00:10:59.000Z</time></trkpt>
        <trkpt lat="29.5413399" lon="103.3317261"><ele>2395.06</ele><time>2026-05-30T00:32:07.000Z</time></trkpt>
        <trkpt lat="29.5413742" lon="103.3318481"><ele>2394.77</ele><time>2026-05-30T00:34:57.000Z</time></trkpt>
        <trkpt lat="29.541357" lon="103.3317413"><ele>2393.43</ele><time>2026-05-30T00:35:25.000Z</time></trkpt>
        <trkpt lat="29.5414125" lon="103.3316539"><ele>2394.65</ele><time>2026-05-30T00:36:10.000Z</time></trkpt>
        <trkpt lat="29.5414066" lon="103.3317719"><ele>2392.37</ele><time>2026-05-30T00:37:27.000Z</time></trkpt>
        <trkpt lat="29.5413055" lon="103.3317871"><ele>2391.34</ele><time>2026-05-30T00:37:37.000Z</time></trkpt>
        <trkpt lat="29.5412061" lon="103.3317959"><ele>2391.3</ele><time>2026-05-30T00:37:49.000Z</time></trkpt>
        <trkpt lat="29.5411098" lon="103.3318095"><ele>2391.31</ele><time>2026-05-30T00:38:01.000Z</time></trkpt>
        <trkpt lat="29.5410103" lon="103.3318187"><ele>2391.73</ele><time>2026-05-30T00:38:25.000Z</time></trkpt>
        <trkpt lat="29.5409123" lon="103.3317978"><ele>2392.48</ele><time>2026-05-30T00:38:39.000Z</time></trkpt>
        <trkpt lat="29.5408221" lon="103.3317601"><ele>2393.59</ele><time>2026-05-30T00:38:51.000Z</time></trkpt>
        <trkpt lat="29.5407262" lon="103.3317239"><ele>2394.69</ele><time>2026-05-30T00:39:05.000Z</time></trkpt>
        <trkpt lat="29.5406348" lon="103.3317302"><ele>2397.07</ele><time>2026-05-30T00:39:13.000Z</time></trkpt>
        <trkpt lat="29.5405566" lon="103.3317815"><ele>2399.33</ele><time>2026-05-30T00:39:23.000Z</time></trkpt>
        <trkpt lat="29.540473" lon="103.3318418"><ele>2400.94</ele><time>2026-05-30T00:39:33.000Z</time></trkpt>
        <trkpt lat="29.5403867" lon="103.3318961"><ele>2402.1</ele><time>2026-05-30T00:39:43.000Z</time></trkpt>
        <trkpt lat="29.5402962" lon="103.3319459"><ele>2403.27</ele><time>2026-05-30T00:39:55.000Z</time></trkpt>
        <trkpt lat="29.5402345" lon="103.3320391"><ele>2404.23</ele><time>2026-05-30T00:40:11.000Z</time></trkpt>
        <trkpt lat="29.5401669" lon="103.3321152"><ele>2404.81</ele><time>2026-05-30T00:43:50.000Z</time></trkpt>
        <trkpt lat="29.5400848" lon="103.3321838"><ele>2404.58</ele><time>2026-05-30T00:44:00.000Z</time></trkpt>
        <trkpt lat="29.5399996" lon="103.3322396"><ele>2404.47</ele><time>2026-05-30T00:44:12.000Z</time></trkpt>
        <trkpt lat="29.5399079" lon="103.3322813"><ele>2404.34</ele><time>2026-05-30T00:45:04.000Z</time></trkpt>
        <trkpt lat="29.5398185" lon="103.33233"><ele>2403.82</ele><time>2026-05-30T00:45:14.000Z</time></trkpt>
        <trkpt lat="29.5397258" lon="103.3323818"><ele>2403.55</ele><time>2026-05-30T00:45:26.000Z</time></trkpt>
        <trkpt lat="29.5396306" lon="103.3324235"><ele>2403.27</ele><time>2026-05-30T00:45:40.000Z</time></trkpt>
        <trkpt lat="29.5395548" lon="103.3324901"><ele>2402.47</ele><time>2026-05-30T00:46:00.000Z</time></trkpt>
        <trkpt lat="29.5394791" lon="103.3325491"><ele>2402.55</ele><time>2026-05-30T00:46:24.000Z</time></trkpt>
        <trkpt lat="29.5394069" lon="103.3326099"><ele>2403</ele><time>2026-05-30T00:46:44.000Z</time></trkpt>
        <trkpt lat="29.5393398" lon="103.3326885"><ele>2403.83</ele><time>2026-05-30T00:46:58.000Z</time></trkpt>
        <trkpt lat="29.5392797" lon="103.3327734"><ele>2405.43</ele><time>2026-05-30T00:47:12.000Z</time></trkpt>
        <trkpt lat="29.5392103" lon="103.3328423"><ele>2406.31</ele><time>2026-05-30T00:47:26.000Z</time></trkpt>
        <trkpt lat="29.5391225" lon="103.332893"><ele>2407.77</ele><time>2026-05-30T00:47:38.000Z</time></trkpt>
        <trkpt lat="29.5390468" lon="103.3329604"><ele>2409.38</ele><time>2026-05-30T00:47:50.000Z</time></trkpt>
        <trkpt lat="29.5389693" lon="103.3330236"><ele>2410.7</ele><time>2026-05-30T00:48:02.000Z</time></trkpt>
        <trkpt lat="29.5388812" lon="103.3330678"><ele>2412.21</ele><time>2026-05-30T00:48:14.000Z</time></trkpt>
        <trkpt lat="29.5387877" lon="103.3331108"><ele>2413.59</ele><time>2026-05-30T00:48:26.000Z</time></trkpt>
        <trkpt lat="29.5386958" lon="103.3331489"><ele>2415.52</ele><time>2026-05-30T00:48:36.000Z</time></trkpt>
        <trkpt lat="29.5386066" lon="103.3331914"><ele>2416.84</ele><time>2026-05-30T00:48:50.000Z</time></trkpt>
        <trkpt lat="29.5385041" lon="103.3331961"><ele>2417.72</ele><time>2026-05-30T00:49:04.000Z</time></trkpt>
        <trkpt lat="29.5384069" lon="103.3331985"><ele>2419.15</ele><time>2026-05-30T00:49:16.000Z</time></trkpt>
        <trkpt lat="29.5383123" lon="103.3332308"><ele>2420.3</ele><time>2026-05-30T00:49:30.000Z</time></trkpt>
        <trkpt lat="29.538226" lon="103.3332925"><ele>2421.25</ele><time>2026-05-30T00:49:42.000Z</time></trkpt>
        <trkpt lat="29.5381425" lon="103.333364"><ele>2422.72</ele><time>2026-05-30T00:49:52.000Z</time></trkpt>
        <trkpt lat="29.5380582" lon="103.3334197"><ele>2423.67</ele><time>2026-05-30T00:50:02.000Z</time></trkpt>
        <trkpt lat="29.5379702" lon="103.3334794"><ele>2424.36</ele><time>2026-05-30T00:50:14.000Z</time></trkpt>
        <trkpt lat="29.5378836" lon="103.3335234"><ele>2425.23</ele><time>2026-05-30T00:50:24.000Z</time></trkpt>
        <trkpt lat="29.5378134" lon="103.3335901"><ele>2426.6</ele><time>2026-05-30T00:50:35.000Z</time></trkpt>
        <trkpt lat="29.5377334" lon="103.3336372"><ele>2426.6</ele><time>2026-05-30T00:51:19.000Z</time></trkpt>
        <trkpt lat="29.5376661" lon="103.3337049"><ele>2426</ele><time>2026-05-30T00:51:33.000Z</time></trkpt>
        <trkpt lat="29.5375892" lon="103.3337635"><ele>2425.97</ele><time>2026-05-30T00:51:47.000Z</time></trkpt>
        <trkpt lat="29.5375009" lon="103.3337894"><ele>2426.77</ele><time>2026-05-30T00:52:03.000Z</time></trkpt>
        <trkpt lat="29.5374058" lon="103.3337863"><ele>2428.38</ele><time>2026-05-30T00:52:15.000Z</time></trkpt>
        <trkpt lat="29.5373103" lon="103.3338087"><ele>2429.3</ele><time>2026-05-30T00:52:29.000Z</time></trkpt>
        <trkpt lat="29.5372613" lon="103.3338888"><ele>2430.29</ele><time>2026-05-30T00:52:53.000Z</time></trkpt>
        <trkpt lat="29.5372211" lon="103.3339843"><ele>2431.68</ele><time>2026-05-30T00:53:27.000Z</time></trkpt>
        <trkpt lat="29.5371746" lon="103.3340823"><ele>2432.5</ele><time>2026-05-30T00:53:41.000Z</time></trkpt>
        <trkpt lat="29.5371055" lon="103.3341614"><ele>2433.49</ele><time>2026-05-30T00:53:57.000Z</time></trkpt>
        <trkpt lat="29.5370261" lon="103.3342263"><ele>2434.89</ele><time>2026-05-30T00:54:15.000Z</time></trkpt>
        <trkpt lat="29.5369339" lon="103.3342635"><ele>2437.23</ele><time>2026-05-30T00:54:33.000Z</time></trkpt>
        <trkpt lat="29.5368481" lon="103.3343086"><ele>2439.84</ele><time>2026-05-30T00:55:01.000Z</time></trkpt>
        <trkpt lat="29.5367473" lon="103.3343357"><ele>2441.85</ele><time>2026-05-30T00:55:19.000Z</time></trkpt>
        <trkpt lat="29.5366384" lon="103.3343511"><ele>2444.22</ele><time>2026-05-30T00:55:35.000Z</time></trkpt>
        <trkpt lat="29.5365376" lon="103.3343463"><ele>2445.98</ele><time>2026-05-30T00:55:45.000Z</time></trkpt>
        <trkpt lat="29.5364364" lon="103.3343584"><ele>2447.83</ele><time>2026-05-30T00:55:59.000Z</time></trkpt>
        <trkpt lat="29.5363438" lon="103.3343728"><ele>2449.57</ele><time>2026-05-30T00:56:11.000Z</time></trkpt>
        <trkpt lat="29.5362529" lon="103.3343595"><ele>2450.29</ele><time>2026-05-30T00:56:29.000Z</time></trkpt>
        <trkpt lat="29.5361694" lon="103.3343071"><ele>2450.85</ele><time>2026-05-30T00:56:45.000Z</time></trkpt>
        <trkpt lat="29.5360868" lon="103.3342535"><ele>2451.41</ele><time>2026-05-30T00:57:01.000Z</time></trkpt>
        <trkpt lat="29.5360068" lon="103.3341966"><ele>2451.79</ele><time>2026-05-30T00:57:31.000Z</time></trkpt>
        <trkpt lat="29.5359189" lon="103.3341516"><ele>2454.28</ele><time>2026-05-30T00:57:47.000Z</time></trkpt>
        <trkpt lat="29.5358319" lon="103.3341062"><ele>2456.05</ele><time>2026-05-30T00:58:01.000Z</time></trkpt>
        <trkpt lat="29.5357442" lon="103.3340492"><ele>2457.48</ele><time>2026-05-30T00:58:15.000Z</time></trkpt>
        <trkpt lat="29.5356649" lon="103.3339878"><ele>2459.15</ele><time>2026-05-30T00:58:27.000Z</time></trkpt>
        <trkpt lat="29.5356031" lon="103.3339025"><ele>2460.52</ele><time>2026-05-30T00:58:47.000Z</time></trkpt>
        <trkpt lat="29.5355487" lon="103.3338149"><ele>2462.03</ele><time>2026-05-30T00:59:09.000Z</time></trkpt>
        <trkpt lat="29.5354814" lon="103.3337451"><ele>2464.42</ele><time>2026-05-30T00:59:35.000Z</time></trkpt>
        <trkpt lat="29.5354142" lon="103.3336714"><ele>2466.79</ele><time>2026-05-30T00:59:45.000Z</time></trkpt>
        <trkpt lat="29.5353701" lon="103.3335729"><ele>2468.25</ele><time>2026-05-30T00:59:59.000Z</time></trkpt>
        <trkpt lat="29.5353202" lon="103.3334825"><ele>2469.4</ele><time>2026-05-30T01:00:25.000Z</time></trkpt>
        <trkpt lat="29.5352802" lon="103.3333893"><ele>2470.6</ele><time>2026-05-30T01:02:23.000Z</time></trkpt>
        <trkpt lat="29.5352383" lon="103.3332901"><ele>2472.51</ele><time>2026-05-30T01:02:43.000Z</time></trkpt>
        <trkpt lat="29.5351931" lon="103.3331909"><ele>2473.76</ele><time>2026-05-30T01:03:03.000Z</time></trkpt>
        <trkpt lat="29.535162" lon="103.3330858"><ele>2475.46</ele><time>2026-05-30T01:03:33.000Z</time></trkpt>
        <trkpt lat="29.5351124" lon="103.3329904"><ele>2478.33</ele><time>2026-05-30T01:03:57.000Z</time></trkpt>
        <trkpt lat="29.535073" lon="103.3328872"><ele>2482.31</ele><time>2026-05-30T01:04:15.000Z</time></trkpt>
        <trkpt lat="29.5349963" lon="103.3328151"><ele>2485.42</ele><time>2026-05-30T01:04:29.000Z</time></trkpt>
        <trkpt lat="29.5348949" lon="103.33284"><ele>2488.21</ele><time>2026-05-30T01:06:23.000Z</time></trkpt>
        <trkpt lat="29.5348415" lon="103.3329239"><ele>2490.3</ele><time>2026-05-30T01:06:57.000Z</time></trkpt>
        <trkpt lat="29.5347591" lon="103.3329755"><ele>2491.5</ele><time>2026-05-30T01:07:13.000Z</time></trkpt>
        <trkpt lat="29.5346759" lon="103.3330215"><ele>2492.8</ele><time>2026-05-30T01:07:39.000Z</time></trkpt>
        <trkpt lat="29.534578" lon="103.333054"><ele>2493.96</ele><time>2026-05-30T01:08:03.000Z</time></trkpt>
        <trkpt lat="29.5344823" lon="103.333088"><ele>2495.68</ele><time>2026-05-30T01:08:25.000Z</time></trkpt>
        <trkpt lat="29.5343929" lon="103.3331237"><ele>2498.92</ele><time>2026-05-30T01:08:51.000Z</time></trkpt>
        <trkpt lat="29.5342978" lon="103.3331206"><ele>2502.39</ele><time>2026-05-30T01:09:39.000Z</time></trkpt>
        <trkpt lat="29.5342033" lon="103.3331437"><ele>2505.6</ele><time>2026-05-30T01:10:11.000Z</time></trkpt>
        <trkpt lat="29.5341165" lon="103.3331786"><ele>2508.35</ele><time>2026-05-30T01:10:31.000Z</time></trkpt>
        <trkpt lat="29.5340283" lon="103.3332061"><ele>2511.5</ele><time>2026-05-30T01:10:47.000Z</time></trkpt>
        <trkpt lat="29.5339364" lon="103.3332302"><ele>2514.4</ele><time>2026-05-30T01:11:25.000Z</time></trkpt>
        <trkpt lat="29.5339047" lon="103.3332358"><ele>2516.45</ele><time>2026-05-30T01:11:27.000Z</time></trkpt>
        <trkpt lat="29.5338477" lon="103.3331889"><ele>2517.75</ele><time>2026-05-30T01:12:03.000Z</time></trkpt>
        <trkpt lat="29.5337798" lon="103.3331241"><ele>2519.33</ele><time>2026-05-30T01:12:25.000Z</time></trkpt>
        <trkpt lat="29.533709" lon="103.3330503"><ele>2520.47</ele><time>2026-05-30T01:13:01.000Z</time></trkpt>
        <trkpt lat="29.5336361" lon="103.3329704"><ele>2522.21</ele><time>2026-05-30T01:13:43.000Z</time></trkpt>
        <trkpt lat="29.5335557" lon="103.3329075"><ele>2526.68</ele><time>2026-05-30T01:14:01.000Z</time></trkpt>
        <trkpt lat="29.5334743" lon="103.3328406"><ele>2530.86</ele><time>2026-05-30T01:14:45.000Z</time></trkpt>
        <trkpt lat="29.5333973" lon="103.3327779"><ele>2535.4</ele><time>2026-05-30T01:15:27.000Z</time></trkpt>
        <trkpt lat="29.5333196" lon="103.3327168"><ele>2539.92</ele><time>2026-05-30T01:16:05.000Z</time></trkpt>
        <trkpt lat="29.5332457" lon="103.3326504"><ele>2544.45</ele><time>2026-05-30T01:16:43.000Z</time></trkpt>
        <trkpt lat="29.5331633" lon="103.3325934"><ele>2547.73</ele><time>2026-05-30T01:17:09.000Z</time></trkpt>
        <trkpt lat="29.5330848" lon="103.3325342"><ele>2550.69</ele><time>2026-05-30T01:17:35.000Z</time></trkpt>
        <trkpt lat="29.5330079" lon="103.3324624"><ele>2554.26</ele><time>2026-05-30T01:18:09.000Z</time></trkpt>
        <trkpt lat="29.5329389" lon="103.3323858"><ele>2557.35</ele><time>2026-05-30T01:18:29.000Z</time></trkpt>
        <trkpt lat="29.5328712" lon="103.3323139"><ele>2560.65</ele><time>2026-05-30T01:18:55.000Z</time></trkpt>
        <trkpt lat="29.5328049" lon="103.3322328"><ele>2563.74</ele><time>2026-05-30T01:19:41.000Z</time></trkpt>
        <trkpt lat="29.5327431" lon="103.3321542"><ele>2566.93</ele><time>2026-05-30T01:20:03.000Z</time></trkpt>
        <trkpt lat="29.5326798" lon="103.332077"><ele>2569.87</ele><time>2026-05-30T01:20:39.000Z</time></trkpt>
        <trkpt lat="29.5326098" lon="103.3320005"><ele>2573.72</ele><time>2026-05-30T01:21:05.000Z</time></trkpt>
        <trkpt lat="29.5325574" lon="103.3319128"><ele>2577.33</ele><time>2026-05-30T01:21:45.000Z</time></trkpt>
        <trkpt lat="29.5325203" lon="103.3318152"><ele>2581.34</ele><time>2026-05-30T01:22:23.000Z</time></trkpt>
        <trkpt lat="29.5324894" lon="103.3317146"><ele>2585.07</ele><time>2026-05-30T01:22:53.000Z</time></trkpt>
        <trkpt lat="29.5324364" lon="103.3316269"><ele>2588.41</ele><time>2026-05-30T01:23:59.000Z</time></trkpt>
        <trkpt lat="29.5323944" lon="103.3315277"><ele>2591.7</ele><time>2026-05-30T01:24:21.000Z</time></trkpt>
        <trkpt lat="29.5323654" lon="103.3314221"><ele>2595.57</ele><time>2026-05-30T01:25:09.000Z</time></trkpt>
        <trkpt lat="29.5323342" lon="103.3313212"><ele>2599.85</ele><time>2026-05-30T01:25:43.000Z</time></trkpt>
        <trkpt lat="29.532301" lon="103.3312217"><ele>2603.51</ele><time>2026-05-30T01:26:01.000Z</time></trkpt>
        <trkpt lat="29.532238" lon="103.3312988"><ele>2606.57</ele><time>2026-05-30T01:27:13.000Z</time></trkpt>
        <trkpt lat="29.5322037" lon="103.331398"><ele>2612.4</ele><time>2026-05-30T01:27:45.000Z</time></trkpt>
        <trkpt lat="29.53215" lon="103.3313358"><ele>2617.59</ele><time>2026-05-30T01:28:11.000Z</time></trkpt>
        <trkpt lat="29.5321164" lon="103.3312391"><ele>2621.2</ele><time>2026-05-30T01:28:53.000Z</time></trkpt>
        <trkpt lat="29.5321048" lon="103.3311194"><ele>2624.01</ele><time>2026-05-30T01:29:07.000Z</time></trkpt>
        <trkpt lat="29.5321165" lon="103.3310002"><ele>2627.12</ele><time>2026-05-30T01:29:39.000Z</time></trkpt>
        <trkpt lat="29.5321239" lon="103.3308739"><ele>2629.53</ele><time>2026-05-30T01:29:57.000Z</time></trkpt>
        <trkpt lat="29.5321205" lon="103.3307587"><ele>2631.74</ele><time>2026-05-30T01:30:07.000Z</time></trkpt>
        <trkpt lat="29.5321266" lon="103.3306435"><ele>2633.57</ele><time>2026-05-30T01:30:17.000Z</time></trkpt>
        <trkpt lat="29.5321391" lon="103.3305286"><ele>2635.48</ele><time>2026-05-30T01:30:33.000Z</time></trkpt>
        <trkpt lat="29.5321369" lon="103.3304214"><ele>2637.32</ele><time>2026-05-30T01:31:49.000Z</time></trkpt>
        <trkpt lat="29.5321178" lon="103.3303146"><ele>2640.61</ele><time>2026-05-30T01:33:03.000Z</time></trkpt>
        <trkpt lat="29.5320473" lon="103.330246"><ele>2645.18</ele><time>2026-05-30T01:37:14.000Z</time></trkpt>
        <trkpt lat="29.53195" lon="103.330246"><ele>2650.58</ele><time>2026-05-30T01:37:46.000Z</time></trkpt>
        <trkpt lat="29.5318608" lon="103.3302266"><ele>2654.25</ele><time>2026-05-30T01:38:20.000Z</time></trkpt>
        <trkpt lat="29.531776" lon="103.3301803"><ele>2658.2</ele><time>2026-05-30T01:39:02.000Z</time></trkpt>
        <trkpt lat="29.531704" lon="103.3301139"><ele>2662.65</ele><time>2026-05-30T01:39:42.000Z</time></trkpt>
        <trkpt lat="29.5316222" lon="103.3300586"><ele>2666.84</ele><time>2026-05-30T01:40:32.000Z</time></trkpt>
        <trkpt lat="29.5315344" lon="103.330015"><ele>2670.23</ele><time>2026-05-30T01:41:24.000Z</time></trkpt>
        <trkpt lat="29.5314459" lon="103.3299705"><ele>2674.29</ele><time>2026-05-30T01:42:20.000Z</time></trkpt>
        <trkpt lat="29.5313759" lon="103.3299026"><ele>2677.81</ele><time>2026-05-30T01:43:30.000Z</time></trkpt>
        <trkpt lat="29.5313015" lon="103.3298416"><ele>2681.85</ele><time>2026-05-30T01:44:26.000Z</time></trkpt>
        <trkpt lat="29.5312424" lon="103.3297577"><ele>2687.29</ele><time>2026-05-30T01:45:36.000Z</time></trkpt>
        <trkpt lat="29.5311813" lon="103.3296814"><ele>2693.36</ele><time>2026-05-30T01:46:30.000Z</time></trkpt>
        <trkpt lat="29.5311284" lon="103.3295857"><ele>2697.99</ele><time>2026-05-30T01:47:14.000Z</time></trkpt>
        <trkpt lat="29.5310822" lon="103.329483"><ele>2703.39</ele><time>2026-05-30T01:48:14.000Z</time></trkpt>
        <trkpt lat="29.5310707" lon="103.3293762"><ele>2708.47</ele><time>2026-05-30T01:48:28.000Z</time></trkpt>
        <trkpt lat="29.5310657" lon="103.3292694"><ele>2711.67</ele><time>2026-05-30T01:48:50.000Z</time></trkpt>
        <trkpt lat="29.5310692" lon="103.3291626"><ele>2714.51</ele><time>2026-05-30T01:49:10.000Z</time></trkpt>
        <trkpt lat="29.5310683" lon="103.3290558"><ele>2717.49</ele><time>2026-05-30T01:49:24.000Z</time></trkpt>
        <trkpt lat="29.5310596" lon="103.328949"><ele>2720.7</ele><time>2026-05-30T01:49:48.000Z</time></trkpt>
        <trkpt lat="29.5310638" lon="103.3288422"><ele>2723.5</ele><time>2026-05-30T01:50:08.000Z</time></trkpt>
        <trkpt lat="29.531086" lon="103.3287411"><ele>2725.84</ele><time>2026-05-30T01:50:36.000Z</time></trkpt>
        <trkpt lat="29.5311128" lon="103.3286364"><ele>2728.73</ele><time>2026-05-30T01:51:10.000Z</time></trkpt>
        <trkpt lat="29.5311387" lon="103.32853"><ele>2731.69</ele><time>2026-05-30T01:51:40.000Z</time></trkpt>
        <trkpt lat="29.531179" lon="103.3284345"><ele>2734.12</ele><time>2026-05-30T01:51:54.000Z</time></trkpt>
        <trkpt lat="29.5311983" lon="103.3283317"><ele>2735.64</ele><time>2026-05-30T01:52:13.000Z</time></trkpt>
        <trkpt lat="29.5312305" lon="103.3282314"><ele>2738.22</ele><time>2026-05-30T01:52:39.000Z</time></trkpt>
        <trkpt lat="29.531235" lon="103.3281263"><ele>2740.16</ele><time>2026-05-30T01:52:57.000Z</time></trkpt>
        <trkpt lat="29.5312248" lon="103.3280137"><ele>2741.69</ele><time>2026-05-30T01:53:15.000Z</time></trkpt>
        <trkpt lat="29.531229" lon="103.3278986"><ele>2742.32</ele><time>2026-05-30T01:53:39.000Z</time></trkpt>
        <trkpt lat="29.5312143" lon="103.3277889"><ele>2743.98</ele><time>2026-05-30T01:54:21.000Z</time></trkpt>
        <trkpt lat="29.531207" lon="103.3276815"><ele>2746.7</ele><time>2026-05-30T01:54:43.000Z</time></trkpt>
        <trkpt lat="29.531202" lon="103.3275749"><ele>2748.86</ele><time>2026-05-30T01:55:15.000Z</time></trkpt>
        <trkpt lat="29.531188" lon="103.3274684"><ele>2751.28</ele><time>2026-05-30T01:55:45.000Z</time></trkpt>
        <trkpt lat="29.5311806" lon="103.3273618"><ele>2753.93</ele><time>2026-05-30T01:56:21.000Z</time></trkpt>
        <trkpt lat="29.5311748" lon="103.3272552"><ele>2757.23</ele><time>2026-05-30T01:57:07.000Z</time></trkpt>
        <trkpt lat="29.5311392" lon="103.3271542"><ele>2760.94</ele><time>2026-05-30T01:57:51.000Z</time></trkpt>
        <trkpt lat="29.5310626" lon="103.3270896"><ele>2764.86</ele><time>2026-05-30T01:58:25.000Z</time></trkpt>
        <trkpt lat="29.5309782" lon="103.3270323"><ele>2769.26</ele><time>2026-05-30T01:58:41.000Z</time></trkpt>
        <trkpt lat="29.5308869" lon="103.3269984"><ele>2773.36</ele><time>2026-05-30T01:59:01.000Z</time></trkpt>
        <trkpt lat="29.5308009" lon="103.3269486"><ele>2776.4</ele><time>2026-05-30T01:59:29.000Z</time></trkpt>
        <trkpt lat="29.5307369" lon="103.3268738"><ele>2779.75</ele><time>2026-05-30T02:01:13.000Z</time></trkpt>
        <trkpt lat="29.5306435" lon="103.3268814"><ele>2782.92</ele><time>2026-05-30T02:02:17.000Z</time></trkpt>
        <trkpt lat="29.5305557" lon="103.3269196"><ele>2787.94</ele><time>2026-05-30T02:02:43.000Z</time></trkpt>
        <trkpt lat="29.530468" lon="103.3269512"><ele>2792.43</ele><time>2026-05-30T02:03:05.000Z</time></trkpt>
        <trkpt lat="29.5303861" lon="103.3269995"><ele>2796.22</ele><time>2026-05-30T02:03:21.000Z</time></trkpt>
        <trkpt lat="29.5303018" lon="103.3270413"><ele>2800.1</ele><time>2026-05-30T02:03:39.000Z</time></trkpt>
        <trkpt lat="29.530215" lon="103.3270862"><ele>2803.76</ele><time>2026-05-30T02:03:59.000Z</time></trkpt>
        <trkpt lat="29.5301244" lon="103.3271322"><ele>2807.57</ele><time>2026-05-30T02:04:15.000Z</time></trkpt>
        <trkpt lat="29.530044" lon="103.3271956"><ele>2810.64</ele><time>2026-05-30T02:04:47.000Z</time></trkpt>
        <trkpt lat="29.5299747" lon="103.3272709"><ele>2813.29</ele><time>2026-05-30T02:04:59.000Z</time></trkpt>
        <trkpt lat="29.5299134" lon="103.3273495"><ele>2814.87</ele><time>2026-05-30T02:05:13.000Z</time></trkpt>
        <trkpt lat="29.5298627" lon="103.3274453"><ele>2816.62</ele><time>2026-05-30T02:05:37.000Z</time></trkpt>
        <trkpt lat="29.5298323" lon="103.3275523"><ele>2817</ele><time>2026-05-30T02:06:03.000Z</time></trkpt>
        <trkpt lat="29.5298039" lon="103.3276563"><ele>2817.01</ele><time>2026-05-30T02:06:47.000Z</time></trkpt>
        <trkpt lat="29.5297488" lon="103.3277464"><ele>2816.62</ele><time>2026-05-30T02:07:03.000Z</time></trkpt>
        <trkpt lat="29.5296644" lon="103.3277964"><ele>2816.4</ele><time>2026-05-30T02:07:15.000Z</time></trkpt>
        <trkpt lat="29.5295701" lon="103.3278151"><ele>2816.53</ele><time>2026-05-30T02:07:30.000Z</time></trkpt>
        <trkpt lat="29.5294685" lon="103.3277893"><ele>2817.96</ele><time>2026-05-30T02:08:40.000Z</time></trkpt>
        <trkpt lat="29.529377" lon="103.327774"><ele>2819.62</ele><time>2026-05-30T02:09:10.000Z</time></trkpt>
        <trkpt lat="29.5292935" lon="103.3278169"><ele>2821.05</ele><time>2026-05-30T02:09:36.000Z</time></trkpt>
        <trkpt lat="29.5292571" lon="103.3279112"><ele>2821.53</ele><time>2026-05-30T02:09:54.000Z</time></trkpt>
        <trkpt lat="29.5292254" lon="103.328022"><ele>2821.96</ele><time>2026-05-30T02:10:20.000Z</time></trkpt>
        <trkpt lat="29.5291982" lon="103.3281306"><ele>2823.3</ele><time>2026-05-30T02:10:38.000Z</time></trkpt>
        <trkpt lat="29.5291724" lon="103.3282413"><ele>2823.86</ele><time>2026-05-30T02:11:18.000Z</time></trkpt>
        <trkpt lat="29.5291546" lon="103.3283511"><ele>2825</ele><time>2026-05-30T02:11:54.000Z</time></trkpt>
        <trkpt lat="29.5291362" lon="103.3284654"><ele>2827.17</ele><time>2026-05-30T02:12:24.000Z</time></trkpt>
        <trkpt lat="29.5290923" lon="103.3285751"><ele>2830.01</ele><time>2026-05-30T02:13:02.000Z</time></trkpt>
        <trkpt lat="29.5290473" lon="103.3286712"><ele>2832.89</ele><time>2026-05-30T02:13:14.000Z</time></trkpt>
        <trkpt lat="29.5290103" lon="103.328768"><ele>2835.7</ele><time>2026-05-30T02:13:30.000Z</time></trkpt>
        <trkpt lat="29.5289769" lon="103.3288716"><ele>2837.75</ele><time>2026-05-30T02:13:46.000Z</time></trkpt>
        <trkpt lat="29.528929" lon="103.3289665"><ele>2839.92</ele><time>2026-05-30T02:14:00.000Z</time></trkpt>
        <trkpt lat="29.5288727" lon="103.3290581"><ele>2842.22</ele><time>2026-05-30T02:14:16.000Z</time></trkpt>
        <trkpt lat="29.5288168" lon="103.3291488"><ele>2844.3</ele><time>2026-05-30T02:14:36.000Z</time></trkpt>
        <trkpt lat="29.5287619" lon="103.3292339"><ele>2846.36</ele><time>2026-05-30T02:15:06.000Z</time></trkpt>
        <trkpt lat="29.5287049" lon="103.3293172"><ele>2849.25</ele><time>2026-05-30T02:15:20.000Z</time></trkpt>
        <trkpt lat="29.5286702" lon="103.3294117"><ele>2851.02</ele><time>2026-05-30T02:15:32.000Z</time></trkpt>
        <trkpt lat="29.528656" lon="103.3295288"><ele>2852.43</ele><time>2026-05-30T02:16:44.000Z</time></trkpt>
        <trkpt lat="29.5286274" lon="103.3296432"><ele>2853.7</ele><time>2026-05-30T02:16:54.000Z</time></trkpt>
        <trkpt lat="29.5286036" lon="103.3297512"><ele>2855.3</ele><time>2026-05-30T02:17:06.000Z</time></trkpt>
        <trkpt lat="29.5285925" lon="103.3298581"><ele>2856.47</ele><time>2026-05-30T02:17:22.000Z</time></trkpt>
        <trkpt lat="29.5285509" lon="103.329953"><ele>2857.25</ele><time>2026-05-30T02:17:34.000Z</time></trkpt>
        <trkpt lat="29.5284922" lon="103.3300381"><ele>2858.6</ele><time>2026-05-30T02:17:46.000Z</time></trkpt>
        <trkpt lat="29.528424" lon="103.3301318"><ele>2860.21</ele><time>2026-05-30T02:17:58.000Z</time></trkpt>
        <trkpt lat="29.5283525" lon="103.3302123"><ele>2861.93</ele><time>2026-05-30T02:18:10.000Z</time></trkpt>
        <trkpt lat="29.5283113" lon="103.330311"><ele>2863.24</ele><time>2026-05-30T02:18:20.000Z</time></trkpt>
        <trkpt lat="29.5282964" lon="103.3304171"><ele>2864.21</ele><time>2026-05-30T02:18:30.000Z</time></trkpt>
        <trkpt lat="29.5283071" lon="103.3305252"><ele>2864.91</ele><time>2026-05-30T02:18:46.000Z</time></trkpt>
        <trkpt lat="29.5282864" lon="103.3306277"><ele>2864.53</ele><time>2026-05-30T02:19:44.000Z</time></trkpt>
        <trkpt lat="29.5282489" lon="103.3307276"><ele>2865.8</ele><time>2026-05-30T02:20:04.000Z</time></trkpt>
        <trkpt lat="29.528187" lon="103.3308094"><ele>2868.48</ele><time>2026-05-30T02:20:36.000Z</time></trkpt>
        <trkpt lat="29.5281575" lon="103.3308389"><ele>2870.98</ele><time>2026-05-30T02:20:40.000Z</time></trkpt>
        <trkpt lat="29.5281259" lon="103.3309135"><ele>2872.53</ele><time>2026-05-30T02:21:00.000Z</time></trkpt>
        <trkpt lat="29.5280915" lon="103.3310079"><ele>2873.31</ele><time>2026-05-30T02:21:18.000Z</time></trkpt>
        <trkpt lat="29.5280442" lon="103.3311032"><ele>2874.12</ele><time>2026-05-30T02:21:40.000Z</time></trkpt>
        <trkpt lat="29.5280037" lon="103.3312032"><ele>2875.15</ele><time>2026-05-30T02:22:20.000Z</time></trkpt>
        <trkpt lat="29.5279392" lon="103.3312868"><ele>2876.91</ele><time>2026-05-30T02:22:36.000Z</time></trkpt>
        <trkpt lat="29.527863" lon="103.331358"><ele>2878.71</ele><time>2026-05-30T02:22:50.000Z</time></trkpt>
        <trkpt lat="29.5277968" lon="103.3314368"><ele>2880.33</ele><time>2026-05-30T02:23:06.000Z</time></trkpt>
        <trkpt lat="29.5277527" lon="103.3315364"><ele>2881.66</ele><time>2026-05-30T02:23:34.000Z</time></trkpt>
        <trkpt lat="29.5277184" lon="103.3316437"><ele>2882.95</ele><time>2026-05-30T02:23:48.000Z</time></trkpt>
        <trkpt lat="29.5277108" lon="103.3317585"><ele>2885.26</ele><time>2026-05-30T02:24:00.000Z</time></trkpt>
        <trkpt lat="29.5277019" lon="103.3318693"><ele>2886.56</ele><time>2026-05-30T02:24:14.000Z</time></trkpt>
        <trkpt lat="29.5276846" lon="103.3319777"><ele>2887.57</ele><time>2026-05-30T02:24:32.000Z</time></trkpt>
        <trkpt lat="29.5276089" lon="103.3320465"><ele>2889.57</ele><time>2026-05-30T02:25:44.000Z</time></trkpt>
        <trkpt lat="29.527544" lon="103.3321228"><ele>2892.31</ele><time>2026-05-30T02:25:56.000Z</time></trkpt>
        <trkpt lat="29.5275517" lon="103.3322296"><ele>2894.27</ele><time>2026-05-30T02:27:47.000Z</time></trkpt>
        <trkpt lat="29.527586" lon="103.3323288"><ele>2896.45</ele><time>2026-05-30T02:28:01.000Z</time></trkpt>
        <trkpt lat="29.5275299" lon="103.3324022"><ele>2897.73</ele><time>2026-05-30T02:28:15.000Z</time></trkpt>
        <trkpt lat="29.5274608" lon="103.3324709"><ele>2899.13</ele><time>2026-05-30T02:28:45.000Z</time></trkpt>
        <trkpt lat="29.5273628" lon="103.3324922"><ele>2900.91</ele><time>2026-05-30T02:28:59.000Z</time></trkpt>
        <trkpt lat="29.5272688" lon="103.3324569"><ele>2903.54</ele><time>2026-05-30T02:29:15.000Z</time></trkpt>
        <trkpt lat="29.5271978" lon="103.3323748"><ele>2906.53</ele><time>2026-05-30T02:29:25.000Z</time></trkpt>
        <trkpt lat="29.5271267" lon="103.3322863"><ele>2908.3</ele><time>2026-05-30T02:29:35.000Z</time></trkpt>
        <trkpt lat="29.5270996" lon="103.3322634"><ele>2910.3</ele><time>2026-05-30T02:29:37.000Z</time></trkpt>
        <trkpt lat="29.5270437" lon="103.3323193"><ele>2911.36</ele><time>2026-05-30T02:29:57.000Z</time></trkpt>
        <trkpt lat="29.5270251" lon="103.3324249"><ele>2912.84</ele><time>2026-05-30T02:30:15.000Z</time></trkpt>
        <trkpt lat="29.5270532" lon="103.3325432"><ele>2914.04</ele><time>2026-05-30T02:30:31.000Z</time></trkpt>
        <trkpt lat="29.5270764" lon="103.3326664"><ele>2914.95</ele><time>2026-05-30T02:30:47.000Z</time></trkpt>
        <trkpt lat="29.5270771" lon="103.3327877"><ele>2916.02</ele><time>2026-05-30T02:31:01.000Z</time></trkpt>
        <trkpt lat="29.5270478" lon="103.3329004"><ele>2916.71</ele><time>2026-05-30T02:31:15.000Z</time></trkpt>
        <trkpt lat="29.5270538" lon="103.3330089"><ele>2917.76</ele><time>2026-05-30T02:31:29.000Z</time></trkpt>
        <trkpt lat="29.5270831" lon="103.3331215"><ele>2918.71</ele><time>2026-05-30T02:31:41.000Z</time></trkpt>
        <trkpt lat="29.5271186" lon="103.33323"><ele>2919.58</ele><time>2026-05-30T02:31:55.000Z</time></trkpt>
        <trkpt lat="29.5270885" lon="103.3333254"><ele>2921.35</ele><time>2026-05-30T02:32:11.000Z</time></trkpt>
        <trkpt lat="29.5270176" lon="103.3334048"><ele>2923.18</ele><time>2026-05-30T02:32:25.000Z</time></trkpt>
        <trkpt lat="29.5269274" lon="103.3334733"><ele>2925.15</ele><time>2026-05-30T02:33:13.000Z</time></trkpt>
        <trkpt lat="29.5268282" lon="103.3335048"><ele>2927.02</ele><time>2026-05-30T02:33:35.000Z</time></trkpt>
        <trkpt lat="29.5267288" lon="103.3335184"><ele>2930.03</ele><time>2026-05-30T02:34:03.000Z</time></trkpt>
        <trkpt lat="29.5266329" lon="103.333528"><ele>2935.96</ele><time>2026-05-30T02:34:25.000Z</time></trkpt>
        <trkpt lat="29.5265494" lon="103.3335731"><ele>2941.01</ele><time>2026-05-30T02:35:05.000Z</time></trkpt>
        <trkpt lat="29.5264623" lon="103.3336097"><ele>2945.12</ele><time>2026-05-30T02:35:17.000Z</time></trkpt>
        <trkpt lat="29.5263762" lon="103.3336592"><ele>2948.82</ele><time>2026-05-30T02:35:31.000Z</time></trkpt>
        <trkpt lat="29.5262919" lon="103.3337018"><ele>2951.59</ele><time>2026-05-30T02:35:45.000Z</time></trkpt>
        <trkpt lat="29.5262111" lon="103.3337641"><ele>2953.76</ele><time>2026-05-30T02:35:57.000Z</time></trkpt>
        <trkpt lat="29.5261271" lon="103.3338221"><ele>2955.56</ele><time>2026-05-30T02:36:19.000Z</time></trkpt>
        <trkpt lat="29.5260387" lon="103.3338773"><ele>2957.62</ele><time>2026-05-30T02:36:39.000Z</time></trkpt>
        <trkpt lat="29.5259532" lon="103.3339313"><ele>2959.6</ele><time>2026-05-30T02:36:53.000Z</time></trkpt>
        <trkpt lat="29.5258632" lon="103.3339733"><ele>2960.42</ele><time>2026-05-30T02:37:11.000Z</time></trkpt>
        <trkpt lat="29.5257787" lon="103.3340281"><ele>2960.34</ele><time>2026-05-30T02:38:01.000Z</time></trkpt>
        <trkpt lat="29.5257007" lon="103.334094"><ele>2960.51</ele><time>2026-05-30T02:38:33.000Z</time></trkpt>
        <trkpt lat="29.5256207" lon="103.3341523"><ele>2960.43</ele><time>2026-05-30T02:38:49.000Z</time></trkpt>
        <trkpt lat="29.5255451" lon="103.3342298"><ele>2960.22</ele><time>2026-05-30T02:39:09.000Z</time></trkpt>
        <trkpt lat="29.5254797" lon="103.3343258"><ele>2959.73</ele><time>2026-05-30T02:39:23.000Z</time></trkpt>
        <trkpt lat="29.5254105" lon="103.3344104"><ele>2961.19</ele><time>2026-05-30T02:39:53.000Z</time></trkpt>
        <trkpt lat="29.5253536" lon="103.3345006"><ele>2963.9</ele><time>2026-05-30T02:40:07.000Z</time></trkpt>
        <trkpt lat="29.5252923" lon="103.3345813"><ele>2965.07</ele><time>2026-05-30T02:40:23.000Z</time></trkpt>
        <trkpt lat="29.5252244" lon="103.3346523"><ele>2966.11</ele><time>2026-05-30T02:41:01.000Z</time></trkpt>
        <trkpt lat="29.5251396" lon="103.3347143"><ele>2968.35</ele><time>2026-05-30T02:41:33.000Z</time></trkpt>
        <trkpt lat="29.5250575" lon="103.3347738"><ele>2970.51</ele><time>2026-05-30T02:42:03.000Z</time></trkpt>
        <trkpt lat="29.5249573" lon="103.3347931"><ele>2971.81</ele><time>2026-05-30T02:42:23.000Z</time></trkpt>
        <trkpt lat="29.5248568" lon="103.3347867"><ele>2973.71</ele><time>2026-05-30T02:42:33.000Z</time></trkpt>
        <trkpt lat="29.5247573" lon="103.3347851"><ele>2974.88</ele><time>2026-05-30T02:42:47.000Z</time></trkpt>
        <trkpt lat="29.5246516" lon="103.3347936"><ele>2976.4</ele><time>2026-05-30T02:43:17.000Z</time></trkpt>
        <trkpt lat="29.5245527" lon="103.3348184"><ele>2980.02</ele><time>2026-05-30T02:43:29.000Z</time></trkpt>
        <trkpt lat="29.5244595" lon="103.3348608"><ele>2984.57</ele><time>2026-05-30T02:43:41.000Z</time></trkpt>
        <trkpt lat="29.524374" lon="103.3348999"><ele>2988.34</ele><time>2026-05-30T02:45:05.000Z</time></trkpt>
        <trkpt lat="29.5242767" lon="103.334938"><ele>2989.98</ele><time>2026-05-30T02:45:57.000Z</time></trkpt>
        <trkpt lat="29.5241778" lon="103.3349633"><ele>2990.26</ele><time>2026-05-30T02:46:13.000Z</time></trkpt>
        <trkpt lat="29.5240772" lon="103.3349745"><ele>2991.39</ele><time>2026-05-30T02:46:23.000Z</time></trkpt>
        <trkpt lat="29.5239731" lon="103.3349697"><ele>2992.52</ele><time>2026-05-30T02:46:35.000Z</time></trkpt>
        <trkpt lat="29.5238808" lon="103.3349483"><ele>2993.56</ele><time>2026-05-30T02:46:51.000Z</time></trkpt>
        <trkpt lat="29.5237904" lon="103.3347855"><ele>2994.81</ele><time>2026-05-30T02:49:25.000Z</time></trkpt>
        <trkpt lat="29.5237999" lon="103.3346252"><ele>2995.56</ele><time>2026-05-30T02:49:32.000Z</time></trkpt>
        <trkpt lat="29.5238837" lon="103.3345554"><ele>2990.68</ele><time>2026-05-30T02:49:38.000Z</time></trkpt>
        <trkpt lat="29.5237833" lon="103.3345251"><ele>2985.13</ele><time>2026-05-30T02:49:44.000Z</time></trkpt>
        <trkpt lat="29.5237427" lon="103.3344421"><ele>2978.26</ele><time>2026-05-30T02:50:55.000Z</time></trkpt>
        <trkpt lat="29.5237999" lon="103.3343582"><ele>2984.64</ele><time>2026-05-30T02:57:48.000Z</time></trkpt>
        <trkpt lat="29.5237865" lon="103.3344879"><ele>2988.39</ele><time>2026-05-30T02:58:13.000Z</time></trkpt>
        <trkpt lat="29.523749" lon="103.3345853"><ele>2990.04</ele><time>2026-05-30T02:58:31.000Z</time></trkpt>
        <trkpt lat="29.5237336" lon="103.3346888"><ele>2989.73</ele><time>2026-05-30T02:58:41.000Z</time></trkpt>
        <trkpt lat="29.5238026" lon="103.3350122"><ele>2988.66</ele><time>2026-05-30T02:59:28.000Z</time></trkpt>
        <trkpt lat="29.5238315" lon="103.3350256"><ele>2989.81</ele><time>2026-05-30T02:59:32.000Z</time></trkpt>
        <trkpt lat="29.5238181" lon="103.3350004"><ele>2991.39</ele><time>2026-05-30T02:59:52.000Z</time></trkpt>
        <trkpt lat="29.5237445" lon="103.3349374"><ele>2993.68</ele><time>2026-05-30T03:00:14.000Z</time></trkpt>
        <trkpt lat="29.5236451" lon="103.3349028"><ele>2994.96</ele><time>2026-05-30T03:00:26.000Z</time></trkpt>
        <trkpt lat="29.5235451" lon="103.3348962"><ele>2995.4</ele><time>2026-05-30T03:00:40.000Z</time></trkpt>
        <trkpt lat="29.5234428" lon="103.3348787"><ele>2995.81</ele><time>2026-05-30T03:00:56.000Z</time></trkpt>
        <trkpt lat="29.5233403" lon="103.3348451"><ele>2996.45</ele><time>2026-05-30T03:01:08.000Z</time></trkpt>
        <trkpt lat="29.5232475" lon="103.3348116"><ele>2996.95</ele><time>2026-05-30T03:01:18.000Z</time></trkpt>
        <trkpt lat="29.5231532" lon="103.3347792"><ele>2997.28</ele><time>2026-05-30T03:01:30.000Z</time></trkpt>
        <trkpt lat="29.5230624" lon="103.3347535"><ele>2997.72</ele><time>2026-05-30T03:01:40.000Z</time></trkpt>
        <trkpt lat="29.5229729" lon="103.3347419"><ele>2998.64</ele><time>2026-05-30T03:02:12.000Z</time></trkpt>
        <trkpt lat="29.5228823" lon="103.3347581"><ele>2999.22</ele><time>2026-05-30T03:02:26.000Z</time></trkpt>
        <trkpt lat="29.5227924" lon="103.3347779"><ele>3000.11</ele><time>2026-05-30T03:02:42.000Z</time></trkpt>
        <trkpt lat="29.5227057" lon="103.3348084"><ele>3000.66</ele><time>2026-05-30T03:03:04.000Z</time></trkpt>
        <trkpt lat="29.522676" lon="103.3348989"><ele>3001.96</ele><time>2026-05-30T03:03:22.000Z</time></trkpt>
        <trkpt lat="29.5227085" lon="103.3350044"><ele>3002.85</ele><time>2026-05-30T03:03:36.000Z</time></trkpt>
        <trkpt lat="29.5227318" lon="103.3351228"><ele>3003.51</ele><time>2026-05-30T03:03:58.000Z</time></trkpt>
        <trkpt lat="29.5227509" lon="103.3352373"><ele>3003.9</ele><time>2026-05-30T03:04:44.000Z</time></trkpt>
        <trkpt lat="29.5227591" lon="103.3353481"><ele>3005.45</ele><time>2026-05-30T03:05:00.000Z</time></trkpt>
        <trkpt lat="29.5227494" lon="103.3354566"><ele>3007</ele><time>2026-05-30T03:05:20.000Z</time></trkpt>
        <trkpt lat="29.5227448" lon="103.3355639"><ele>3009.07</ele><time>2026-05-30T03:05:34.000Z</time></trkpt>
        <trkpt lat="29.5227403" lon="103.3356765"><ele>3011.34</ele><time>2026-05-30T03:05:52.000Z</time></trkpt>
        <trkpt lat="29.5227661" lon="103.3357773"><ele>3014.57</ele><time>2026-05-30T03:07:21.000Z</time></trkpt>
        <trkpt lat="29.5227585" lon="103.3358841"><ele>3016.75</ele><time>2026-05-30T03:07:35.000Z</time></trkpt>
        <trkpt lat="29.5226734" lon="103.3359328"><ele>3018.51</ele><time>2026-05-30T03:07:47.000Z</time></trkpt>
        <trkpt lat="29.5226143" lon="103.3360125"><ele>3020.72</ele><time>2026-05-30T03:08:27.000Z</time></trkpt>
        <trkpt lat="29.5225845" lon="103.336113"><ele>3022.36</ele><time>2026-05-30T03:08:51.000Z</time></trkpt>
        <trkpt lat="29.5225884" lon="103.3362208"><ele>3023.31</ele><time>2026-05-30T03:09:39.000Z</time></trkpt>
        <trkpt lat="29.5226336" lon="103.3363188"><ele>3023.53</ele><time>2026-05-30T03:09:49.000Z</time></trkpt>
        <trkpt lat="29.522697" lon="103.3364062"><ele>3023.81</ele><time>2026-05-30T03:10:01.000Z</time></trkpt>
        <trkpt lat="29.5227806" lon="103.3364612"><ele>3024.85</ele><time>2026-05-30T03:10:11.000Z</time></trkpt>
        <trkpt lat="29.522883" lon="103.3364819"><ele>3025.91</ele><time>2026-05-30T03:10:23.000Z</time></trkpt>
        <trkpt lat="29.522991" lon="103.3364865"><ele>3026.84</ele><time>2026-05-30T03:10:37.000Z</time></trkpt>
        <trkpt lat="29.5230772" lon="103.3365454"><ele>3027.23</ele><time>2026-05-30T03:10:49.000Z</time></trkpt>
        <trkpt lat="29.5231136" lon="103.3366496"><ele>3027.47</ele><time>2026-05-30T03:10:59.000Z</time></trkpt>
        <trkpt lat="29.5231165" lon="103.3367629"><ele>3027.79</ele><time>2026-05-30T03:11:11.000Z</time></trkpt>
        <trkpt lat="29.5231014" lon="103.3368762"><ele>3028.31</ele><time>2026-05-30T03:11:31.000Z</time></trkpt>
        <trkpt lat="29.523109" lon="103.3369987"><ele>3029.06</ele><time>2026-05-30T03:11:49.000Z</time></trkpt>
        <trkpt lat="29.5231075" lon="103.3371124"><ele>3030.28</ele><time>2026-05-30T03:12:52.000Z</time></trkpt>
        <trkpt lat="29.5230217" lon="103.3371506"><ele>3032.74</ele><time>2026-05-30T03:13:14.000Z</time></trkpt>
        <trkpt lat="29.5229359" lon="103.3371887"><ele>3034.71</ele><time>2026-05-30T03:13:26.000Z</time></trkpt>
        <trkpt lat="29.5228471" lon="103.3371915"><ele>3036.2</ele><time>2026-05-30T03:13:44.000Z</time></trkpt>
        <trkpt lat="29.5228471" lon="103.3371915"><ele>3036.2</ele><time>2026-05-30T03:13:50.000Z</time></trkpt>
      </trkseg>
  </trk>
</gpx>